<?xml version="1.0" encoding="UTF-8" standalone="no" ?>
<gpx xmlns="http://www.topografix.com/GPX/1/1" xmlns:xsi="http://www.w3.org/2001/XMLSchema-instance" xsi:schemaLocation="http://www.topografix.com/GPX/1/1 http://www.topografix.com/GPX/1/1/gpx.xsd" version="1.1" creator="VisuGPX - https://www.visugpx.com">
  <metadata>
    <name>Callian - St Cassien</name>
    <desc><![CDATA[VTT avec des collègues de Caro]]></desc>
  </metadata>
  <trk>
    <name><![CDATA[VIKING_TR0]]></name>
    <trkseg>
      <trkpt lat="43.64259" lon="6.74294">
        <ele>398.123169</ele>
        <time>2012-05-17T07:31:46Z</time>
      </trkpt>
      <trkpt lat="43.64252" lon="6.74293">
        <ele>397.161743</ele>
        <time>2012-05-17T07:31:51Z</time>
      </trkpt>
      <trkpt lat="43.64229" lon="6.74291">
        <ele>395.239136</ele>
        <time>2012-05-17T07:31:58Z</time>
      </trkpt>
      <trkpt lat="43.64208" lon="6.74288">
        <ele>394.277954</ele>
        <time>2012-05-17T07:32:03Z</time>
      </trkpt>
      <trkpt lat="43.64194" lon="6.74284">
        <ele>393.797241</ele>
        <time>2012-05-17T07:32:08Z</time>
      </trkpt>
      <trkpt lat="43.64177" lon="6.74282">
        <ele>395.719849</ele>
        <time>2012-05-17T07:32:16Z</time>
      </trkpt>
      <trkpt lat="43.6416" lon="6.74282">
        <ele>396.681152</ele>
        <time>2012-05-17T07:32:23Z</time>
      </trkpt>
      <trkpt lat="43.6414" lon="6.74279">
        <ele>395.719849</ele>
        <time>2012-05-17T07:32:29Z</time>
      </trkpt>
      <trkpt lat="43.64121" lon="6.74278">
        <ele>394.758545</ele>
        <time>2012-05-17T07:32:34Z</time>
      </trkpt>
      <trkpt lat="43.64106" lon="6.74278">
        <ele>394.277954</ele>
        <time>2012-05-17T07:32:40Z</time>
      </trkpt>
      <trkpt lat="43.64094" lon="6.74276">
        <ele>392.355347</ele>
        <time>2012-05-17T07:32:45Z</time>
      </trkpt>
      <trkpt lat="43.64076" lon="6.74274">
        <ele>392.355347</ele>
        <time>2012-05-17T07:32:51Z</time>
      </trkpt>
      <trkpt lat="43.64054" lon="6.74272">
        <ele>392.355347</ele>
        <time>2012-05-17T07:32:57Z</time>
      </trkpt>
      <trkpt lat="43.64032" lon="6.74271">
        <ele>390.913208</ele>
        <time>2012-05-17T07:33:02Z</time>
      </trkpt>
      <trkpt lat="43.64006" lon="6.74268">
        <ele>388.51001</ele>
        <time>2012-05-17T07:33:08Z</time>
      </trkpt>
      <trkpt lat="43.63979" lon="6.74264">
        <ele>386.106689</ele>
        <time>2012-05-17T07:33:14Z</time>
      </trkpt>
      <trkpt lat="43.63957" lon="6.74265">
        <ele>386.587402</ele>
        <time>2012-05-17T07:33:19Z</time>
      </trkpt>
      <trkpt lat="43.63936" lon="6.74257">
        <ele>385.145386</ele>
        <time>2012-05-17T07:33:24Z</time>
      </trkpt>
      <trkpt lat="43.63905" lon="6.74247">
        <ele>383.703247</ele>
        <time>2012-05-17T07:33:31Z</time>
      </trkpt>
      <trkpt lat="43.63878" lon="6.74237">
        <ele>383.703247</ele>
        <time>2012-05-17T07:33:37Z</time>
      </trkpt>
      <trkpt lat="43.63864" lon="6.74232">
        <ele>384.184082</ele>
        <time>2012-05-17T07:33:41Z</time>
      </trkpt>
      <trkpt lat="43.63852" lon="6.74226">
        <ele>383.703247</ele>
        <time>2012-05-17T07:33:45Z</time>
      </trkpt>
      <trkpt lat="43.63832" lon="6.74215">
        <ele>383.703247</ele>
        <time>2012-05-17T07:33:51Z</time>
      </trkpt>
      <trkpt lat="43.6381" lon="6.74205">
        <ele>380.819458</ele>
        <time>2012-05-17T07:33:56Z</time>
      </trkpt>
      <trkpt lat="43.63793" lon="6.74202">
        <ele>380.338745</ele>
        <time>2012-05-17T07:34:00Z</time>
      </trkpt>
      <trkpt lat="43.63764" lon="6.74197">
        <ele>379.858032</ele>
        <time>2012-05-17T07:34:08Z</time>
      </trkpt>
      <trkpt lat="43.63737" lon="6.74186">
        <ele>378.416138</ele>
        <time>2012-05-17T07:34:15Z</time>
      </trkpt>
      <trkpt lat="43.63732" lon="6.74184">
        <ele>377.454834</ele>
        <time>2012-05-17T07:34:16Z</time>
      </trkpt>
      <trkpt lat="43.63709" lon="6.74183">
        <ele>375.532104</ele>
        <time>2012-05-17T07:34:20Z</time>
      </trkpt>
      <trkpt lat="43.63702" lon="6.74183">
        <ele>374.570801</ele>
        <time>2012-05-17T07:34:22Z</time>
      </trkpt>
      <trkpt lat="43.63682" lon="6.74173">
        <ele>372.16748</ele>
        <time>2012-05-17T07:34:28Z</time>
      </trkpt>
      <trkpt lat="43.63672" lon="6.74163">
        <ele>370.244873</ele>
        <time>2012-05-17T07:34:32Z</time>
      </trkpt>
      <trkpt lat="43.63658" lon="6.74152">
        <ele>367.360962</ele>
        <time>2012-05-17T07:34:37Z</time>
      </trkpt>
      <trkpt lat="43.63645" lon="6.7414">
        <ele>366.399536</ele>
        <time>2012-05-17T07:34:43Z</time>
      </trkpt>
      <trkpt lat="43.63632" lon="6.74132">
        <ele>366.399536</ele>
        <time>2012-05-17T07:34:49Z</time>
      </trkpt>
      <trkpt lat="43.63624" lon="6.74127">
        <ele>369.283691</ele>
        <time>2012-05-17T07:34:54Z</time>
      </trkpt>
      <trkpt lat="43.63625" lon="6.74131">
        <ele>370.244873</ele>
        <time>2012-05-17T07:34:59Z</time>
      </trkpt>
      <trkpt lat="43.63633" lon="6.74137">
        <ele>371.68689</ele>
        <time>2012-05-17T07:35:03Z</time>
      </trkpt>
      <trkpt lat="43.63636" lon="6.74139">
        <ele>371.68689</ele>
        <time>2012-05-17T07:35:04Z</time>
      </trkpt>
      <trkpt lat="43.63652" lon="6.7415">
        <ele>369.283691</ele>
        <time>2012-05-17T07:35:10Z</time>
      </trkpt>
      <trkpt lat="43.63667" lon="6.74163">
        <ele>366.399536</ele>
        <time>2012-05-17T07:35:17Z</time>
      </trkpt>
      <trkpt lat="43.63679" lon="6.74176">
        <ele>365.438354</ele>
        <time>2012-05-17T07:35:22Z</time>
      </trkpt>
      <trkpt lat="43.63691" lon="6.74183">
        <ele>364.957642</ele>
        <time>2012-05-17T07:35:27Z</time>
      </trkpt>
      <trkpt lat="43.63695" lon="6.74198">
        <ele>365.918945</ele>
        <time>2012-05-17T07:35:33Z</time>
      </trkpt>
      <trkpt lat="43.63697" lon="6.74207">
        <ele>366.399536</ele>
        <time>2012-05-17T07:35:36Z</time>
      </trkpt>
      <trkpt lat="43.63696" lon="6.74214">
        <ele>368.802979</ele>
        <time>2012-05-17T07:35:39Z</time>
      </trkpt>
      <trkpt lat="43.63698" lon="6.74229">
        <ele>367.841553</ele>
        <time>2012-05-17T07:35:43Z</time>
      </trkpt>
      <trkpt lat="43.63692" lon="6.74251">
        <ele>367.360962</ele>
        <time>2012-05-17T07:35:48Z</time>
      </trkpt>
      <trkpt lat="43.6369" lon="6.74254">
        <ele>367.360962</ele>
        <time>2012-05-17T07:35:49Z</time>
      </trkpt>
      <trkpt lat="43.63682" lon="6.74272">
        <ele>371.68689</ele>
        <time>2012-05-17T07:35:55Z</time>
      </trkpt>
      <trkpt lat="43.6368" lon="6.74274">
        <ele>373.128906</ele>
        <time>2012-05-17T07:35:56Z</time>
      </trkpt>
      <trkpt lat="43.63669" lon="6.74283">
        <ele>376.974243</ele>
        <time>2012-05-17T07:36:01Z</time>
      </trkpt>
      <trkpt lat="43.63667" lon="6.74287">
        <ele>376.974243</ele>
        <time>2012-05-17T07:36:02Z</time>
      </trkpt>
      <trkpt lat="43.6366" lon="6.74312">
        <ele>380.338745</ele>
        <time>2012-05-17T07:36:08Z</time>
      </trkpt>
      <trkpt lat="43.63655" lon="6.74317">
        <ele>381.78064</ele>
        <time>2012-05-17T07:36:11Z</time>
      </trkpt>
      <trkpt lat="43.63648" lon="6.74333">
        <ele>383.703247</ele>
        <time>2012-05-17T07:36:15Z</time>
      </trkpt>
      <trkpt lat="43.63643" lon="6.74355">
        <ele>382.261353</ele>
        <time>2012-05-17T07:36:21Z</time>
      </trkpt>
      <trkpt lat="43.63643" lon="6.74373">
        <ele>379.377441</ele>
        <time>2012-05-17T07:36:26Z</time>
      </trkpt>
      <trkpt lat="43.63647" lon="6.74393">
        <ele>379.377441</ele>
        <time>2012-05-17T07:36:31Z</time>
      </trkpt>
      <trkpt lat="43.63652" lon="6.74413">
        <ele>381.300049</ele>
        <time>2012-05-17T07:36:37Z</time>
      </trkpt>
      <trkpt lat="43.63658" lon="6.74432">
        <ele>381.300049</ele>
        <time>2012-05-17T07:36:42Z</time>
      </trkpt>
      <trkpt lat="43.63659" lon="6.74453">
        <ele>382.742065</ele>
        <time>2012-05-17T07:36:47Z</time>
      </trkpt>
      <trkpt lat="43.63659" lon="6.74457">
        <ele>383.222656</ele>
        <time>2012-05-17T07:36:51Z</time>
      </trkpt>
      <trkpt lat="43.63658" lon="6.74459">
        <ele>383.703247</ele>
        <time>2012-05-17T07:36:56Z</time>
      </trkpt>
      <trkpt lat="43.63659" lon="6.74461">
        <ele>383.222656</ele>
        <time>2012-05-17T07:36:58Z</time>
      </trkpt>
      <trkpt lat="43.63658" lon="6.74474">
        <ele>383.222656</ele>
        <time>2012-05-17T07:37:05Z</time>
      </trkpt>
      <trkpt lat="43.63657" lon="6.74476">
        <ele>384.184082</ele>
        <time>2012-05-17T07:37:08Z</time>
      </trkpt>
      <trkpt lat="43.63657" lon="6.74481">
        <ele>384.664795</ele>
        <time>2012-05-17T07:37:14Z</time>
      </trkpt>
      <trkpt lat="43.63658" lon="6.74484">
        <ele>383.222656</ele>
        <time>2012-05-17T07:37:19Z</time>
      </trkpt>
      <trkpt lat="43.63656" lon="6.74485">
        <ele>383.222656</ele>
        <time>2012-05-17T07:37:27Z</time>
      </trkpt>
      <trkpt lat="43.63655" lon="6.7449">
        <ele>382.742065</ele>
        <time>2012-05-17T07:37:33Z</time>
      </trkpt>
      <trkpt lat="43.63656" lon="6.74498">
        <ele>383.703247</ele>
        <time>2012-05-17T07:37:40Z</time>
      </trkpt>
      <trkpt lat="43.63656" lon="6.74499">
        <ele>382.261353</ele>
        <time>2012-05-17T07:37:47Z</time>
      </trkpt>
      <trkpt lat="43.63655" lon="6.74503">
        <ele>384.664795</ele>
        <time>2012-05-17T07:38:02Z</time>
      </trkpt>
      <trkpt lat="43.63656" lon="6.74503">
        <ele>374.090088</ele>
        <time>2012-05-17T07:38:20Z</time>
      </trkpt>
      <trkpt lat="43.63657" lon="6.74502">
        <ele>376.974243</ele>
        <time>2012-05-17T07:38:28Z</time>
      </trkpt>
      <trkpt lat="43.63657" lon="6.74508">
        <ele>380.338745</ele>
        <time>2012-05-17T07:38:36Z</time>
      </trkpt>
      <trkpt lat="43.63655" lon="6.74518">
        <ele>379.858032</ele>
        <time>2012-05-17T07:38:41Z</time>
      </trkpt>
      <trkpt lat="43.63652" lon="6.74533">
        <ele>382.261353</ele>
        <time>2012-05-17T07:38:47Z</time>
      </trkpt>
      <trkpt lat="43.63648" lon="6.74555">
        <ele>384.184082</ele>
        <time>2012-05-17T07:38:52Z</time>
      </trkpt>
      <trkpt lat="43.6365" lon="6.74571">
        <ele>384.184082</ele>
        <time>2012-05-17T07:38:56Z</time>
      </trkpt>
      <trkpt lat="43.63658" lon="6.74593">
        <ele>387.067993</ele>
        <time>2012-05-17T07:39:01Z</time>
      </trkpt>
      <trkpt lat="43.63664" lon="6.74616">
        <ele>386.106689</ele>
        <time>2012-05-17T07:39:06Z</time>
      </trkpt>
      <trkpt lat="43.63665" lon="6.74624">
        <ele>386.106689</ele>
        <time>2012-05-17T07:39:08Z</time>
      </trkpt>
      <trkpt lat="43.63657" lon="6.74641">
        <ele>387.548584</ele>
        <time>2012-05-17T07:39:13Z</time>
      </trkpt>
      <trkpt lat="43.63652" lon="6.74648">
        <ele>388.029297</ele>
        <time>2012-05-17T07:39:15Z</time>
      </trkpt>
      <trkpt lat="43.63639" lon="6.74663">
        <ele>389.471191</ele>
        <time>2012-05-17T07:39:21Z</time>
      </trkpt>
      <trkpt lat="43.63635" lon="6.74682">
        <ele>388.51001</ele>
        <time>2012-05-17T07:39:26Z</time>
      </trkpt>
      <trkpt lat="43.63635" lon="6.74687">
        <ele>387.548584</ele>
        <time>2012-05-17T07:39:27Z</time>
      </trkpt>
      <trkpt lat="43.6363" lon="6.74714">
        <ele>387.548584</ele>
        <time>2012-05-17T07:39:33Z</time>
      </trkpt>
      <trkpt lat="43.63621" lon="6.7474">
        <ele>390.913208</ele>
        <time>2012-05-17T07:39:40Z</time>
      </trkpt>
      <trkpt lat="43.63617" lon="6.74744">
        <ele>390.913208</ele>
        <time>2012-05-17T07:39:44Z</time>
      </trkpt>
      <trkpt lat="43.63614" lon="6.74748">
        <ele>388.029297</ele>
        <time>2012-05-17T07:39:50Z</time>
      </trkpt>
      <trkpt lat="43.63606" lon="6.74751">
        <ele>391.874512</ele>
        <time>2012-05-17T07:39:57Z</time>
      </trkpt>
      <trkpt lat="43.63603" lon="6.74754">
        <ele>399.565063</ele>
        <time>2012-05-17T07:40:05Z</time>
      </trkpt>
      <trkpt lat="43.63598" lon="6.74756">
        <ele>394.277954</ele>
        <time>2012-05-17T07:40:27Z</time>
      </trkpt>
      <trkpt lat="43.63593" lon="6.74762">
        <ele>393.797241</ele>
        <time>2012-05-17T07:40:35Z</time>
      </trkpt>
      <trkpt lat="43.63591" lon="6.74763">
        <ele>393.316528</ele>
        <time>2012-05-17T07:40:36Z</time>
      </trkpt>
      <trkpt lat="43.63585" lon="6.7477">
        <ele>396.200562</ele>
        <time>2012-05-17T07:40:41Z</time>
      </trkpt>
      <trkpt lat="43.63578" lon="6.74781">
        <ele>396.200562</ele>
        <time>2012-05-17T07:40:46Z</time>
      </trkpt>
      <trkpt lat="43.63578" lon="6.7479">
        <ele>395.239136</ele>
        <time>2012-05-17T07:40:50Z</time>
      </trkpt>
      <trkpt lat="43.63584" lon="6.74796">
        <ele>393.316528</ele>
        <time>2012-05-17T07:40:56Z</time>
      </trkpt>
      <trkpt lat="43.63593" lon="6.74799">
        <ele>392.835938</ele>
        <time>2012-05-17T07:41:00Z</time>
      </trkpt>
      <trkpt lat="43.63604" lon="6.74806">
        <ele>393.316528</ele>
        <time>2012-05-17T07:41:06Z</time>
      </trkpt>
      <trkpt lat="43.63606" lon="6.74811">
        <ele>393.797241</ele>
        <time>2012-05-17T07:41:08Z</time>
      </trkpt>
      <trkpt lat="43.63602" lon="6.74815">
        <ele>393.797241</ele>
        <time>2012-05-17T07:41:13Z</time>
      </trkpt>
      <trkpt lat="43.63591" lon="6.74819">
        <ele>394.277954</ele>
        <time>2012-05-17T07:41:19Z</time>
      </trkpt>
      <trkpt lat="43.63577" lon="6.74826">
        <ele>394.277954</ele>
        <time>2012-05-17T07:41:26Z</time>
      </trkpt>
      <trkpt lat="43.63564" lon="6.74831">
        <ele>395.719849</ele>
        <time>2012-05-17T07:41:33Z</time>
      </trkpt>
      <trkpt lat="43.63552" lon="6.74838">
        <ele>396.200562</ele>
        <time>2012-05-17T07:41:38Z</time>
      </trkpt>
      <trkpt lat="43.63535" lon="6.74847">
        <ele>399.565063</ele>
        <time>2012-05-17T07:41:45Z</time>
      </trkpt>
      <trkpt lat="43.63516" lon="6.74856">
        <ele>400.045898</ele>
        <time>2012-05-17T07:41:52Z</time>
      </trkpt>
      <trkpt lat="43.63495" lon="6.74867">
        <ele>405.333008</ele>
        <time>2012-05-17T07:42:00Z</time>
      </trkpt>
      <trkpt lat="43.63472" lon="6.74879">
        <ele>404.371704</ele>
        <time>2012-05-17T07:42:09Z</time>
      </trkpt>
      <trkpt lat="43.63447" lon="6.74891">
        <ele>401.968506</ele>
        <time>2012-05-17T07:42:18Z</time>
      </trkpt>
      <trkpt lat="43.63445" lon="6.74894">
        <ele>401.487793</ele>
        <time>2012-05-17T07:42:19Z</time>
      </trkpt>
      <trkpt lat="43.63441" lon="6.7491">
        <ele>400.526489</ele>
        <time>2012-05-17T07:42:23Z</time>
      </trkpt>
      <trkpt lat="43.63429" lon="6.74947">
        <ele>399.565063</ele>
        <time>2012-05-17T07:42:32Z</time>
      </trkpt>
      <trkpt lat="43.63421" lon="6.74974">
        <ele>399.565063</ele>
        <time>2012-05-17T07:42:39Z</time>
      </trkpt>
      <trkpt lat="43.6341" lon="6.75005">
        <ele>400.526489</ele>
        <time>2012-05-17T07:42:47Z</time>
      </trkpt>
      <trkpt lat="43.634" lon="6.75036">
        <ele>404.371704</ele>
        <time>2012-05-17T07:42:55Z</time>
      </trkpt>
      <trkpt lat="43.63393" lon="6.75058">
        <ele>404.371704</ele>
        <time>2012-05-17T07:43:01Z</time>
      </trkpt>
      <trkpt lat="43.63385" lon="6.75081">
        <ele>405.333008</ele>
        <time>2012-05-17T07:43:07Z</time>
      </trkpt>
      <trkpt lat="43.63375" lon="6.75115">
        <ele>405.813721</ele>
        <time>2012-05-17T07:43:15Z</time>
      </trkpt>
      <trkpt lat="43.63368" lon="6.75142">
        <ele>403.891113</ele>
        <time>2012-05-17T07:43:21Z</time>
      </trkpt>
      <trkpt lat="43.63352" lon="6.75179">
        <ele>402.929688</ele>
        <time>2012-05-17T07:43:30Z</time>
      </trkpt>
      <trkpt lat="43.63337" lon="6.75201">
        <ele>404.852295</ele>
        <time>2012-05-17T07:43:37Z</time>
      </trkpt>
      <trkpt lat="43.63318" lon="6.75227">
        <ele>406.294312</ele>
        <time>2012-05-17T07:43:45Z</time>
      </trkpt>
      <trkpt lat="43.63305" lon="6.75245">
        <ele>408.217041</ele>
        <time>2012-05-17T07:43:51Z</time>
      </trkpt>
      <trkpt lat="43.63287" lon="6.75269">
        <ele>409.659058</ele>
        <time>2012-05-17T07:43:59Z</time>
      </trkpt>
      <trkpt lat="43.63278" lon="6.75285">
        <ele>409.659058</ele>
        <time>2012-05-17T07:44:04Z</time>
      </trkpt>
      <trkpt lat="43.63268" lon="6.7531">
        <ele>409.659058</ele>
        <time>2012-05-17T07:44:11Z</time>
      </trkpt>
      <trkpt lat="43.63258" lon="6.75338">
        <ele>410.139648</ele>
        <time>2012-05-17T07:44:18Z</time>
      </trkpt>
      <trkpt lat="43.6325" lon="6.75358">
        <ele>411.581665</ele>
        <time>2012-05-17T07:44:24Z</time>
      </trkpt>
      <trkpt lat="43.63243" lon="6.75376">
        <ele>411.100952</ele>
        <time>2012-05-17T07:44:29Z</time>
      </trkpt>
      <trkpt lat="43.63235" lon="6.75396">
        <ele>410.620239</ele>
        <time>2012-05-17T07:44:35Z</time>
      </trkpt>
      <trkpt lat="43.63228" lon="6.75411">
        <ele>410.620239</ele>
        <time>2012-05-17T07:44:40Z</time>
      </trkpt>
      <trkpt lat="43.63216" lon="6.75431">
        <ele>410.139648</ele>
        <time>2012-05-17T07:44:46Z</time>
      </trkpt>
      <trkpt lat="43.63202" lon="6.75448">
        <ele>410.620239</ele>
        <time>2012-05-17T07:44:52Z</time>
      </trkpt>
      <trkpt lat="43.63187" lon="6.75467">
        <ele>411.581665</ele>
        <time>2012-05-17T07:44:59Z</time>
      </trkpt>
      <trkpt lat="43.63178" lon="6.75484">
        <ele>411.100952</ele>
        <time>2012-05-17T07:45:04Z</time>
      </trkpt>
      <trkpt lat="43.63171" lon="6.75496">
        <ele>412.062256</ele>
        <time>2012-05-17T07:45:08Z</time>
      </trkpt>
      <trkpt lat="43.63168" lon="6.75516">
        <ele>413.02356</ele>
        <time>2012-05-17T07:45:13Z</time>
      </trkpt>
      <trkpt lat="43.63167" lon="6.7554">
        <ele>413.504272</ele>
        <time>2012-05-17T07:45:19Z</time>
      </trkpt>
      <trkpt lat="43.63161" lon="6.75561">
        <ele>411.581665</ele>
        <time>2012-05-17T07:45:25Z</time>
      </trkpt>
      <trkpt lat="43.63143" lon="6.75579">
        <ele>411.100952</ele>
        <time>2012-05-17T07:45:32Z</time>
      </trkpt>
      <trkpt lat="43.63119" lon="6.75592">
        <ele>410.139648</ele>
        <time>2012-05-17T07:45:38Z</time>
      </trkpt>
      <trkpt lat="43.6311" lon="6.75596">
        <ele>409.659058</ele>
        <time>2012-05-17T07:45:40Z</time>
      </trkpt>
      <trkpt lat="43.631" lon="6.75605">
        <ele>410.139648</ele>
        <time>2012-05-17T07:45:43Z</time>
      </trkpt>
      <trkpt lat="43.63085" lon="6.75625">
        <ele>410.139648</ele>
        <time>2012-05-17T07:45:50Z</time>
      </trkpt>
      <trkpt lat="43.63073" lon="6.75645">
        <ele>409.178345</ele>
        <time>2012-05-17T07:45:57Z</time>
      </trkpt>
      <trkpt lat="43.63059" lon="6.75665">
        <ele>409.178345</ele>
        <time>2012-05-17T07:46:04Z</time>
      </trkpt>
      <trkpt lat="43.63045" lon="6.75691">
        <ele>407.736328</ele>
        <time>2012-05-17T07:46:11Z</time>
      </trkpt>
      <trkpt lat="43.63037" lon="6.75721">
        <ele>407.255615</ele>
        <time>2012-05-17T07:46:16Z</time>
      </trkpt>
      <trkpt lat="43.63024" lon="6.75758">
        <ele>406.294312</ele>
        <time>2012-05-17T07:46:21Z</time>
      </trkpt>
      <trkpt lat="43.63018" lon="6.75774">
        <ele>405.813721</ele>
        <time>2012-05-17T07:46:24Z</time>
      </trkpt>
      <trkpt lat="43.63005" lon="6.75812">
        <ele>402.929688</ele>
        <time>2012-05-17T07:46:30Z</time>
      </trkpt>
      <trkpt lat="43.62997" lon="6.75851">
        <ele>401.00708</ele>
        <time>2012-05-17T07:46:36Z</time>
      </trkpt>
      <trkpt lat="43.62995" lon="6.75862">
        <ele>400.526489</ele>
        <time>2012-05-17T07:46:39Z</time>
      </trkpt>
      <trkpt lat="43.62995" lon="6.75877">
        <ele>400.526489</ele>
        <time>2012-05-17T07:46:44Z</time>
      </trkpt>
      <trkpt lat="43.62992" lon="6.7591">
        <ele>400.526489</ele>
        <time>2012-05-17T07:46:50Z</time>
      </trkpt>
      <trkpt lat="43.62986" lon="6.75951">
        <ele>401.487793</ele>
        <time>2012-05-17T07:46:56Z</time>
      </trkpt>
      <trkpt lat="43.6298" lon="6.75986">
        <ele>400.045898</ele>
        <time>2012-05-17T07:47:01Z</time>
      </trkpt>
      <trkpt lat="43.62972" lon="6.76034">
        <ele>399.084351</ele>
        <time>2012-05-17T07:47:07Z</time>
      </trkpt>
      <trkpt lat="43.62964" lon="6.76085">
        <ele>398.60376</ele>
        <time>2012-05-17T07:47:13Z</time>
      </trkpt>
      <trkpt lat="43.62952" lon="6.76141">
        <ele>398.60376</ele>
        <time>2012-05-17T07:47:20Z</time>
      </trkpt>
      <trkpt lat="43.62947" lon="6.76154">
        <ele>399.084351</ele>
        <time>2012-05-17T07:47:22Z</time>
      </trkpt>
      <trkpt lat="43.62928" lon="6.76169">
        <ele>398.60376</ele>
        <time>2012-05-17T07:47:26Z</time>
      </trkpt>
      <trkpt lat="43.6292" lon="6.76168">
        <ele>398.60376</ele>
        <time>2012-05-17T07:47:28Z</time>
      </trkpt>
      <trkpt lat="43.6291" lon="6.76171">
        <ele>399.084351</ele>
        <time>2012-05-17T07:47:32Z</time>
      </trkpt>
      <trkpt lat="43.629" lon="6.76181">
        <ele>399.084351</ele>
        <time>2012-05-17T07:47:39Z</time>
      </trkpt>
      <trkpt lat="43.62894" lon="6.76191">
        <ele>398.60376</ele>
        <time>2012-05-17T07:47:45Z</time>
      </trkpt>
      <trkpt lat="43.62888" lon="6.76214">
        <ele>398.60376</ele>
        <time>2012-05-17T07:47:52Z</time>
      </trkpt>
      <trkpt lat="43.62885" lon="6.76235">
        <ele>399.084351</ele>
        <time>2012-05-17T07:48:00Z</time>
      </trkpt>
      <trkpt lat="43.62884" lon="6.76242">
        <ele>399.084351</ele>
        <time>2012-05-17T07:48:03Z</time>
      </trkpt>
      <trkpt lat="43.62881" lon="6.76264">
        <ele>399.565063</ele>
        <time>2012-05-17T07:48:09Z</time>
      </trkpt>
      <trkpt lat="43.62874" lon="6.76284">
        <ele>399.565063</ele>
        <time>2012-05-17T07:48:14Z</time>
      </trkpt>
      <trkpt lat="43.6286" lon="6.7632">
        <ele>398.60376</ele>
        <time>2012-05-17T07:48:21Z</time>
      </trkpt>
      <trkpt lat="43.62843" lon="6.76357">
        <ele>398.60376</ele>
        <time>2012-05-17T07:48:27Z</time>
      </trkpt>
      <trkpt lat="43.62825" lon="6.76398">
        <ele>397.161743</ele>
        <time>2012-05-17T07:48:33Z</time>
      </trkpt>
      <trkpt lat="43.62822" lon="6.76405">
        <ele>397.161743</ele>
        <time>2012-05-17T07:48:34Z</time>
      </trkpt>
      <trkpt lat="43.62813" lon="6.76423">
        <ele>396.681152</ele>
        <time>2012-05-17T07:48:37Z</time>
      </trkpt>
      <trkpt lat="43.62803" lon="6.76465">
        <ele>397.642456</ele>
        <time>2012-05-17T07:48:44Z</time>
      </trkpt>
      <trkpt lat="43.62802" lon="6.76482">
        <ele>399.084351</ele>
        <time>2012-05-17T07:48:47Z</time>
      </trkpt>
      <trkpt lat="43.62802" lon="6.76492">
        <ele>399.084351</ele>
        <time>2012-05-17T07:48:49Z</time>
      </trkpt>
      <trkpt lat="43.62793" lon="6.76522">
        <ele>398.123169</ele>
        <time>2012-05-17T07:48:55Z</time>
      </trkpt>
      <trkpt lat="43.62792" lon="6.76524">
        <ele>397.642456</ele>
        <time>2012-05-17T07:48:56Z</time>
      </trkpt>
      <trkpt lat="43.62791" lon="6.76527">
        <ele>396.681152</ele>
        <time>2012-05-17T07:49:03Z</time>
      </trkpt>
      <trkpt lat="43.62786" lon="6.76549">
        <ele>396.200562</ele>
        <time>2012-05-17T07:49:09Z</time>
      </trkpt>
      <trkpt lat="43.62779" lon="6.76583">
        <ele>395.719849</ele>
        <time>2012-05-17T07:49:14Z</time>
      </trkpt>
      <trkpt lat="43.62764" lon="6.76645">
        <ele>394.277954</ele>
        <time>2012-05-17T07:49:22Z</time>
      </trkpt>
      <trkpt lat="43.62746" lon="6.76692">
        <ele>393.797241</ele>
        <time>2012-05-17T07:49:29Z</time>
      </trkpt>
      <trkpt lat="43.62744" lon="6.76698">
        <ele>393.316528</ele>
        <time>2012-05-17T07:49:30Z</time>
      </trkpt>
      <trkpt lat="43.62718" lon="6.7674">
        <ele>392.355347</ele>
        <time>2012-05-17T07:49:38Z</time>
      </trkpt>
      <trkpt lat="43.62711" lon="6.76751">
        <ele>391.874512</ele>
        <time>2012-05-17T07:49:40Z</time>
      </trkpt>
      <trkpt lat="43.62701" lon="6.76763">
        <ele>390.913208</ele>
        <time>2012-05-17T07:49:42Z</time>
      </trkpt>
      <trkpt lat="43.62686" lon="6.76784">
        <ele>389.951904</ele>
        <time>2012-05-17T07:49:45Z</time>
      </trkpt>
      <trkpt lat="43.62666" lon="6.768">
        <ele>388.990601</ele>
        <time>2012-05-17T07:49:49Z</time>
      </trkpt>
      <trkpt lat="43.62653" lon="6.76798">
        <ele>387.548584</ele>
        <time>2012-05-17T07:49:53Z</time>
      </trkpt>
      <trkpt lat="43.62644" lon="6.76804">
        <ele>387.548584</ele>
        <time>2012-05-17T07:49:56Z</time>
      </trkpt>
      <trkpt lat="43.6263" lon="6.76823">
        <ele>387.548584</ele>
        <time>2012-05-17T07:50:02Z</time>
      </trkpt>
      <trkpt lat="43.62617" lon="6.7685">
        <ele>388.029297</ele>
        <time>2012-05-17T07:50:09Z</time>
      </trkpt>
      <trkpt lat="43.62608" lon="6.76881">
        <ele>388.990601</ele>
        <time>2012-05-17T07:50:16Z</time>
      </trkpt>
      <trkpt lat="43.62599" lon="6.7691">
        <ele>388.51001</ele>
        <time>2012-05-17T07:50:22Z</time>
      </trkpt>
      <trkpt lat="43.62584" lon="6.76946">
        <ele>386.106689</ele>
        <time>2012-05-17T07:50:28Z</time>
      </trkpt>
      <trkpt lat="43.6258" lon="6.76953">
        <ele>385.145386</ele>
        <time>2012-05-17T07:50:29Z</time>
      </trkpt>
      <trkpt lat="43.62555" lon="6.7702">
        <ele>383.222656</ele>
        <time>2012-05-17T07:50:36Z</time>
      </trkpt>
      <trkpt lat="43.62543" lon="6.77079">
        <ele>383.222656</ele>
        <time>2012-05-17T07:50:42Z</time>
      </trkpt>
      <trkpt lat="43.62537" lon="6.77112">
        <ele>383.222656</ele>
        <time>2012-05-17T07:50:46Z</time>
      </trkpt>
      <trkpt lat="43.62521" lon="6.7716">
        <ele>384.184082</ele>
        <time>2012-05-17T07:50:52Z</time>
      </trkpt>
      <trkpt lat="43.62502" lon="6.77187">
        <ele>385.145386</ele>
        <time>2012-05-17T07:50:57Z</time>
      </trkpt>
      <trkpt lat="43.62495" lon="6.77198">
        <ele>385.625977</ele>
        <time>2012-05-17T07:50:59Z</time>
      </trkpt>
      <trkpt lat="43.62477" lon="6.77246">
        <ele>386.587402</ele>
        <time>2012-05-17T07:51:07Z</time>
      </trkpt>
      <trkpt lat="43.62464" lon="6.7729">
        <ele>386.587402</ele>
        <time>2012-05-17T07:51:14Z</time>
      </trkpt>
      <trkpt lat="43.62443" lon="6.77334">
        <ele>386.587402</ele>
        <time>2012-05-17T07:51:22Z</time>
      </trkpt>
      <trkpt lat="43.62424" lon="6.77373">
        <ele>385.625977</ele>
        <time>2012-05-17T07:51:29Z</time>
      </trkpt>
      <trkpt lat="43.62418" lon="6.77386">
        <ele>385.145386</ele>
        <time>2012-05-17T07:51:31Z</time>
      </trkpt>
      <trkpt lat="43.62407" lon="6.77436">
        <ele>383.222656</ele>
        <time>2012-05-17T07:51:37Z</time>
      </trkpt>
      <trkpt lat="43.62401" lon="6.77487">
        <ele>381.300049</ele>
        <time>2012-05-17T07:51:42Z</time>
      </trkpt>
      <trkpt lat="43.62398" lon="6.77558">
        <ele>380.819458</ele>
        <time>2012-05-17T07:51:49Z</time>
      </trkpt>
      <trkpt lat="43.62398" lon="6.77587">
        <ele>381.78064</ele>
        <time>2012-05-17T07:51:53Z</time>
      </trkpt>
      <trkpt lat="43.62387" lon="6.7763">
        <ele>382.742065</ele>
        <time>2012-05-17T07:52:00Z</time>
      </trkpt>
      <trkpt lat="43.62373" lon="6.77665">
        <ele>383.222656</ele>
        <time>2012-05-17T07:52:06Z</time>
      </trkpt>
      <trkpt lat="43.62352" lon="6.77699">
        <ele>382.742065</ele>
        <time>2012-05-17T07:52:12Z</time>
      </trkpt>
      <trkpt lat="43.62332" lon="6.77724">
        <ele>382.261353</ele>
        <time>2012-05-17T07:52:17Z</time>
      </trkpt>
      <trkpt lat="43.62319" lon="6.77747">
        <ele>382.742065</ele>
        <time>2012-05-17T07:52:21Z</time>
      </trkpt>
      <trkpt lat="43.62302" lon="6.77795">
        <ele>383.222656</ele>
        <time>2012-05-17T07:52:29Z</time>
      </trkpt>
      <trkpt lat="43.62291" lon="6.77828">
        <ele>382.261353</ele>
        <time>2012-05-17T07:52:34Z</time>
      </trkpt>
      <trkpt lat="43.62287" lon="6.77841">
        <ele>381.78064</ele>
        <time>2012-05-17T07:52:36Z</time>
      </trkpt>
      <trkpt lat="43.6228" lon="6.7786">
        <ele>381.78064</ele>
        <time>2012-05-17T07:52:41Z</time>
      </trkpt>
      <trkpt lat="43.62276" lon="6.77872">
        <ele>382.261353</ele>
        <time>2012-05-17T07:52:46Z</time>
      </trkpt>
      <trkpt lat="43.6228" lon="6.7789">
        <ele>381.300049</ele>
        <time>2012-05-17T07:52:50Z</time>
      </trkpt>
      <trkpt lat="43.62278" lon="6.77914">
        <ele>379.377441</ele>
        <time>2012-05-17T07:52:55Z</time>
      </trkpt>
      <trkpt lat="43.62277" lon="6.77935">
        <ele>377.454834</ele>
        <time>2012-05-17T07:52:59Z</time>
      </trkpt>
      <trkpt lat="43.62284" lon="6.77963">
        <ele>374.570801</ele>
        <time>2012-05-17T07:53:03Z</time>
      </trkpt>
      <trkpt lat="43.6229" lon="6.7798">
        <ele>373.128906</ele>
        <time>2012-05-17T07:53:06Z</time>
      </trkpt>
      <trkpt lat="43.62292" lon="6.78008">
        <ele>371.206299</ele>
        <time>2012-05-17T07:53:10Z</time>
      </trkpt>
      <trkpt lat="43.6229" lon="6.78026">
        <ele>370.725586</ele>
        <time>2012-05-17T07:53:12Z</time>
      </trkpt>
      <trkpt lat="43.62286" lon="6.78041">
        <ele>370.244873</ele>
        <time>2012-05-17T07:53:14Z</time>
      </trkpt>
      <trkpt lat="43.62292" lon="6.78072">
        <ele>367.360962</ele>
        <time>2012-05-17T07:53:18Z</time>
      </trkpt>
      <trkpt lat="43.62314" lon="6.78131">
        <ele>363.035034</ele>
        <time>2012-05-17T07:53:24Z</time>
      </trkpt>
      <trkpt lat="43.6232" lon="6.78181">
        <ele>358.708984</ele>
        <time>2012-05-17T07:53:29Z</time>
      </trkpt>
      <trkpt lat="43.62323" lon="6.78204">
        <ele>356.786377</ele>
        <time>2012-05-17T07:53:32Z</time>
      </trkpt>
      <trkpt lat="43.62326" lon="6.78215">
        <ele>355.344482</ele>
        <time>2012-05-17T07:53:34Z</time>
      </trkpt>
      <trkpt lat="43.62347" lon="6.78231">
        <ele>352.941162</ele>
        <time>2012-05-17T07:53:38Z</time>
      </trkpt>
      <trkpt lat="43.62367" lon="6.78246">
        <ele>351.499146</ele>
        <time>2012-05-17T07:53:41Z</time>
      </trkpt>
      <trkpt lat="43.62389" lon="6.7826">
        <ele>349.576538</ele>
        <time>2012-05-17T07:53:44Z</time>
      </trkpt>
      <trkpt lat="43.62404" lon="6.78271">
        <ele>349.095825</ele>
        <time>2012-05-17T07:53:46Z</time>
      </trkpt>
      <trkpt lat="43.6243" lon="6.78313">
        <ele>347.173218</ele>
        <time>2012-05-17T07:53:51Z</time>
      </trkpt>
      <trkpt lat="43.62435" lon="6.7832">
        <ele>347.173218</ele>
        <time>2012-05-17T07:53:52Z</time>
      </trkpt>
      <trkpt lat="43.62452" lon="6.78337">
        <ele>345.731323</ele>
        <time>2012-05-17T07:53:55Z</time>
      </trkpt>
      <trkpt lat="43.62471" lon="6.78367">
        <ele>343.808594</ele>
        <time>2012-05-17T07:53:59Z</time>
      </trkpt>
      <trkpt lat="43.6249" lon="6.78381">
        <ele>342.84729</ele>
        <time>2012-05-17T07:54:03Z</time>
      </trkpt>
      <trkpt lat="43.62525" lon="6.78383">
        <ele>344.289429</ele>
        <time>2012-05-17T07:54:09Z</time>
      </trkpt>
      <trkpt lat="43.62538" lon="6.78387">
        <ele>344.77002</ele>
        <time>2012-05-17T07:54:11Z</time>
      </trkpt>
      <trkpt lat="43.62552" lon="6.78397">
        <ele>343.327881</ele>
        <time>2012-05-17T07:54:13Z</time>
      </trkpt>
      <trkpt lat="43.62587" lon="6.7841">
        <ele>342.366699</ele>
        <time>2012-05-17T07:54:18Z</time>
      </trkpt>
      <trkpt lat="43.626" lon="6.7841">
        <ele>341.885986</ele>
        <time>2012-05-17T07:54:20Z</time>
      </trkpt>
      <trkpt lat="43.62628" lon="6.78423">
        <ele>339.482666</ele>
        <time>2012-05-17T07:54:25Z</time>
      </trkpt>
      <trkpt lat="43.62654" lon="6.78436">
        <ele>335.637329</ele>
        <time>2012-05-17T07:54:31Z</time>
      </trkpt>
      <trkpt lat="43.62679" lon="6.78453">
        <ele>334.195435</ele>
        <time>2012-05-17T07:54:36Z</time>
      </trkpt>
      <trkpt lat="43.62715" lon="6.78464">
        <ele>331.311523</ele>
        <time>2012-05-17T07:54:43Z</time>
      </trkpt>
      <trkpt lat="43.62744" lon="6.78473">
        <ele>329.869507</ele>
        <time>2012-05-17T07:54:48Z</time>
      </trkpt>
      <trkpt lat="43.62768" lon="6.78479">
        <ele>329.869507</ele>
        <time>2012-05-17T07:54:52Z</time>
      </trkpt>
      <trkpt lat="43.62775" lon="6.78478">
        <ele>328.427612</ele>
        <time>2012-05-17T07:54:56Z</time>
      </trkpt>
      <trkpt lat="43.62777" lon="6.78478">
        <ele>332.75354</ele>
        <time>2012-05-17T07:55:04Z</time>
      </trkpt>
      <trkpt lat="43.62779" lon="6.78475">
        <ele>331.311523</ele>
        <time>2012-05-17T07:55:19Z</time>
      </trkpt>
      <trkpt lat="43.62779" lon="6.78473">
        <ele>331.311523</ele>
        <time>2012-05-17T07:55:26Z</time>
      </trkpt>
      <trkpt lat="43.6278" lon="6.78474">
        <ele>334.195435</ele>
        <time>2012-05-17T07:55:34Z</time>
      </trkpt>
      <trkpt lat="43.62779" lon="6.78475">
        <ele>335.637329</ele>
        <time>2012-05-17T07:55:43Z</time>
      </trkpt>
      <trkpt lat="43.62779" lon="6.78478">
        <ele>341.405273</ele>
        <time>2012-05-17T07:56:08Z</time>
      </trkpt>
      <trkpt lat="43.62783" lon="6.78477">
        <ele>340.444092</ele>
        <time>2012-05-17T07:56:16Z</time>
      </trkpt>
      <trkpt lat="43.62785" lon="6.78476">
        <ele>339.482666</ele>
        <time>2012-05-17T07:56:17Z</time>
      </trkpt>
      <trkpt lat="43.62802" lon="6.78481">
        <ele>337.079468</ele>
        <time>2012-05-17T07:56:23Z</time>
      </trkpt>
      <trkpt lat="43.62813" lon="6.78482">
        <ele>332.75354</ele>
        <time>2012-05-17T07:56:28Z</time>
      </trkpt>
      <trkpt lat="43.62822" lon="6.78479">
        <ele>327.946777</ele>
        <time>2012-05-17T07:56:33Z</time>
      </trkpt>
      <trkpt lat="43.62835" lon="6.78479">
        <ele>324.582275</ele>
        <time>2012-05-17T07:56:37Z</time>
      </trkpt>
      <trkpt lat="43.62842" lon="6.7848">
        <ele>321.698364</ele>
        <time>2012-05-17T07:56:40Z</time>
      </trkpt>
      <trkpt lat="43.62852" lon="6.78479">
        <ele>318.814331</ele>
        <time>2012-05-17T07:56:44Z</time>
      </trkpt>
      <trkpt lat="43.62855" lon="6.78479">
        <ele>318.814331</ele>
        <time>2012-05-17T07:56:46Z</time>
      </trkpt>
      <trkpt lat="43.62869" lon="6.78474">
        <ele>314.969116</ele>
        <time>2012-05-17T07:56:51Z</time>
      </trkpt>
      <trkpt lat="43.62884" lon="6.78468">
        <ele>310.643066</ele>
        <time>2012-05-17T07:56:55Z</time>
      </trkpt>
      <trkpt lat="43.62891" lon="6.78471">
        <ele>309.201172</ele>
        <time>2012-05-17T07:56:57Z</time>
      </trkpt>
      <trkpt lat="43.62908" lon="6.78488">
        <ele>305.355957</ele>
        <time>2012-05-17T07:57:02Z</time>
      </trkpt>
      <trkpt lat="43.62928" lon="6.78496">
        <ele>301.51062</ele>
        <time>2012-05-17T07:57:08Z</time>
      </trkpt>
      <trkpt lat="43.62933" lon="6.78504">
        <ele>301.991333</ele>
        <time>2012-05-17T07:57:12Z</time>
      </trkpt>
      <trkpt lat="43.62934" lon="6.78506">
        <ele>303.433228</ele>
        <time>2012-05-17T07:57:14Z</time>
      </trkpt>
      <trkpt lat="43.62941" lon="6.78509">
        <ele>301.991333</ele>
        <time>2012-05-17T07:57:18Z</time>
      </trkpt>
      <trkpt lat="43.62954" lon="6.78519">
        <ele>298.146118</ele>
        <time>2012-05-17T07:57:24Z</time>
      </trkpt>
      <trkpt lat="43.6297" lon="6.78533">
        <ele>293.820068</ele>
        <time>2012-05-17T07:57:30Z</time>
      </trkpt>
      <trkpt lat="43.62983" lon="6.78541">
        <ele>290.455566</ele>
        <time>2012-05-17T07:57:35Z</time>
      </trkpt>
      <trkpt lat="43.62989" lon="6.78544">
        <ele>289.01355</ele>
        <time>2012-05-17T07:57:37Z</time>
      </trkpt>
      <trkpt lat="43.63008" lon="6.78568">
        <ele>285.648804</ele>
        <time>2012-05-17T07:57:42Z</time>
      </trkpt>
      <trkpt lat="43.63011" lon="6.78572">
        <ele>285.648804</ele>
        <time>2012-05-17T07:57:43Z</time>
      </trkpt>
      <trkpt lat="43.63021" lon="6.78583">
        <ele>285.168213</ele>
        <time>2012-05-17T07:57:46Z</time>
      </trkpt>
      <trkpt lat="43.63033" lon="6.78595">
        <ele>284.206909</ele>
        <time>2012-05-17T07:57:50Z</time>
      </trkpt>
      <trkpt lat="43.63037" lon="6.78598">
        <ele>283.726196</ele>
        <time>2012-05-17T07:57:51Z</time>
      </trkpt>
      <trkpt lat="43.63047" lon="6.78603">
        <ele>282.284302</ele>
        <time>2012-05-17T07:57:53Z</time>
      </trkpt>
      <trkpt lat="43.63071" lon="6.78612">
        <ele>279.880859</ele>
        <time>2012-05-17T07:57:57Z</time>
      </trkpt>
      <trkpt lat="43.63102" lon="6.78622">
        <ele>276.99707</ele>
        <time>2012-05-17T07:58:02Z</time>
      </trkpt>
      <trkpt lat="43.63119" lon="6.78631">
        <ele>275.555054</ele>
        <time>2012-05-17T07:58:05Z</time>
      </trkpt>
      <trkpt lat="43.63136" lon="6.78638">
        <ele>273.632446</ele>
        <time>2012-05-17T07:58:08Z</time>
      </trkpt>
      <trkpt lat="43.63157" lon="6.78656">
        <ele>269.787109</ele>
        <time>2012-05-17T07:58:13Z</time>
      </trkpt>
      <trkpt lat="43.63163" lon="6.78665">
        <ele>268.825806</ele>
        <time>2012-05-17T07:58:15Z</time>
      </trkpt>
      <trkpt lat="43.63171" lon="6.78672">
        <ele>266.903198</ele>
        <time>2012-05-17T07:58:17Z</time>
      </trkpt>
      <trkpt lat="43.63187" lon="6.78688">
        <ele>264.980591</ele>
        <time>2012-05-17T07:58:22Z</time>
      </trkpt>
      <trkpt lat="43.63203" lon="6.7871">
        <ele>261.615967</ele>
        <time>2012-05-17T07:58:27Z</time>
      </trkpt>
      <trkpt lat="43.63216" lon="6.78726">
        <ele>259.693359</ele>
        <time>2012-05-17T07:58:31Z</time>
      </trkpt>
      <trkpt lat="43.63225" lon="6.78735">
        <ele>258.251343</ele>
        <time>2012-05-17T07:58:33Z</time>
      </trkpt>
      <trkpt lat="43.63236" lon="6.7875">
        <ele>256.809326</ele>
        <time>2012-05-17T07:58:36Z</time>
      </trkpt>
      <trkpt lat="43.63248" lon="6.78767">
        <ele>254.406006</ele>
        <time>2012-05-17T07:58:40Z</time>
      </trkpt>
      <trkpt lat="43.63256" lon="6.78788">
        <ele>253.444702</ele>
        <time>2012-05-17T07:58:44Z</time>
      </trkpt>
      <trkpt lat="43.63263" lon="6.78801">
        <ele>252.002808</ele>
        <time>2012-05-17T07:58:47Z</time>
      </trkpt>
      <trkpt lat="43.63275" lon="6.78825">
        <ele>249.118774</ele>
        <time>2012-05-17T07:58:52Z</time>
      </trkpt>
      <trkpt lat="43.63279" lon="6.78833">
        <ele>248.157593</ele>
        <time>2012-05-17T07:58:55Z</time>
      </trkpt>
      <trkpt lat="43.6328" lon="6.78835">
        <ele>249.118774</ele>
        <time>2012-05-17T07:59:02Z</time>
      </trkpt>
      <trkpt lat="43.63284" lon="6.78842">
        <ele>252.483398</ele>
        <time>2012-05-17T07:59:25Z</time>
      </trkpt>
      <trkpt lat="43.63285" lon="6.78844">
        <ele>252.002808</ele>
        <time>2012-05-17T07:59:26Z</time>
      </trkpt>
      <trkpt lat="43.63296" lon="6.78867">
        <ele>250.0802</ele>
        <time>2012-05-17T07:59:32Z</time>
      </trkpt>
      <trkpt lat="43.63308" lon="6.78885">
        <ele>247.196045</ele>
        <time>2012-05-17T07:59:36Z</time>
      </trkpt>
      <trkpt lat="43.63323" lon="6.78901">
        <ele>244.312256</ele>
        <time>2012-05-17T07:59:40Z</time>
      </trkpt>
      <trkpt lat="43.6333" lon="6.78911">
        <ele>243.35083</ele>
        <time>2012-05-17T07:59:42Z</time>
      </trkpt>
      <trkpt lat="43.63349" lon="6.78925">
        <ele>239.986206</ele>
        <time>2012-05-17T07:59:46Z</time>
      </trkpt>
      <trkpt lat="43.63358" lon="6.78932">
        <ele>238.063599</ele>
        <time>2012-05-17T07:59:48Z</time>
      </trkpt>
      <trkpt lat="43.63372" lon="6.78941">
        <ele>236.140991</ele>
        <time>2012-05-17T07:59:51Z</time>
      </trkpt>
      <trkpt lat="43.63399" lon="6.78943">
        <ele>231.814941</ele>
        <time>2012-05-17T07:59:56Z</time>
      </trkpt>
      <trkpt lat="43.63409" lon="6.78943">
        <ele>230.373047</ele>
        <time>2012-05-17T07:59:58Z</time>
      </trkpt>
      <trkpt lat="43.6342" lon="6.78946">
        <ele>229.411743</ele>
        <time>2012-05-17T08:00:00Z</time>
      </trkpt>
      <trkpt lat="43.63437" lon="6.78958">
        <ele>226.047119</ele>
        <time>2012-05-17T08:00:04Z</time>
      </trkpt>
      <trkpt lat="43.63439" lon="6.78959">
        <ele>225.566528</ele>
        <time>2012-05-17T08:00:05Z</time>
      </trkpt>
      <trkpt lat="43.63444" lon="6.78964">
        <ele>227.489136</ele>
        <time>2012-05-17T08:00:15Z</time>
      </trkpt>
      <trkpt lat="43.63443" lon="6.78969">
        <ele>225.085938</ele>
        <time>2012-05-17T08:00:20Z</time>
      </trkpt>
      <trkpt lat="43.63441" lon="6.78969">
        <ele>225.085938</ele>
        <time>2012-05-17T08:00:21Z</time>
      </trkpt>
      <trkpt lat="43.63433" lon="6.78966">
        <ele>223.163208</ele>
        <time>2012-05-17T08:00:26Z</time>
      </trkpt>
      <trkpt lat="43.63414" lon="6.7897">
        <ele>222.201782</ele>
        <time>2012-05-17T08:00:31Z</time>
      </trkpt>
      <trkpt lat="43.63411" lon="6.78971">
        <ele>221.721191</ele>
        <time>2012-05-17T08:00:32Z</time>
      </trkpt>
      <trkpt lat="43.63414" lon="6.78984">
        <ele>217.875977</ele>
        <time>2012-05-17T08:00:37Z</time>
      </trkpt>
      <trkpt lat="43.63426" lon="6.79002">
        <ele>213.069336</ele>
        <time>2012-05-17T08:00:41Z</time>
      </trkpt>
      <trkpt lat="43.63432" lon="6.79009">
        <ele>210.666016</ele>
        <time>2012-05-17T08:00:43Z</time>
      </trkpt>
      <trkpt lat="43.63456" lon="6.79011">
        <ele>202.014282</ele>
        <time>2012-05-17T08:00:48Z</time>
      </trkpt>
      <trkpt lat="43.63463" lon="6.79011">
        <ele>200.572266</ele>
        <time>2012-05-17T08:00:49Z</time>
      </trkpt>
      <trkpt lat="43.63492" lon="6.79019">
        <ele>194.804321</ele>
        <time>2012-05-17T08:00:54Z</time>
      </trkpt>
      <trkpt lat="43.63491" lon="6.79026">
        <ele>195.765625</ele>
        <time>2012-05-17T08:00:57Z</time>
      </trkpt>
      <trkpt lat="43.63473" lon="6.79035">
        <ele>193.843018</ele>
        <time>2012-05-17T08:01:01Z</time>
      </trkpt>
      <trkpt lat="43.63454" lon="6.79052">
        <ele>192.401123</ele>
        <time>2012-05-17T08:01:05Z</time>
      </trkpt>
      <trkpt lat="43.63439" lon="6.79065">
        <ele>191.439575</ele>
        <time>2012-05-17T08:01:08Z</time>
      </trkpt>
      <trkpt lat="43.63423" lon="6.79069">
        <ele>190.478394</ele>
        <time>2012-05-17T08:01:12Z</time>
      </trkpt>
      <trkpt lat="43.63412" lon="6.79065">
        <ele>189.516968</ele>
        <time>2012-05-17T08:01:14Z</time>
      </trkpt>
      <trkpt lat="43.63395" lon="6.79061">
        <ele>187.11377</ele>
        <time>2012-05-17T08:01:17Z</time>
      </trkpt>
      <trkpt lat="43.63399" lon="6.79082">
        <ele>181.345825</ele>
        <time>2012-05-17T08:01:21Z</time>
      </trkpt>
      <trkpt lat="43.63415" lon="6.79107">
        <ele>177.02002</ele>
        <time>2012-05-17T08:01:26Z</time>
      </trkpt>
      <trkpt lat="43.6343" lon="6.79116">
        <ele>174.135864</ele>
        <time>2012-05-17T08:01:29Z</time>
      </trkpt>
      <trkpt lat="43.63457" lon="6.79126">
        <ele>169.810059</ele>
        <time>2012-05-17T08:01:34Z</time>
      </trkpt>
      <trkpt lat="43.6348" lon="6.7914">
        <ele>167.887329</ele>
        <time>2012-05-17T08:01:38Z</time>
      </trkpt>
      <trkpt lat="43.63508" lon="6.79155">
        <ele>163.561523</ele>
        <time>2012-05-17T08:01:44Z</time>
      </trkpt>
      <trkpt lat="43.63509" lon="6.79169">
        <ele>163.080811</ele>
        <time>2012-05-17T08:01:46Z</time>
      </trkpt>
      <trkpt lat="43.63504" lon="6.79204">
        <ele>163.080811</ele>
        <time>2012-05-17T08:01:51Z</time>
      </trkpt>
      <trkpt lat="43.63502" lon="6.7922">
        <ele>162.119507</ele>
        <time>2012-05-17T08:01:53Z</time>
      </trkpt>
      <trkpt lat="43.63503" lon="6.79236">
        <ele>160.196899</ele>
        <time>2012-05-17T08:01:55Z</time>
      </trkpt>
      <trkpt lat="43.63503" lon="6.79256">
        <ele>159.235474</ele>
        <time>2012-05-17T08:01:59Z</time>
      </trkpt>
      <trkpt lat="43.63503" lon="6.79256">
        <ele>161.158203</ele>
        <time>2012-05-17T08:02:06Z</time>
      </trkpt>
      <trkpt lat="43.63501" lon="6.79256">
        <ele>162.119507</ele>
        <time>2012-05-17T08:02:12Z</time>
      </trkpt>
      <trkpt lat="43.63502" lon="6.79255">
        <ele>163.080811</ele>
        <time>2012-05-17T08:02:16Z</time>
      </trkpt>
      <trkpt lat="43.63501" lon="6.79256">
        <ele>164.522705</ele>
        <time>2012-05-17T08:02:20Z</time>
      </trkpt>
      <trkpt lat="43.63499" lon="6.79257">
        <ele>165.484131</ele>
        <time>2012-05-17T08:02:27Z</time>
      </trkpt>
      <trkpt lat="43.63498" lon="6.79257">
        <ele>164.042114</ele>
        <time>2012-05-17T08:02:39Z</time>
      </trkpt>
      <trkpt lat="43.63499" lon="6.79257">
        <ele>163.080811</ele>
        <time>2012-05-17T08:02:46Z</time>
      </trkpt>
      <trkpt lat="43.63499" lon="6.79259">
        <ele>160.196899</ele>
        <time>2012-05-17T08:03:15Z</time>
      </trkpt>
      <trkpt lat="43.63499" lon="6.79259">
        <ele>163.080811</ele>
        <time>2012-05-17T08:03:27Z</time>
      </trkpt>
      <trkpt lat="43.63499" lon="6.79257">
        <ele>166.926025</ele>
        <time>2012-05-17T08:03:36Z</time>
      </trkpt>
      <trkpt lat="43.63499" lon="6.79256">
        <ele>166.926025</ele>
        <time>2012-05-17T08:03:43Z</time>
      </trkpt>
      <trkpt lat="43.63498" lon="6.79256">
        <ele>164.042114</ele>
        <time>2012-05-17T08:04:06Z</time>
      </trkpt>
      <trkpt lat="43.63498" lon="6.79257">
        <ele>163.080811</ele>
        <time>2012-05-17T08:04:29Z</time>
      </trkpt>
      <trkpt lat="43.63497" lon="6.79255">
        <ele>166.445312</ele>
        <time>2012-05-17T08:04:40Z</time>
      </trkpt>
      <trkpt lat="43.63498" lon="6.79255">
        <ele>167.406738</ele>
        <time>2012-05-17T08:04:50Z</time>
      </trkpt>
      <trkpt lat="43.63498" lon="6.79255">
        <ele>167.887329</ele>
        <time>2012-05-17T08:05:01Z</time>
      </trkpt>
      <trkpt lat="43.63499" lon="6.79257">
        <ele>166.445312</ele>
        <time>2012-05-17T08:05:30Z</time>
      </trkpt>
      <trkpt lat="43.635" lon="6.79257">
        <ele>165.003418</ele>
        <time>2012-05-17T08:05:42Z</time>
      </trkpt>
      <trkpt lat="43.63498" lon="6.79256">
        <ele>163.561523</ele>
        <time>2012-05-17T08:06:09Z</time>
      </trkpt>
      <trkpt lat="43.63498" lon="6.79256">
        <ele>165.003418</ele>
        <time>2012-05-17T08:06:15Z</time>
      </trkpt>
      <trkpt lat="43.63498" lon="6.79256">
        <ele>167.887329</ele>
        <time>2012-05-17T08:06:25Z</time>
      </trkpt>
      <trkpt lat="43.635" lon="6.79257">
        <ele>162.600098</ele>
        <time>2012-05-17T08:06:45Z</time>
      </trkpt>
      <trkpt lat="43.63502" lon="6.79257">
        <ele>162.119507</ele>
        <time>2012-05-17T08:06:59Z</time>
      </trkpt>
      <trkpt lat="43.63502" lon="6.79254">
        <ele>166.926025</ele>
        <time>2012-05-17T08:07:03Z</time>
      </trkpt>
      <trkpt lat="43.63501" lon="6.79256">
        <ele>167.887329</ele>
        <time>2012-05-17T08:07:16Z</time>
      </trkpt>
      <trkpt lat="43.635" lon="6.79258">
        <ele>166.445312</ele>
        <time>2012-05-17T08:07:35Z</time>
      </trkpt>
      <trkpt lat="43.635" lon="6.79259">
        <ele>165.003418</ele>
        <time>2012-05-17T08:07:46Z</time>
      </trkpt>
      <trkpt lat="43.63499" lon="6.79259">
        <ele>165.484131</ele>
        <time>2012-05-17T08:08:06Z</time>
      </trkpt>
      <trkpt lat="43.63498" lon="6.79261">
        <ele>164.522705</ele>
        <time>2012-05-17T08:08:27Z</time>
      </trkpt>
      <trkpt lat="43.63499" lon="6.7926">
        <ele>164.522705</ele>
        <time>2012-05-17T08:08:37Z</time>
      </trkpt>
      <trkpt lat="43.63501" lon="6.79262">
        <ele>160.196899</ele>
        <time>2012-05-17T08:09:49Z</time>
      </trkpt>
      <trkpt lat="43.63502" lon="6.7926">
        <ele>168.368042</ele>
        <time>2012-05-17T08:10:05Z</time>
      </trkpt>
      <trkpt lat="43.63502" lon="6.79259">
        <ele>167.887329</ele>
        <time>2012-05-17T08:10:27Z</time>
      </trkpt>
      <trkpt lat="43.63503" lon="6.79259">
        <ele>167.887329</ele>
        <time>2012-05-17T08:10:31Z</time>
      </trkpt>
      <trkpt lat="43.63503" lon="6.79259">
        <ele>170.290649</ele>
        <time>2012-05-17T08:10:45Z</time>
      </trkpt>
      <trkpt lat="43.635" lon="6.79262">
        <ele>181.826416</ele>
        <time>2012-05-17T08:11:44Z</time>
      </trkpt>
      <trkpt lat="43.63502" lon="6.79261">
        <ele>174.135864</ele>
        <time>2012-05-17T08:12:33Z</time>
      </trkpt>
      <trkpt lat="43.63502" lon="6.79264">
        <ele>173.174683</ele>
        <time>2012-05-17T08:13:06Z</time>
      </trkpt>
      <trkpt lat="43.63507" lon="6.79266">
        <ele>168.368042</ele>
        <time>2012-05-17T08:13:15Z</time>
      </trkpt>
      <trkpt lat="43.63513" lon="6.79269">
        <ele>166.926025</ele>
        <time>2012-05-17T08:13:19Z</time>
      </trkpt>
      <trkpt lat="43.63527" lon="6.79282">
        <ele>163.561523</ele>
        <time>2012-05-17T08:13:25Z</time>
      </trkpt>
      <trkpt lat="43.63548" lon="6.793">
        <ele>162.119507</ele>
        <time>2012-05-17T08:13:33Z</time>
      </trkpt>
      <trkpt lat="43.63561" lon="6.79317">
        <ele>159.716187</ele>
        <time>2012-05-17T08:13:37Z</time>
      </trkpt>
      <trkpt lat="43.63576" lon="6.79335">
        <ele>156.351562</ele>
        <time>2012-05-17T08:13:41Z</time>
      </trkpt>
      <trkpt lat="43.63598" lon="6.79355">
        <ele>152.986938</ele>
        <time>2012-05-17T08:13:46Z</time>
      </trkpt>
      <trkpt lat="43.63631" lon="6.79373">
        <ele>153.467651</ele>
        <time>2012-05-17T08:13:52Z</time>
      </trkpt>
      <trkpt lat="43.63637" lon="6.79376">
        <ele>154.428955</ele>
        <time>2012-05-17T08:13:53Z</time>
      </trkpt>
      <trkpt lat="43.6366" lon="6.79379">
        <ele>155.870972</ele>
        <time>2012-05-17T08:13:58Z</time>
      </trkpt>
      <trkpt lat="43.63667" lon="6.7938">
        <ele>158.27417</ele>
        <time>2012-05-17T08:14:00Z</time>
      </trkpt>
      <trkpt lat="43.63694" lon="6.79378">
        <ele>166.926025</ele>
        <time>2012-05-17T08:14:06Z</time>
      </trkpt>
      <trkpt lat="43.63705" lon="6.79379">
        <ele>170.771362</ele>
        <time>2012-05-17T08:14:08Z</time>
      </trkpt>
      <trkpt lat="43.63735" lon="6.79373">
        <ele>176.058594</ele>
        <time>2012-05-17T08:14:14Z</time>
      </trkpt>
      <trkpt lat="43.63737" lon="6.79372">
        <ele>176.539307</ele>
        <time>2012-05-17T08:14:15Z</time>
      </trkpt>
      <trkpt lat="43.63745" lon="6.79371">
        <ele>177.981201</ele>
        <time>2012-05-17T08:14:19Z</time>
      </trkpt>
      <trkpt lat="43.63756" lon="6.79367">
        <ele>179.903809</ele>
        <time>2012-05-17T08:14:24Z</time>
      </trkpt>
      <trkpt lat="43.63777" lon="6.79362">
        <ele>179.423218</ele>
        <time>2012-05-17T08:14:31Z</time>
      </trkpt>
      <trkpt lat="43.63788" lon="6.79356">
        <ele>180.865234</ele>
        <time>2012-05-17T08:14:36Z</time>
      </trkpt>
      <trkpt lat="43.638" lon="6.79353">
        <ele>179.903809</ele>
        <time>2012-05-17T08:14:40Z</time>
      </trkpt>
      <trkpt lat="43.63817" lon="6.7935">
        <ele>180.384521</ele>
        <time>2012-05-17T08:14:45Z</time>
      </trkpt>
      <trkpt lat="43.63837" lon="6.79347">
        <ele>179.903809</ele>
        <time>2012-05-17T08:14:49Z</time>
      </trkpt>
      <trkpt lat="43.63841" lon="6.79347">
        <ele>179.423218</ele>
        <time>2012-05-17T08:14:50Z</time>
      </trkpt>
      <trkpt lat="43.63858" lon="6.79347">
        <ele>178.942627</ele>
        <time>2012-05-17T08:14:54Z</time>
      </trkpt>
      <trkpt lat="43.63871" lon="6.79346">
        <ele>180.384521</ele>
        <time>2012-05-17T08:14:58Z</time>
      </trkpt>
      <trkpt lat="43.63894" lon="6.79339">
        <ele>180.865234</ele>
        <time>2012-05-17T08:15:04Z</time>
      </trkpt>
      <trkpt lat="43.63913" lon="6.79335">
        <ele>177.50061</ele>
        <time>2012-05-17T08:15:08Z</time>
      </trkpt>
      <trkpt lat="43.63929" lon="6.7933">
        <ele>172.69397</ele>
        <time>2012-05-17T08:15:11Z</time>
      </trkpt>
      <trkpt lat="43.63949" lon="6.7932">
        <ele>170.771362</ele>
        <time>2012-05-17T08:15:16Z</time>
      </trkpt>
      <trkpt lat="43.63958" lon="6.79315">
        <ele>171.732666</ele>
        <time>2012-05-17T08:15:19Z</time>
      </trkpt>
      <trkpt lat="43.6397" lon="6.79311">
        <ele>174.135864</ele>
        <time>2012-05-17T08:15:23Z</time>
      </trkpt>
      <trkpt lat="43.63982" lon="6.79304">
        <ele>171.732666</ele>
        <time>2012-05-17T08:15:29Z</time>
      </trkpt>
      <trkpt lat="43.63992" lon="6.79296">
        <ele>187.11377</ele>
        <time>2012-05-17T08:16:10Z</time>
      </trkpt>
      <trkpt lat="43.64003" lon="6.79287">
        <ele>179.903809</ele>
        <time>2012-05-17T08:16:14Z</time>
      </trkpt>
      <trkpt lat="43.64022" lon="6.79269">
        <ele>178.461914</ele>
        <time>2012-05-17T08:16:20Z</time>
      </trkpt>
      <trkpt lat="43.64033" lon="6.79253">
        <ele>175.577881</ele>
        <time>2012-05-17T08:16:26Z</time>
      </trkpt>
      <trkpt lat="43.6404" lon="6.79239">
        <ele>175.09729</ele>
        <time>2012-05-17T08:16:31Z</time>
      </trkpt>
      <trkpt lat="43.64053" lon="6.79223">
        <ele>172.213257</ele>
        <time>2012-05-17T08:16:37Z</time>
      </trkpt>
      <trkpt lat="43.64064" lon="6.7921">
        <ele>168.368042</ele>
        <time>2012-05-17T08:16:43Z</time>
      </trkpt>
      <trkpt lat="43.64074" lon="6.79198">
        <ele>168.848755</ele>
        <time>2012-05-17T08:16:48Z</time>
      </trkpt>
      <trkpt lat="43.64086" lon="6.79188">
        <ele>169.810059</ele>
        <time>2012-05-17T08:16:53Z</time>
      </trkpt>
      <trkpt lat="43.64098" lon="6.79186">
        <ele>173.174683</ele>
        <time>2012-05-17T08:16:57Z</time>
      </trkpt>
      <trkpt lat="43.64111" lon="6.7918">
        <ele>173.655273</ele>
        <time>2012-05-17T08:17:01Z</time>
      </trkpt>
      <trkpt lat="43.64123" lon="6.79158">
        <ele>172.69397</ele>
        <time>2012-05-17T08:17:07Z</time>
      </trkpt>
      <trkpt lat="43.64136" lon="6.79138">
        <ele>170.290649</ele>
        <time>2012-05-17T08:17:15Z</time>
      </trkpt>
      <trkpt lat="43.64147" lon="6.79126">
        <ele>173.174683</ele>
        <time>2012-05-17T08:17:20Z</time>
      </trkpt>
      <trkpt lat="43.64157" lon="6.79118">
        <ele>177.02002</ele>
        <time>2012-05-17T08:17:24Z</time>
      </trkpt>
      <trkpt lat="43.64173" lon="6.79106">
        <ele>182.307129</ele>
        <time>2012-05-17T08:17:32Z</time>
      </trkpt>
      <trkpt lat="43.64177" lon="6.79102">
        <ele>183.749023</ele>
        <time>2012-05-17T08:17:35Z</time>
      </trkpt>
      <trkpt lat="43.64183" lon="6.79098">
        <ele>184.229858</ele>
        <time>2012-05-17T08:17:40Z</time>
      </trkpt>
      <trkpt lat="43.64188" lon="6.79094">
        <ele>183.749023</ele>
        <time>2012-05-17T08:17:46Z</time>
      </trkpt>
      <trkpt lat="43.64191" lon="6.79089">
        <ele>184.229858</ele>
        <time>2012-05-17T08:17:50Z</time>
      </trkpt>
      <trkpt lat="43.64204" lon="6.79073">
        <ele>184.710571</ele>
        <time>2012-05-17T08:17:57Z</time>
      </trkpt>
      <trkpt lat="43.64211" lon="6.79068">
        <ele>186.152466</ele>
        <time>2012-05-17T08:18:02Z</time>
      </trkpt>
      <trkpt lat="43.64214" lon="6.79066">
        <ele>186.633179</ele>
        <time>2012-05-17T08:18:04Z</time>
      </trkpt>
      <trkpt lat="43.64224" lon="6.79063">
        <ele>188.555786</ele>
        <time>2012-05-17T08:18:19Z</time>
      </trkpt>
      <trkpt lat="43.64234" lon="6.79062">
        <ele>188.555786</ele>
        <time>2012-05-17T08:18:24Z</time>
      </trkpt>
      <trkpt lat="43.64245" lon="6.79057">
        <ele>187.59436</ele>
        <time>2012-05-17T08:18:29Z</time>
      </trkpt>
      <trkpt lat="43.64258" lon="6.7905">
        <ele>186.633179</ele>
        <time>2012-05-17T08:18:35Z</time>
      </trkpt>
      <trkpt lat="43.64268" lon="6.79038">
        <ele>186.152466</ele>
        <time>2012-05-17T08:18:39Z</time>
      </trkpt>
      <trkpt lat="43.64279" lon="6.79022">
        <ele>184.710571</ele>
        <time>2012-05-17T08:18:45Z</time>
      </trkpt>
      <trkpt lat="43.64283" lon="6.79019">
        <ele>183.268433</ele>
        <time>2012-05-17T08:18:49Z</time>
      </trkpt>
      <trkpt lat="43.64284" lon="6.79019">
        <ele>185.671753</ele>
        <time>2012-05-17T08:18:58Z</time>
      </trkpt>
      <trkpt lat="43.64286" lon="6.79017">
        <ele>186.152466</ele>
        <time>2012-05-17T08:19:05Z</time>
      </trkpt>
      <trkpt lat="43.64286" lon="6.79016">
        <ele>186.152466</ele>
        <time>2012-05-17T08:19:07Z</time>
      </trkpt>
      <trkpt lat="43.64288" lon="6.79006">
        <ele>186.152466</ele>
        <time>2012-05-17T08:19:11Z</time>
      </trkpt>
      <trkpt lat="43.64284" lon="6.78995">
        <ele>183.749023</ele>
        <time>2012-05-17T08:19:16Z</time>
      </trkpt>
      <trkpt lat="43.64286" lon="6.78994">
        <ele>183.268433</ele>
        <time>2012-05-17T08:19:18Z</time>
      </trkpt>
      <trkpt lat="43.64293" lon="6.78987">
        <ele>177.50061</ele>
        <time>2012-05-17T08:19:24Z</time>
      </trkpt>
      <trkpt lat="43.64303" lon="6.78994">
        <ele>173.174683</ele>
        <time>2012-05-17T08:19:28Z</time>
      </trkpt>
      <trkpt lat="43.64312" lon="6.78999">
        <ele>168.848755</ele>
        <time>2012-05-17T08:19:34Z</time>
      </trkpt>
      <trkpt lat="43.64316" lon="6.78998">
        <ele>164.522705</ele>
        <time>2012-05-17T08:19:43Z</time>
      </trkpt>
      <trkpt lat="43.64322" lon="6.79008">
        <ele>163.561523</ele>
        <time>2012-05-17T08:19:48Z</time>
      </trkpt>
      <trkpt lat="43.64324" lon="6.79012">
        <ele>164.522705</ele>
        <time>2012-05-17T08:19:51Z</time>
      </trkpt>
      <trkpt lat="43.64328" lon="6.79007">
        <ele>165.964722</ele>
        <time>2012-05-17T08:19:58Z</time>
      </trkpt>
      <trkpt lat="43.64337" lon="6.79">
        <ele>163.080811</ele>
        <time>2012-05-17T08:20:02Z</time>
      </trkpt>
      <trkpt lat="43.64339" lon="6.78999">
        <ele>163.561523</ele>
        <time>2012-05-17T08:20:04Z</time>
      </trkpt>
      <trkpt lat="43.64346" lon="6.78996">
        <ele>156.351562</ele>
        <time>2012-05-17T08:20:14Z</time>
      </trkpt>
      <trkpt lat="43.64345" lon="6.78997">
        <ele>154.428955</ele>
        <time>2012-05-17T08:20:33Z</time>
      </trkpt>
      <trkpt lat="43.64345" lon="6.78999">
        <ele>154.909546</ele>
        <time>2012-05-17T08:20:42Z</time>
      </trkpt>
      <trkpt lat="43.64345" lon="6.78996">
        <ele>162.119507</ele>
        <time>2012-05-17T08:20:57Z</time>
      </trkpt>
      <trkpt lat="43.64343" lon="6.78995">
        <ele>164.522705</ele>
        <time>2012-05-17T08:21:02Z</time>
      </trkpt>
      <trkpt lat="43.64342" lon="6.78989">
        <ele>168.848755</ele>
        <time>2012-05-17T08:21:07Z</time>
      </trkpt>
      <trkpt lat="43.64341" lon="6.78985">
        <ele>171.732666</ele>
        <time>2012-05-17T08:21:12Z</time>
      </trkpt>
      <trkpt lat="43.64341" lon="6.78984">
        <ele>175.577881</ele>
        <time>2012-05-17T08:21:24Z</time>
      </trkpt>
      <trkpt lat="43.6434" lon="6.78989">
        <ele>173.655273</ele>
        <time>2012-05-17T08:22:06Z</time>
      </trkpt>
      <trkpt lat="43.64341" lon="6.78992">
        <ele>165.964722</ele>
        <time>2012-05-17T08:22:42Z</time>
      </trkpt>
      <trkpt lat="43.64342" lon="6.78998">
        <ele>167.406738</ele>
        <time>2012-05-17T08:22:48Z</time>
      </trkpt>
      <trkpt lat="43.64341" lon="6.78999">
        <ele>167.887329</ele>
        <time>2012-05-17T08:22:55Z</time>
      </trkpt>
      <trkpt lat="43.64339" lon="6.79003">
        <ele>168.848755</ele>
        <time>2012-05-17T08:23:02Z</time>
      </trkpt>
      <trkpt lat="43.64339" lon="6.79003">
        <ele>170.290649</ele>
        <time>2012-05-17T08:23:10Z</time>
      </trkpt>
      <trkpt lat="43.64337" lon="6.79009">
        <ele>170.290649</ele>
        <time>2012-05-17T08:23:18Z</time>
      </trkpt>
      <trkpt lat="43.64332" lon="6.79011">
        <ele>171.252075</ele>
        <time>2012-05-17T08:23:23Z</time>
      </trkpt>
      <trkpt lat="43.6433" lon="6.7901">
        <ele>170.771362</ele>
        <time>2012-05-17T08:23:28Z</time>
      </trkpt>
      <trkpt lat="43.64328" lon="6.79013">
        <ele>172.69397</ele>
        <time>2012-05-17T08:23:33Z</time>
      </trkpt>
      <trkpt lat="43.64331" lon="6.79019">
        <ele>170.290649</ele>
        <time>2012-05-17T08:23:37Z</time>
      </trkpt>
      <trkpt lat="43.64332" lon="6.79021">
        <ele>170.771362</ele>
        <time>2012-05-17T08:23:39Z</time>
      </trkpt>
      <trkpt lat="43.64332" lon="6.79038">
        <ele>171.732666</ele>
        <time>2012-05-17T08:23:45Z</time>
      </trkpt>
      <trkpt lat="43.64341" lon="6.79059">
        <ele>167.406738</ele>
        <time>2012-05-17T08:23:51Z</time>
      </trkpt>
      <trkpt lat="43.64341" lon="6.79068">
        <ele>168.848755</ele>
        <time>2012-05-17T08:23:56Z</time>
      </trkpt>
      <trkpt lat="43.64341" lon="6.7907">
        <ele>170.771362</ele>
        <time>2012-05-17T08:24:02Z</time>
      </trkpt>
      <trkpt lat="43.64343" lon="6.79069">
        <ele>171.732666</ele>
        <time>2012-05-17T08:24:07Z</time>
      </trkpt>
      <trkpt lat="43.64345" lon="6.7907">
        <ele>171.732666</ele>
        <time>2012-05-17T08:24:12Z</time>
      </trkpt>
      <trkpt lat="43.64346" lon="6.79075">
        <ele>173.174683</ele>
        <time>2012-05-17T08:24:20Z</time>
      </trkpt>
      <trkpt lat="43.64347" lon="6.79076">
        <ele>173.174683</ele>
        <time>2012-05-17T08:24:24Z</time>
      </trkpt>
      <trkpt lat="43.64349" lon="6.7907">
        <ele>171.732666</ele>
        <time>2012-05-17T08:24:39Z</time>
      </trkpt>
      <trkpt lat="43.64344" lon="6.79078">
        <ele>178.942627</ele>
        <time>2012-05-17T08:24:57Z</time>
      </trkpt>
      <trkpt lat="43.64344" lon="6.79077">
        <ele>180.384521</ele>
        <time>2012-05-17T08:25:04Z</time>
      </trkpt>
      <trkpt lat="43.64351" lon="6.79074">
        <ele>173.655273</ele>
        <time>2012-05-17T08:25:14Z</time>
      </trkpt>
      <trkpt lat="43.64355" lon="6.79075">
        <ele>170.771362</ele>
        <time>2012-05-17T08:25:19Z</time>
      </trkpt>
      <trkpt lat="43.64358" lon="6.79077">
        <ele>169.810059</ele>
        <time>2012-05-17T08:25:26Z</time>
      </trkpt>
      <trkpt lat="43.6436" lon="6.79077">
        <ele>171.732666</ele>
        <time>2012-05-17T08:25:47Z</time>
      </trkpt>
      <trkpt lat="43.6436" lon="6.79076">
        <ele>174.135864</ele>
        <time>2012-05-17T08:25:57Z</time>
      </trkpt>
      <trkpt lat="43.6436" lon="6.79078">
        <ele>174.616577</ele>
        <time>2012-05-17T08:26:05Z</time>
      </trkpt>
      <trkpt lat="43.6435" lon="6.79075">
        <ele>188.555786</ele>
        <time>2012-05-17T08:26:21Z</time>
      </trkpt>
      <trkpt lat="43.64353" lon="6.7908">
        <ele>179.903809</ele>
        <time>2012-05-17T08:26:28Z</time>
      </trkpt>
      <trkpt lat="43.64351" lon="6.79081">
        <ele>180.384521</ele>
        <time>2012-05-17T08:26:36Z</time>
      </trkpt>
      <trkpt lat="43.64341" lon="6.79089">
        <ele>188.075073</ele>
        <time>2012-05-17T08:26:46Z</time>
      </trkpt>
      <trkpt lat="43.64355" lon="6.79077">
        <ele>177.50061</ele>
        <time>2012-05-17T08:27:07Z</time>
      </trkpt>
      <trkpt lat="43.64357" lon="6.79078">
        <ele>174.616577</ele>
        <time>2012-05-17T08:27:20Z</time>
      </trkpt>
      <trkpt lat="43.64352" lon="6.79075">
        <ele>176.058594</ele>
        <time>2012-05-17T08:27:28Z</time>
      </trkpt>
      <trkpt lat="43.64349" lon="6.79072">
        <ele>177.981201</ele>
        <time>2012-05-17T08:27:35Z</time>
      </trkpt>
      <trkpt lat="43.64349" lon="6.79075">
        <ele>179.903809</ele>
        <time>2012-05-17T08:27:44Z</time>
      </trkpt>
      <trkpt lat="43.64349" lon="6.79082">
        <ele>188.555786</ele>
        <time>2012-05-17T08:27:57Z</time>
      </trkpt>
      <trkpt lat="43.64349" lon="6.79083">
        <ele>189.997681</ele>
        <time>2012-05-17T08:28:05Z</time>
      </trkpt>
      <trkpt lat="43.64351" lon="6.79076">
        <ele>183.749023</ele>
        <time>2012-05-17T08:28:16Z</time>
      </trkpt>
      <trkpt lat="43.64348" lon="6.79085">
        <ele>189.997681</ele>
        <time>2012-05-17T08:28:30Z</time>
      </trkpt>
      <trkpt lat="43.64351" lon="6.79076">
        <ele>188.555786</ele>
        <time>2012-05-17T08:28:44Z</time>
      </trkpt>
      <trkpt lat="43.6435" lon="6.79078">
        <ele>184.710571</ele>
        <time>2012-05-17T08:28:53Z</time>
      </trkpt>
      <trkpt lat="43.64351" lon="6.79076">
        <ele>178.942627</ele>
        <time>2012-05-17T08:29:00Z</time>
      </trkpt>
      <trkpt lat="43.64354" lon="6.7907">
        <ele>184.710571</ele>
        <time>2012-05-17T08:29:11Z</time>
      </trkpt>
      <trkpt lat="43.64352" lon="6.79071">
        <ele>182.307129</ele>
        <time>2012-05-17T08:29:21Z</time>
      </trkpt>
      <trkpt lat="43.64349" lon="6.79069">
        <ele>179.903809</ele>
        <time>2012-05-17T08:29:28Z</time>
      </trkpt>
      <trkpt lat="43.64346" lon="6.79068">
        <ele>177.981201</ele>
        <time>2012-05-17T08:29:40Z</time>
      </trkpt>
      <trkpt lat="43.64346" lon="6.79068">
        <ele>177.981201</ele>
        <time>2012-05-17T08:29:45Z</time>
      </trkpt>
      <trkpt lat="43.64344" lon="6.79071">
        <ele>174.135864</ele>
        <time>2012-05-17T08:30:14Z</time>
      </trkpt>
      <trkpt lat="43.64342" lon="6.79068">
        <ele>173.174683</ele>
        <time>2012-05-17T08:30:32Z</time>
      </trkpt>
      <trkpt lat="43.64342" lon="6.79065">
        <ele>173.174683</ele>
        <time>2012-05-17T08:30:40Z</time>
      </trkpt>
      <trkpt lat="43.64344" lon="6.79058">
        <ele>185.191162</ele>
        <time>2012-05-17T08:30:55Z</time>
      </trkpt>
      <trkpt lat="43.64345" lon="6.79056">
        <ele>185.191162</ele>
        <time>2012-05-17T08:31:00Z</time>
      </trkpt>
      <trkpt lat="43.64346" lon="6.79053">
        <ele>177.981201</ele>
        <time>2012-05-17T08:31:15Z</time>
      </trkpt>
      <trkpt lat="43.64345" lon="6.79051">
        <ele>177.50061</ele>
        <time>2012-05-17T08:31:16Z</time>
      </trkpt>
      <trkpt lat="43.64342" lon="6.79047">
        <ele>175.09729</ele>
        <time>2012-05-17T08:31:19Z</time>
      </trkpt>
      <trkpt lat="43.6434" lon="6.79043">
        <ele>173.174683</ele>
        <time>2012-05-17T08:31:22Z</time>
      </trkpt>
      <trkpt lat="43.64338" lon="6.79041">
        <ele>172.69397</ele>
        <time>2012-05-17T08:31:24Z</time>
      </trkpt>
      <trkpt lat="43.64335" lon="6.79029">
        <ele>170.290649</ele>
        <time>2012-05-17T08:31:30Z</time>
      </trkpt>
      <trkpt lat="43.64335" lon="6.79028">
        <ele>170.771362</ele>
        <time>2012-05-17T08:31:31Z</time>
      </trkpt>
      <trkpt lat="43.64335" lon="6.7902">
        <ele>171.252075</ele>
        <time>2012-05-17T08:31:35Z</time>
      </trkpt>
      <trkpt lat="43.64327" lon="6.79009">
        <ele>171.732666</ele>
        <time>2012-05-17T08:31:41Z</time>
      </trkpt>
      <trkpt lat="43.64324" lon="6.79006">
        <ele>171.732666</ele>
        <time>2012-05-17T08:31:43Z</time>
      </trkpt>
      <trkpt lat="43.64321" lon="6.78997">
        <ele>171.252075</ele>
        <time>2012-05-17T08:31:48Z</time>
      </trkpt>
      <trkpt lat="43.6432" lon="6.78995">
        <ele>171.252075</ele>
        <time>2012-05-17T08:31:49Z</time>
      </trkpt>
      <trkpt lat="43.64312" lon="6.78991">
        <ele>171.252075</ele>
        <time>2012-05-17T08:31:55Z</time>
      </trkpt>
      <trkpt lat="43.64311" lon="6.78991">
        <ele>171.252075</ele>
        <time>2012-05-17T08:31:56Z</time>
      </trkpt>
      <trkpt lat="43.64301" lon="6.78984">
        <ele>171.732666</ele>
        <time>2012-05-17T08:32:04Z</time>
      </trkpt>
      <trkpt lat="43.643" lon="6.78984">
        <ele>171.252075</ele>
        <time>2012-05-17T08:32:05Z</time>
      </trkpt>
      <trkpt lat="43.64296" lon="6.78985">
        <ele>171.252075</ele>
        <time>2012-05-17T08:32:08Z</time>
      </trkpt>
      <trkpt lat="43.64293" lon="6.7899">
        <ele>171.732666</ele>
        <time>2012-05-17T08:32:14Z</time>
      </trkpt>
      <trkpt lat="43.64289" lon="6.78992">
        <ele>171.732666</ele>
        <time>2012-05-17T08:32:24Z</time>
      </trkpt>
      <trkpt lat="43.64288" lon="6.78996">
        <ele>174.135864</ele>
        <time>2012-05-17T08:32:33Z</time>
      </trkpt>
      <trkpt lat="43.64291" lon="6.79001">
        <ele>174.616577</ele>
        <time>2012-05-17T08:32:42Z</time>
      </trkpt>
      <trkpt lat="43.6429" lon="6.79003">
        <ele>175.577881</ele>
        <time>2012-05-17T08:32:44Z</time>
      </trkpt>
      <trkpt lat="43.64289" lon="6.79008">
        <ele>179.423218</ele>
        <time>2012-05-17T08:32:50Z</time>
      </trkpt>
      <trkpt lat="43.64286" lon="6.79015">
        <ele>181.345825</ele>
        <time>2012-05-17T08:32:58Z</time>
      </trkpt>
      <trkpt lat="43.64288" lon="6.79015">
        <ele>180.865234</ele>
        <time>2012-05-17T08:33:02Z</time>
      </trkpt>
      <trkpt lat="43.64286" lon="6.79018">
        <ele>182.307129</ele>
        <time>2012-05-17T08:33:07Z</time>
      </trkpt>
      <trkpt lat="43.64279" lon="6.79025">
        <ele>183.749023</ele>
        <time>2012-05-17T08:33:15Z</time>
      </trkpt>
      <trkpt lat="43.6428" lon="6.79023">
        <ele>194.804321</ele>
        <time>2012-05-17T08:33:55Z</time>
      </trkpt>
      <trkpt lat="43.64285" lon="6.79017">
        <ele>193.843018</ele>
        <time>2012-05-17T08:34:00Z</time>
      </trkpt>
      <trkpt lat="43.64283" lon="6.79013">
        <ele>197.20752</ele>
        <time>2012-05-17T08:34:18Z</time>
      </trkpt>
      <trkpt lat="43.64283" lon="6.79008">
        <ele>194.804321</ele>
        <time>2012-05-17T08:35:01Z</time>
      </trkpt>
      <trkpt lat="43.64285" lon="6.79013">
        <ele>193.362305</ele>
        <time>2012-05-17T08:35:30Z</time>
      </trkpt>
      <trkpt lat="43.64285" lon="6.79014">
        <ele>189.997681</ele>
        <time>2012-05-17T08:35:44Z</time>
      </trkpt>
      <trkpt lat="43.64286" lon="6.79015">
        <ele>188.555786</ele>
        <time>2012-05-17T08:36:03Z</time>
      </trkpt>
      <trkpt lat="43.64284" lon="6.79018">
        <ele>185.671753</ele>
        <time>2012-05-17T08:36:10Z</time>
      </trkpt>
      <trkpt lat="43.64276" lon="6.79021">
        <ele>184.710571</ele>
        <time>2012-05-17T08:36:15Z</time>
      </trkpt>
      <trkpt lat="43.6427" lon="6.79032">
        <ele>186.152466</ele>
        <time>2012-05-17T08:36:20Z</time>
      </trkpt>
      <trkpt lat="43.64261" lon="6.79046">
        <ele>185.671753</ele>
        <time>2012-05-17T08:36:25Z</time>
      </trkpt>
      <trkpt lat="43.64249" lon="6.79054">
        <ele>183.749023</ele>
        <time>2012-05-17T08:36:30Z</time>
      </trkpt>
      <trkpt lat="43.64241" lon="6.79057">
        <ele>182.787842</ele>
        <time>2012-05-17T08:36:34Z</time>
      </trkpt>
      <trkpt lat="43.64223" lon="6.79059">
        <ele>181.345825</ele>
        <time>2012-05-17T08:36:40Z</time>
      </trkpt>
      <trkpt lat="43.64212" lon="6.79067">
        <ele>180.865234</ele>
        <time>2012-05-17T08:36:44Z</time>
      </trkpt>
      <trkpt lat="43.642" lon="6.7908">
        <ele>184.710571</ele>
        <time>2012-05-17T08:36:48Z</time>
      </trkpt>
      <trkpt lat="43.64189" lon="6.79092">
        <ele>187.11377</ele>
        <time>2012-05-17T08:36:52Z</time>
      </trkpt>
      <trkpt lat="43.64187" lon="6.79094">
        <ele>187.59436</ele>
        <time>2012-05-17T08:36:53Z</time>
      </trkpt>
      <trkpt lat="43.64179" lon="6.79094">
        <ele>187.59436</ele>
        <time>2012-05-17T08:36:58Z</time>
      </trkpt>
      <trkpt lat="43.64179" lon="6.79099">
        <ele>189.516968</ele>
        <time>2012-05-17T08:37:13Z</time>
      </trkpt>
      <trkpt lat="43.64178" lon="6.79103">
        <ele>190.958984</ele>
        <time>2012-05-17T08:37:34Z</time>
      </trkpt>
      <trkpt lat="43.64163" lon="6.79114">
        <ele>189.036377</ele>
        <time>2012-05-17T08:37:40Z</time>
      </trkpt>
      <trkpt lat="43.64141" lon="6.79133">
        <ele>186.152466</ele>
        <time>2012-05-17T08:37:45Z</time>
      </trkpt>
      <trkpt lat="43.64125" lon="6.79158">
        <ele>181.826416</ele>
        <time>2012-05-17T08:37:48Z</time>
      </trkpt>
      <trkpt lat="43.64098" lon="6.79182">
        <ele>177.02002</ele>
        <time>2012-05-17T08:37:52Z</time>
      </trkpt>
      <trkpt lat="43.64087" lon="6.79189">
        <ele>175.577881</ele>
        <time>2012-05-17T08:37:55Z</time>
      </trkpt>
      <trkpt lat="43.64071" lon="6.79204">
        <ele>172.69397</ele>
        <time>2012-05-17T08:37:59Z</time>
      </trkpt>
      <trkpt lat="43.64061" lon="6.79213">
        <ele>172.69397</ele>
        <time>2012-05-17T08:38:02Z</time>
      </trkpt>
      <trkpt lat="43.64045" lon="6.79231">
        <ele>172.69397</ele>
        <time>2012-05-17T08:38:06Z</time>
      </trkpt>
      <trkpt lat="43.64027" lon="6.79256">
        <ele>172.213257</ele>
        <time>2012-05-17T08:38:09Z</time>
      </trkpt>
      <trkpt lat="43.64016" lon="6.79271">
        <ele>170.290649</ele>
        <time>2012-05-17T08:38:11Z</time>
      </trkpt>
      <trkpt lat="43.63979" lon="6.79304">
        <ele>165.964722</ele>
        <time>2012-05-17T08:38:17Z</time>
      </trkpt>
      <trkpt lat="43.63956" lon="6.79321">
        <ele>161.638916</ele>
        <time>2012-05-17T08:38:21Z</time>
      </trkpt>
      <trkpt lat="43.63931" lon="6.79327">
        <ele>158.27417</ele>
        <time>2012-05-17T08:38:26Z</time>
      </trkpt>
      <trkpt lat="43.6392" lon="6.79327">
        <ele>157.793579</ele>
        <time>2012-05-17T08:38:28Z</time>
      </trkpt>
      <trkpt lat="43.63897" lon="6.79328">
        <ele>159.235474</ele>
        <time>2012-05-17T08:38:32Z</time>
      </trkpt>
      <trkpt lat="43.63874" lon="6.7934">
        <ele>160.196899</ele>
        <time>2012-05-17T08:38:37Z</time>
      </trkpt>
      <trkpt lat="43.63851" lon="6.79347">
        <ele>160.196899</ele>
        <time>2012-05-17T08:38:42Z</time>
      </trkpt>
      <trkpt lat="43.63841" lon="6.79347">
        <ele>160.196899</ele>
        <time>2012-05-17T08:38:44Z</time>
      </trkpt>
      <trkpt lat="43.63819" lon="6.79353">
        <ele>162.119507</ele>
        <time>2012-05-17T08:38:49Z</time>
      </trkpt>
      <trkpt lat="43.63806" lon="6.79352">
        <ele>163.080811</ele>
        <time>2012-05-17T08:38:53Z</time>
      </trkpt>
      <trkpt lat="43.63788" lon="6.79356">
        <ele>163.561523</ele>
        <time>2012-05-17T08:38:58Z</time>
      </trkpt>
      <trkpt lat="43.63774" lon="6.7936">
        <ele>165.964722</ele>
        <time>2012-05-17T08:39:02Z</time>
      </trkpt>
      <trkpt lat="43.63759" lon="6.79361">
        <ele>166.926025</ele>
        <time>2012-05-17T08:39:05Z</time>
      </trkpt>
      <trkpt lat="43.63731" lon="6.79361">
        <ele>168.848755</ele>
        <time>2012-05-17T08:39:09Z</time>
      </trkpt>
      <trkpt lat="43.63715" lon="6.79364">
        <ele>167.887329</ele>
        <time>2012-05-17T08:39:11Z</time>
      </trkpt>
      <trkpt lat="43.63668" lon="6.79381">
        <ele>170.290649</ele>
        <time>2012-05-17T08:39:17Z</time>
      </trkpt>
      <trkpt lat="43.63647" lon="6.79383">
        <ele>168.848755</ele>
        <time>2012-05-17T08:39:20Z</time>
      </trkpt>
      <trkpt lat="43.63625" lon="6.79369">
        <ele>164.522705</ele>
        <time>2012-05-17T08:39:24Z</time>
      </trkpt>
      <trkpt lat="43.63614" lon="6.79359">
        <ele>162.119507</ele>
        <time>2012-05-17T08:39:26Z</time>
      </trkpt>
      <trkpt lat="43.63587" lon="6.79333">
        <ele>159.716187</ele>
        <time>2012-05-17T08:39:32Z</time>
      </trkpt>
      <trkpt lat="43.63583" lon="6.79328">
        <ele>159.716187</ele>
        <time>2012-05-17T08:39:33Z</time>
      </trkpt>
      <trkpt lat="43.63561" lon="6.79305">
        <ele>159.235474</ele>
        <time>2012-05-17T08:39:38Z</time>
      </trkpt>
      <trkpt lat="43.63537" lon="6.79286">
        <ele>157.312866</ele>
        <time>2012-05-17T08:39:44Z</time>
      </trkpt>
      <trkpt lat="43.63518" lon="6.7927">
        <ele>157.793579</ele>
        <time>2012-05-17T08:39:50Z</time>
      </trkpt>
      <trkpt lat="43.63504" lon="6.79258">
        <ele>157.312866</ele>
        <time>2012-05-17T08:39:55Z</time>
      </trkpt>
      <trkpt lat="43.63485" lon="6.79249">
        <ele>156.351562</ele>
        <time>2012-05-17T08:40:00Z</time>
      </trkpt>
      <trkpt lat="43.63469" lon="6.79238">
        <ele>156.832153</ele>
        <time>2012-05-17T08:40:05Z</time>
      </trkpt>
      <trkpt lat="43.63455" lon="6.79226">
        <ele>158.27417</ele>
        <time>2012-05-17T08:40:11Z</time>
      </trkpt>
      <trkpt lat="43.6344" lon="6.79209">
        <ele>159.235474</ele>
        <time>2012-05-17T08:40:17Z</time>
      </trkpt>
      <trkpt lat="43.63429" lon="6.79194">
        <ele>158.754761</ele>
        <time>2012-05-17T08:40:23Z</time>
      </trkpt>
      <trkpt lat="43.63417" lon="6.79184">
        <ele>159.235474</ele>
        <time>2012-05-17T08:40:28Z</time>
      </trkpt>
      <trkpt lat="43.63407" lon="6.7918">
        <ele>158.754761</ele>
        <time>2012-05-17T08:40:32Z</time>
      </trkpt>
      <trkpt lat="43.6339" lon="6.79178">
        <ele>156.832153</ele>
        <time>2012-05-17T08:40:37Z</time>
      </trkpt>
      <trkpt lat="43.63373" lon="6.7919">
        <ele>158.27417</ele>
        <time>2012-05-17T08:40:42Z</time>
      </trkpt>
      <trkpt lat="43.63358" lon="6.79193">
        <ele>158.754761</ele>
        <time>2012-05-17T08:40:47Z</time>
      </trkpt>
      <trkpt lat="43.63343" lon="6.79188">
        <ele>159.716187</ele>
        <time>2012-05-17T08:40:51Z</time>
      </trkpt>
      <trkpt lat="43.63328" lon="6.79177">
        <ele>160.67749</ele>
        <time>2012-05-17T08:40:56Z</time>
      </trkpt>
      <trkpt lat="43.63314" lon="6.7918">
        <ele>162.119507</ele>
        <time>2012-05-17T08:41:00Z</time>
      </trkpt>
      <trkpt lat="43.63303" lon="6.79193">
        <ele>163.080811</ele>
        <time>2012-05-17T08:41:04Z</time>
      </trkpt>
      <trkpt lat="43.63289" lon="6.79199">
        <ele>163.080811</ele>
        <time>2012-05-17T08:41:09Z</time>
      </trkpt>
      <trkpt lat="43.63281" lon="6.79211">
        <ele>163.080811</ele>
        <time>2012-05-17T08:41:13Z</time>
      </trkpt>
      <trkpt lat="43.63271" lon="6.79234">
        <ele>163.080811</ele>
        <time>2012-05-17T08:41:17Z</time>
      </trkpt>
      <trkpt lat="43.63264" lon="6.79252">
        <ele>163.561523</ele>
        <time>2012-05-17T08:41:21Z</time>
      </trkpt>
      <trkpt lat="43.63262" lon="6.79267">
        <ele>162.119507</ele>
        <time>2012-05-17T08:41:24Z</time>
      </trkpt>
      <trkpt lat="43.63261" lon="6.79299">
        <ele>161.638916</ele>
        <time>2012-05-17T08:41:29Z</time>
      </trkpt>
      <trkpt lat="43.63267" lon="6.79314">
        <ele>161.158203</ele>
        <time>2012-05-17T08:41:33Z</time>
      </trkpt>
      <trkpt lat="43.63269" lon="6.79317">
        <ele>161.158203</ele>
        <time>2012-05-17T08:41:36Z</time>
      </trkpt>
      <trkpt lat="43.6327" lon="6.7932">
        <ele>161.638916</ele>
        <time>2012-05-17T08:41:43Z</time>
      </trkpt>
      <trkpt lat="43.6327" lon="6.79319">
        <ele>161.158203</ele>
        <time>2012-05-17T08:41:55Z</time>
      </trkpt>
      <trkpt lat="43.6327" lon="6.79319">
        <ele>160.67749</ele>
        <time>2012-05-17T08:42:03Z</time>
      </trkpt>
      <trkpt lat="43.63271" lon="6.7932">
        <ele>160.67749</ele>
        <time>2012-05-17T08:42:22Z</time>
      </trkpt>
      <trkpt lat="43.63276" lon="6.79328">
        <ele>160.67749</ele>
        <time>2012-05-17T08:42:27Z</time>
      </trkpt>
      <trkpt lat="43.63283" lon="6.79336">
        <ele>162.600098</ele>
        <time>2012-05-17T08:42:34Z</time>
      </trkpt>
      <trkpt lat="43.63285" lon="6.79335">
        <ele>162.119507</ele>
        <time>2012-05-17T08:42:41Z</time>
      </trkpt>
      <trkpt lat="43.63285" lon="6.79333">
        <ele>160.196899</ele>
        <time>2012-05-17T08:42:46Z</time>
      </trkpt>
      <trkpt lat="43.63286" lon="6.79333">
        <ele>160.196899</ele>
        <time>2012-05-17T08:42:52Z</time>
      </trkpt>
      <trkpt lat="43.63286" lon="6.79336">
        <ele>158.27417</ele>
        <time>2012-05-17T08:43:00Z</time>
      </trkpt>
      <trkpt lat="43.63286" lon="6.7934">
        <ele>153.948364</ele>
        <time>2012-05-17T08:43:21Z</time>
      </trkpt>
      <trkpt lat="43.63286" lon="6.79341">
        <ele>154.909546</ele>
        <time>2012-05-17T08:43:46Z</time>
      </trkpt>
      <trkpt lat="43.63284" lon="6.79339">
        <ele>153.467651</ele>
        <time>2012-05-17T08:44:01Z</time>
      </trkpt>
      <trkpt lat="43.63282" lon="6.79339">
        <ele>154.909546</ele>
        <time>2012-05-17T08:44:39Z</time>
      </trkpt>
      <trkpt lat="43.63283" lon="6.79334">
        <ele>164.042114</ele>
        <time>2012-05-17T08:45:28Z</time>
      </trkpt>
      <trkpt lat="43.63282" lon="6.79337">
        <ele>160.196899</ele>
        <time>2012-05-17T08:45:37Z</time>
      </trkpt>
      <trkpt lat="43.63278" lon="6.7935">
        <ele>159.235474</ele>
        <time>2012-05-17T08:45:42Z</time>
      </trkpt>
      <trkpt lat="43.63274" lon="6.79357">
        <ele>160.196899</ele>
        <time>2012-05-17T08:45:44Z</time>
      </trkpt>
      <trkpt lat="43.63269" lon="6.79382">
        <ele>157.312866</ele>
        <time>2012-05-17T08:45:50Z</time>
      </trkpt>
      <trkpt lat="43.63269" lon="6.79411">
        <ele>155.390259</ele>
        <time>2012-05-17T08:45:55Z</time>
      </trkpt>
      <trkpt lat="43.63268" lon="6.79418">
        <ele>154.909546</ele>
        <time>2012-05-17T08:45:56Z</time>
      </trkpt>
      <trkpt lat="43.63262" lon="6.79439">
        <ele>154.909546</ele>
        <time>2012-05-17T08:45:59Z</time>
      </trkpt>
      <trkpt lat="43.63248" lon="6.79479">
        <ele>153.948364</ele>
        <time>2012-05-17T08:46:05Z</time>
      </trkpt>
      <trkpt lat="43.63241" lon="6.79491">
        <ele>154.428955</ele>
        <time>2012-05-17T08:46:07Z</time>
      </trkpt>
      <trkpt lat="43.63213" lon="6.79521">
        <ele>154.909546</ele>
        <time>2012-05-17T08:46:14Z</time>
      </trkpt>
      <trkpt lat="43.6321" lon="6.79525">
        <ele>155.390259</ele>
        <time>2012-05-17T08:46:15Z</time>
      </trkpt>
      <trkpt lat="43.63188" lon="6.79559">
        <ele>156.351562</ele>
        <time>2012-05-17T08:46:22Z</time>
      </trkpt>
      <trkpt lat="43.6317" lon="6.79588">
        <ele>155.870972</ele>
        <time>2012-05-17T08:46:28Z</time>
      </trkpt>
      <trkpt lat="43.63146" lon="6.79601">
        <ele>155.870972</ele>
        <time>2012-05-17T08:46:34Z</time>
      </trkpt>
      <trkpt lat="43.63127" lon="6.79595">
        <ele>154.909546</ele>
        <time>2012-05-17T08:46:39Z</time>
      </trkpt>
      <trkpt lat="43.63111" lon="6.79584">
        <ele>153.948364</ele>
        <time>2012-05-17T08:46:43Z</time>
      </trkpt>
      <trkpt lat="43.63094" lon="6.79578">
        <ele>153.467651</ele>
        <time>2012-05-17T08:46:47Z</time>
      </trkpt>
      <trkpt lat="43.63066" lon="6.79585">
        <ele>155.390259</ele>
        <time>2012-05-17T08:46:54Z</time>
      </trkpt>
      <trkpt lat="43.63042" lon="6.79603">
        <ele>153.467651</ele>
        <time>2012-05-17T08:47:01Z</time>
      </trkpt>
      <trkpt lat="43.63015" lon="6.79625">
        <ele>152.986938</ele>
        <time>2012-05-17T08:47:07Z</time>
      </trkpt>
      <trkpt lat="43.62977" lon="6.79653">
        <ele>156.832153</ele>
        <time>2012-05-17T08:47:15Z</time>
      </trkpt>
      <trkpt lat="43.62948" lon="6.79689">
        <ele>156.832153</ele>
        <time>2012-05-17T08:47:22Z</time>
      </trkpt>
      <trkpt lat="43.62922" lon="6.79717">
        <ele>156.832153</ele>
        <time>2012-05-17T08:47:28Z</time>
      </trkpt>
      <trkpt lat="43.62896" lon="6.79736">
        <ele>156.832153</ele>
        <time>2012-05-17T08:47:34Z</time>
      </trkpt>
      <trkpt lat="43.62865" lon="6.79748">
        <ele>155.390259</ele>
        <time>2012-05-17T08:47:40Z</time>
      </trkpt>
      <trkpt lat="43.62844" lon="6.79756">
        <ele>154.428955</ele>
        <time>2012-05-17T08:47:44Z</time>
      </trkpt>
      <trkpt lat="43.62806" lon="6.79773">
        <ele>156.832153</ele>
        <time>2012-05-17T08:47:51Z</time>
      </trkpt>
      <trkpt lat="43.62786" lon="6.79794">
        <ele>156.832153</ele>
        <time>2012-05-17T08:47:56Z</time>
      </trkpt>
      <trkpt lat="43.62784" lon="6.798">
        <ele>156.351562</ele>
        <time>2012-05-17T08:47:57Z</time>
      </trkpt>
      <trkpt lat="43.62775" lon="6.79833">
        <ele>155.390259</ele>
        <time>2012-05-17T08:48:02Z</time>
      </trkpt>
      <trkpt lat="43.62759" lon="6.79859">
        <ele>154.909546</ele>
        <time>2012-05-17T08:48:07Z</time>
      </trkpt>
      <trkpt lat="43.62739" lon="6.79866">
        <ele>153.467651</ele>
        <time>2012-05-17T08:48:11Z</time>
      </trkpt>
      <trkpt lat="43.62707" lon="6.79879">
        <ele>154.428955</ele>
        <time>2012-05-17T08:48:17Z</time>
      </trkpt>
      <trkpt lat="43.62702" lon="6.79893">
        <ele>154.428955</ele>
        <time>2012-05-17T08:48:19Z</time>
      </trkpt>
      <trkpt lat="43.62696" lon="6.79914">
        <ele>154.428955</ele>
        <time>2012-05-17T08:48:22Z</time>
      </trkpt>
      <trkpt lat="43.62691" lon="6.79927">
        <ele>154.428955</ele>
        <time>2012-05-17T08:48:24Z</time>
      </trkpt>
      <trkpt lat="43.62672" lon="6.79963">
        <ele>153.948364</ele>
        <time>2012-05-17T08:48:31Z</time>
      </trkpt>
      <trkpt lat="43.62668" lon="6.7997">
        <ele>153.467651</ele>
        <time>2012-05-17T08:48:33Z</time>
      </trkpt>
      <trkpt lat="43.62657" lon="6.79985">
        <ele>153.467651</ele>
        <time>2012-05-17T08:48:39Z</time>
      </trkpt>
      <trkpt lat="43.62646" lon="6.80001">
        <ele>154.909546</ele>
        <time>2012-05-17T08:48:44Z</time>
      </trkpt>
      <trkpt lat="43.62636" lon="6.80023">
        <ele>155.390259</ele>
        <time>2012-05-17T08:48:49Z</time>
      </trkpt>
      <trkpt lat="43.6263" lon="6.80039">
        <ele>154.909546</ele>
        <time>2012-05-17T08:48:54Z</time>
      </trkpt>
      <trkpt lat="43.62621" lon="6.80059">
        <ele>155.870972</ele>
        <time>2012-05-17T08:48:59Z</time>
      </trkpt>
      <trkpt lat="43.6262" lon="6.80064">
        <ele>157.312866</ele>
        <time>2012-05-17T08:49:03Z</time>
      </trkpt>
      <trkpt lat="43.62619" lon="6.8007">
        <ele>163.561523</ele>
        <time>2012-05-17T08:49:25Z</time>
      </trkpt>
      <trkpt lat="43.62619" lon="6.80071">
        <ele>161.638916</ele>
        <time>2012-05-17T08:49:33Z</time>
      </trkpt>
      <trkpt lat="43.62618" lon="6.80073">
        <ele>161.158203</ele>
        <time>2012-05-17T08:49:40Z</time>
      </trkpt>
      <trkpt lat="43.62617" lon="6.80074">
        <ele>161.158203</ele>
        <time>2012-05-17T08:49:52Z</time>
      </trkpt>
      <trkpt lat="43.62616" lon="6.80079">
        <ele>162.119507</ele>
        <time>2012-05-17T08:49:58Z</time>
      </trkpt>
      <trkpt lat="43.62618" lon="6.80085">
        <ele>163.080811</ele>
        <time>2012-05-17T08:50:04Z</time>
      </trkpt>
      <trkpt lat="43.6262" lon="6.80088">
        <ele>165.484131</ele>
        <time>2012-05-17T08:50:10Z</time>
      </trkpt>
      <trkpt lat="43.6262" lon="6.80093">
        <ele>163.080811</ele>
        <time>2012-05-17T08:50:19Z</time>
      </trkpt>
      <trkpt lat="43.62619" lon="6.80098">
        <ele>162.600098</ele>
        <time>2012-05-17T08:50:28Z</time>
      </trkpt>
      <trkpt lat="43.62619" lon="6.80103">
        <ele>159.716187</ele>
        <time>2012-05-17T08:50:34Z</time>
      </trkpt>
      <trkpt lat="43.62619" lon="6.80106">
        <ele>160.196899</ele>
        <time>2012-05-17T08:50:40Z</time>
      </trkpt>
      <trkpt lat="43.62619" lon="6.8011">
        <ele>159.716187</ele>
        <time>2012-05-17T08:50:45Z</time>
      </trkpt>
      <trkpt lat="43.6262" lon="6.80117">
        <ele>161.158203</ele>
        <time>2012-05-17T08:50:51Z</time>
      </trkpt>
      <trkpt lat="43.62619" lon="6.80126">
        <ele>161.158203</ele>
        <time>2012-05-17T08:50:57Z</time>
      </trkpt>
      <trkpt lat="43.62617" lon="6.80132">
        <ele>160.67749</ele>
        <time>2012-05-17T08:51:02Z</time>
      </trkpt>
      <trkpt lat="43.62616" lon="6.80139">
        <ele>159.235474</ele>
        <time>2012-05-17T08:51:07Z</time>
      </trkpt>
      <trkpt lat="43.62611" lon="6.8016">
        <ele>158.754761</ele>
        <time>2012-05-17T08:51:14Z</time>
      </trkpt>
      <trkpt lat="43.62605" lon="6.80178">
        <ele>157.793579</ele>
        <time>2012-05-17T08:51:20Z</time>
      </trkpt>
      <trkpt lat="43.62603" lon="6.8019">
        <ele>157.312866</ele>
        <time>2012-05-17T08:51:25Z</time>
      </trkpt>
      <trkpt lat="43.62601" lon="6.80193">
        <ele>158.27417</ele>
        <time>2012-05-17T08:51:31Z</time>
      </trkpt>
      <trkpt lat="43.626" lon="6.80194">
        <ele>159.716187</ele>
        <time>2012-05-17T08:51:37Z</time>
      </trkpt>
      <trkpt lat="43.62598" lon="6.80196">
        <ele>160.67749</ele>
        <time>2012-05-17T08:51:51Z</time>
      </trkpt>
      <trkpt lat="43.62598" lon="6.80198">
        <ele>160.196899</ele>
        <time>2012-05-17T08:51:52Z</time>
      </trkpt>
      <trkpt lat="43.62592" lon="6.80211">
        <ele>161.638916</ele>
        <time>2012-05-17T08:51:58Z</time>
      </trkpt>
      <trkpt lat="43.62591" lon="6.80214">
        <ele>162.119507</ele>
        <time>2012-05-17T08:52:00Z</time>
      </trkpt>
      <trkpt lat="43.62588" lon="6.80219">
        <ele>162.600098</ele>
        <time>2012-05-17T08:52:05Z</time>
      </trkpt>
      <trkpt lat="43.62588" lon="6.80223">
        <ele>163.080811</ele>
        <time>2012-05-17T08:52:11Z</time>
      </trkpt>
      <trkpt lat="43.62587" lon="6.80228">
        <ele>162.600098</ele>
        <time>2012-05-17T08:52:17Z</time>
      </trkpt>
      <trkpt lat="43.62584" lon="6.80249">
        <ele>160.67749</ele>
        <time>2012-05-17T08:52:22Z</time>
      </trkpt>
      <trkpt lat="43.62585" lon="6.80254">
        <ele>159.716187</ele>
        <time>2012-05-17T08:52:23Z</time>
      </trkpt>
      <trkpt lat="43.62587" lon="6.80275">
        <ele>157.312866</ele>
        <time>2012-05-17T08:52:28Z</time>
      </trkpt>
      <trkpt lat="43.62591" lon="6.80292">
        <ele>154.909546</ele>
        <time>2012-05-17T08:52:33Z</time>
      </trkpt>
      <trkpt lat="43.62593" lon="6.80313">
        <ele>153.467651</ele>
        <time>2012-05-17T08:52:38Z</time>
      </trkpt>
      <trkpt lat="43.62595" lon="6.80336">
        <ele>152.025757</ele>
        <time>2012-05-17T08:52:43Z</time>
      </trkpt>
      <trkpt lat="43.62597" lon="6.80358">
        <ele>152.025757</ele>
        <time>2012-05-17T08:52:49Z</time>
      </trkpt>
      <trkpt lat="43.62602" lon="6.80379">
        <ele>152.506348</ele>
        <time>2012-05-17T08:52:54Z</time>
      </trkpt>
      <trkpt lat="43.62603" lon="6.80391">
        <ele>153.467651</ele>
        <time>2012-05-17T08:52:59Z</time>
      </trkpt>
      <trkpt lat="43.62604" lon="6.80392">
        <ele>153.948364</ele>
        <time>2012-05-17T08:53:01Z</time>
      </trkpt>
      <trkpt lat="43.62604" lon="6.80399">
        <ele>155.390259</ele>
        <time>2012-05-17T08:53:07Z</time>
      </trkpt>
      <trkpt lat="43.62605" lon="6.80408">
        <ele>155.390259</ele>
        <time>2012-05-17T08:53:11Z</time>
      </trkpt>
      <trkpt lat="43.62609" lon="6.80418">
        <ele>154.909546</ele>
        <time>2012-05-17T08:53:17Z</time>
      </trkpt>
      <trkpt lat="43.6261" lon="6.80419">
        <ele>154.909546</ele>
        <time>2012-05-17T08:53:18Z</time>
      </trkpt>
      <trkpt lat="43.62621" lon="6.80438">
        <ele>153.948364</ele>
        <time>2012-05-17T08:53:24Z</time>
      </trkpt>
      <trkpt lat="43.62627" lon="6.80467">
        <ele>153.948364</ele>
        <time>2012-05-17T08:53:29Z</time>
      </trkpt>
      <trkpt lat="43.62626" lon="6.8048">
        <ele>153.948364</ele>
        <time>2012-05-17T08:53:31Z</time>
      </trkpt>
      <trkpt lat="43.62617" lon="6.8051">
        <ele>152.986938</ele>
        <time>2012-05-17T08:53:36Z</time>
      </trkpt>
      <trkpt lat="43.62613" lon="6.80543">
        <ele>152.986938</ele>
        <time>2012-05-17T08:53:41Z</time>
      </trkpt>
      <trkpt lat="43.62614" lon="6.80591">
        <ele>152.506348</ele>
        <time>2012-05-17T08:53:48Z</time>
      </trkpt>
      <trkpt lat="43.62625" lon="6.80627">
        <ele>153.948364</ele>
        <time>2012-05-17T08:53:54Z</time>
      </trkpt>
      <trkpt lat="43.62628" lon="6.80631">
        <ele>153.948364</ele>
        <time>2012-05-17T08:53:55Z</time>
      </trkpt>
      <trkpt lat="43.62635" lon="6.80645">
        <ele>154.428955</ele>
        <time>2012-05-17T08:53:58Z</time>
      </trkpt>
      <trkpt lat="43.6264" lon="6.80659">
        <ele>154.428955</ele>
        <time>2012-05-17T08:54:03Z</time>
      </trkpt>
      <trkpt lat="43.62645" lon="6.80669">
        <ele>153.948364</ele>
        <time>2012-05-17T08:54:09Z</time>
      </trkpt>
      <trkpt lat="43.62648" lon="6.80682">
        <ele>153.948364</ele>
        <time>2012-05-17T08:54:14Z</time>
      </trkpt>
      <trkpt lat="43.62649" lon="6.80693">
        <ele>153.948364</ele>
        <time>2012-05-17T08:54:18Z</time>
      </trkpt>
      <trkpt lat="43.62651" lon="6.80704">
        <ele>152.506348</ele>
        <time>2012-05-17T08:54:22Z</time>
      </trkpt>
      <trkpt lat="43.62658" lon="6.80726">
        <ele>151.064209</ele>
        <time>2012-05-17T08:54:27Z</time>
      </trkpt>
      <trkpt lat="43.62659" lon="6.8073">
        <ele>151.064209</ele>
        <time>2012-05-17T08:54:28Z</time>
      </trkpt>
      <trkpt lat="43.6267" lon="6.80758">
        <ele>149.141602</ele>
        <time>2012-05-17T08:54:35Z</time>
      </trkpt>
      <trkpt lat="43.62677" lon="6.80773">
        <ele>148.661011</ele>
        <time>2012-05-17T08:54:40Z</time>
      </trkpt>
      <trkpt lat="43.62679" lon="6.80776">
        <ele>149.622314</ele>
        <time>2012-05-17T08:54:44Z</time>
      </trkpt>
      <trkpt lat="43.6268" lon="6.8078">
        <ele>150.103027</ele>
        <time>2012-05-17T08:54:50Z</time>
      </trkpt>
      <trkpt lat="43.62681" lon="6.80782">
        <ele>151.064209</ele>
        <time>2012-05-17T08:54:56Z</time>
      </trkpt>
      <trkpt lat="43.62682" lon="6.80784">
        <ele>154.909546</ele>
        <time>2012-05-17T08:55:09Z</time>
      </trkpt>
      <trkpt lat="43.62685" lon="6.80789">
        <ele>154.909546</ele>
        <time>2012-05-17T08:55:13Z</time>
      </trkpt>
      <trkpt lat="43.62687" lon="6.80793">
        <ele>154.909546</ele>
        <time>2012-05-17T08:55:15Z</time>
      </trkpt>
      <trkpt lat="43.62692" lon="6.80804">
        <ele>153.948364</ele>
        <time>2012-05-17T08:55:21Z</time>
      </trkpt>
      <trkpt lat="43.62697" lon="6.80813">
        <ele>153.467651</ele>
        <time>2012-05-17T08:55:25Z</time>
      </trkpt>
      <trkpt lat="43.62698" lon="6.80813">
        <ele>153.948364</ele>
        <time>2012-05-17T08:55:27Z</time>
      </trkpt>
      <trkpt lat="43.62703" lon="6.80819">
        <ele>152.986938</ele>
        <time>2012-05-17T08:55:32Z</time>
      </trkpt>
      <trkpt lat="43.62707" lon="6.80822">
        <ele>152.506348</ele>
        <time>2012-05-17T08:55:35Z</time>
      </trkpt>
      <trkpt lat="43.62718" lon="6.80829">
        <ele>152.506348</ele>
        <time>2012-05-17T08:55:40Z</time>
      </trkpt>
      <trkpt lat="43.62732" lon="6.80836">
        <ele>152.986938</ele>
        <time>2012-05-17T08:55:45Z</time>
      </trkpt>
      <trkpt lat="43.62738" lon="6.80842">
        <ele>153.467651</ele>
        <time>2012-05-17T08:55:48Z</time>
      </trkpt>
      <trkpt lat="43.62743" lon="6.80851">
        <ele>152.025757</ele>
        <time>2012-05-17T08:55:52Z</time>
      </trkpt>
      <trkpt lat="43.62753" lon="6.80857">
        <ele>153.467651</ele>
        <time>2012-05-17T08:55:57Z</time>
      </trkpt>
      <trkpt lat="43.62757" lon="6.80864">
        <ele>154.909546</ele>
        <time>2012-05-17T08:56:00Z</time>
      </trkpt>
      <trkpt lat="43.62762" lon="6.8087">
        <ele>155.390259</ele>
        <time>2012-05-17T08:56:04Z</time>
      </trkpt>
      <trkpt lat="43.62771" lon="6.80877">
        <ele>157.312866</ele>
        <time>2012-05-17T08:56:10Z</time>
      </trkpt>
      <trkpt lat="43.62772" lon="6.8088">
        <ele>157.793579</ele>
        <time>2012-05-17T08:56:16Z</time>
      </trkpt>
      <trkpt lat="43.62772" lon="6.80882">
        <ele>160.67749</ele>
        <time>2012-05-17T08:56:24Z</time>
      </trkpt>
      <trkpt lat="43.62773" lon="6.80881">
        <ele>161.158203</ele>
        <time>2012-05-17T08:56:33Z</time>
      </trkpt>
      <trkpt lat="43.62776" lon="6.80879">
        <ele>160.67749</ele>
        <time>2012-05-17T08:56:45Z</time>
      </trkpt>
      <trkpt lat="43.62776" lon="6.80879">
        <ele>160.196899</ele>
        <time>2012-05-17T08:56:59Z</time>
      </trkpt>
      <trkpt lat="43.62776" lon="6.8088">
        <ele>159.235474</ele>
        <time>2012-05-17T08:57:06Z</time>
      </trkpt>
      <trkpt lat="43.62775" lon="6.8088">
        <ele>160.196899</ele>
        <time>2012-05-17T08:57:11Z</time>
      </trkpt>
      <trkpt lat="43.62775" lon="6.80881">
        <ele>161.638916</ele>
        <time>2012-05-17T08:57:17Z</time>
      </trkpt>
      <trkpt lat="43.62774" lon="6.80882">
        <ele>162.600098</ele>
        <time>2012-05-17T08:57:21Z</time>
      </trkpt>
      <trkpt lat="43.62774" lon="6.8088">
        <ele>162.600098</ele>
        <time>2012-05-17T08:57:26Z</time>
      </trkpt>
      <trkpt lat="43.62774" lon="6.80881">
        <ele>161.158203</ele>
        <time>2012-05-17T08:57:35Z</time>
      </trkpt>
      <trkpt lat="43.62775" lon="6.8088">
        <ele>161.158203</ele>
        <time>2012-05-17T08:57:41Z</time>
      </trkpt>
      <trkpt lat="43.62772" lon="6.80881">
        <ele>164.042114</ele>
        <time>2012-05-17T08:57:56Z</time>
      </trkpt>
      <trkpt lat="43.62773" lon="6.80881">
        <ele>164.522705</ele>
        <time>2012-05-17T08:58:06Z</time>
      </trkpt>
      <trkpt lat="43.62773" lon="6.80881">
        <ele>162.119507</ele>
        <time>2012-05-17T08:58:15Z</time>
      </trkpt>
      <trkpt lat="43.62774" lon="6.80881">
        <ele>159.716187</ele>
        <time>2012-05-17T08:58:27Z</time>
      </trkpt>
      <trkpt lat="43.62774" lon="6.80881">
        <ele>158.754761</ele>
        <time>2012-05-17T08:58:41Z</time>
      </trkpt>
      <trkpt lat="43.62774" lon="6.8088">
        <ele>158.27417</ele>
        <time>2012-05-17T08:58:57Z</time>
      </trkpt>
      <trkpt lat="43.62771" lon="6.80881">
        <ele>158.754761</ele>
        <time>2012-05-17T08:59:11Z</time>
      </trkpt>
      <trkpt lat="43.62768" lon="6.80887">
        <ele>160.196899</ele>
        <time>2012-05-17T08:59:16Z</time>
      </trkpt>
      <trkpt lat="43.62769" lon="6.80901">
        <ele>161.638916</ele>
        <time>2012-05-17T08:59:23Z</time>
      </trkpt>
      <trkpt lat="43.62767" lon="6.80914">
        <ele>163.080811</ele>
        <time>2012-05-17T08:59:28Z</time>
      </trkpt>
      <trkpt lat="43.62768" lon="6.80931">
        <ele>164.042114</ele>
        <time>2012-05-17T08:59:34Z</time>
      </trkpt>
      <trkpt lat="43.62769" lon="6.80944">
        <ele>165.003418</ele>
        <time>2012-05-17T08:59:39Z</time>
      </trkpt>
      <trkpt lat="43.62772" lon="6.80958">
        <ele>164.522705</ele>
        <time>2012-05-17T08:59:44Z</time>
      </trkpt>
      <trkpt lat="43.62772" lon="6.80961">
        <ele>164.522705</ele>
        <time>2012-05-17T08:59:45Z</time>
      </trkpt>
      <trkpt lat="43.62778" lon="6.8098">
        <ele>164.522705</ele>
        <time>2012-05-17T08:59:52Z</time>
      </trkpt>
      <trkpt lat="43.62779" lon="6.80982">
        <ele>165.003418</ele>
        <time>2012-05-17T08:59:53Z</time>
      </trkpt>
      <trkpt lat="43.6278" lon="6.80989">
        <ele>165.003418</ele>
        <time>2012-05-17T08:59:55Z</time>
      </trkpt>
      <trkpt lat="43.62785" lon="6.81005">
        <ele>164.522705</ele>
        <time>2012-05-17T09:00:00Z</time>
      </trkpt>
      <trkpt lat="43.62787" lon="6.81011">
        <ele>165.003418</ele>
        <time>2012-05-17T09:00:02Z</time>
      </trkpt>
      <trkpt lat="43.62788" lon="6.81027">
        <ele>165.484131</ele>
        <time>2012-05-17T09:00:08Z</time>
      </trkpt>
      <trkpt lat="43.62789" lon="6.81047">
        <ele>165.964722</ele>
        <time>2012-05-17T09:00:14Z</time>
      </trkpt>
      <trkpt lat="43.6279" lon="6.8105">
        <ele>166.445312</ele>
        <time>2012-05-17T09:00:15Z</time>
      </trkpt>
      <trkpt lat="43.62792" lon="6.81069">
        <ele>168.368042</ele>
        <time>2012-05-17T09:00:21Z</time>
      </trkpt>
      <trkpt lat="43.62796" lon="6.81084">
        <ele>167.406738</ele>
        <time>2012-05-17T09:00:26Z</time>
      </trkpt>
      <trkpt lat="43.62799" lon="6.8109">
        <ele>167.406738</ele>
        <time>2012-05-17T09:00:28Z</time>
      </trkpt>
      <trkpt lat="43.62806" lon="6.81106">
        <ele>168.848755</ele>
        <time>2012-05-17T09:00:34Z</time>
      </trkpt>
      <trkpt lat="43.62812" lon="6.8112">
        <ele>169.329468</ele>
        <time>2012-05-17T09:00:40Z</time>
      </trkpt>
      <trkpt lat="43.62813" lon="6.81128">
        <ele>168.848755</ele>
        <time>2012-05-17T09:00:42Z</time>
      </trkpt>
      <trkpt lat="43.62822" lon="6.81157">
        <ele>168.368042</ele>
        <time>2012-05-17T09:00:48Z</time>
      </trkpt>
      <trkpt lat="43.62832" lon="6.81188">
        <ele>166.445312</ele>
        <time>2012-05-17T09:00:53Z</time>
      </trkpt>
      <trkpt lat="43.62833" lon="6.81194">
        <ele>166.445312</ele>
        <time>2012-05-17T09:00:54Z</time>
      </trkpt>
      <trkpt lat="43.62832" lon="6.81206">
        <ele>166.926025</ele>
        <time>2012-05-17T09:00:58Z</time>
      </trkpt>
      <trkpt lat="43.6283" lon="6.81208">
        <ele>168.368042</ele>
        <time>2012-05-17T09:01:03Z</time>
      </trkpt>
      <trkpt lat="43.62828" lon="6.8121">
        <ele>170.771362</ele>
        <time>2012-05-17T09:01:12Z</time>
      </trkpt>
      <trkpt lat="43.62825" lon="6.8121">
        <ele>170.771362</ele>
        <time>2012-05-17T09:01:19Z</time>
      </trkpt>
      <trkpt lat="43.62821" lon="6.81208">
        <ele>170.290649</ele>
        <time>2012-05-17T09:01:22Z</time>
      </trkpt>
      <trkpt lat="43.62811" lon="6.81205">
        <ele>169.810059</ele>
        <time>2012-05-17T09:01:28Z</time>
      </trkpt>
      <trkpt lat="43.62801" lon="6.81205">
        <ele>171.252075</ele>
        <time>2012-05-17T09:01:33Z</time>
      </trkpt>
      <trkpt lat="43.62798" lon="6.81206">
        <ele>171.732666</ele>
        <time>2012-05-17T09:01:34Z</time>
      </trkpt>
      <trkpt lat="43.62795" lon="6.81209">
        <ele>172.69397</ele>
        <time>2012-05-17T09:01:36Z</time>
      </trkpt>
      <trkpt lat="43.6279" lon="6.81214">
        <ele>176.539307</ele>
        <time>2012-05-17T09:01:43Z</time>
      </trkpt>
      <trkpt lat="43.62786" lon="6.81221">
        <ele>177.02002</ele>
        <time>2012-05-17T09:01:47Z</time>
      </trkpt>
      <trkpt lat="43.62779" lon="6.81236">
        <ele>177.981201</ele>
        <time>2012-05-17T09:01:52Z</time>
      </trkpt>
      <trkpt lat="43.62769" lon="6.81254">
        <ele>179.423218</ele>
        <time>2012-05-17T09:01:56Z</time>
      </trkpt>
      <trkpt lat="43.62761" lon="6.8128">
        <ele>180.384521</ele>
        <time>2012-05-17T09:02:00Z</time>
      </trkpt>
      <trkpt lat="43.62757" lon="6.81288">
        <ele>180.865234</ele>
        <time>2012-05-17T09:02:01Z</time>
      </trkpt>
      <trkpt lat="43.62747" lon="6.8131">
        <ele>183.749023</ele>
        <time>2012-05-17T09:02:05Z</time>
      </trkpt>
      <trkpt lat="43.62745" lon="6.81316">
        <ele>184.229858</ele>
        <time>2012-05-17T09:02:08Z</time>
      </trkpt>
      <trkpt lat="43.62745" lon="6.81322">
        <ele>184.229858</ele>
        <time>2012-05-17T09:02:10Z</time>
      </trkpt>
      <trkpt lat="43.62743" lon="6.81341">
        <ele>184.710571</ele>
        <time>2012-05-17T09:02:15Z</time>
      </trkpt>
      <trkpt lat="43.62742" lon="6.81351">
        <ele>184.229858</ele>
        <time>2012-05-17T09:02:17Z</time>
      </trkpt>
      <trkpt lat="43.62736" lon="6.81381">
        <ele>184.229858</ele>
        <time>2012-05-17T09:02:24Z</time>
      </trkpt>
      <trkpt lat="43.62733" lon="6.81401">
        <ele>185.671753</ele>
        <time>2012-05-17T09:02:29Z</time>
      </trkpt>
      <trkpt lat="43.6273" lon="6.81418">
        <ele>184.710571</ele>
        <time>2012-05-17T09:02:34Z</time>
      </trkpt>
      <trkpt lat="43.62727" lon="6.81436">
        <ele>184.229858</ele>
        <time>2012-05-17T09:02:40Z</time>
      </trkpt>
      <trkpt lat="43.62727" lon="6.81456">
        <ele>185.671753</ele>
        <time>2012-05-17T09:02:46Z</time>
      </trkpt>
      <trkpt lat="43.62725" lon="6.81472">
        <ele>184.710571</ele>
        <time>2012-05-17T09:02:51Z</time>
      </trkpt>
      <trkpt lat="43.62722" lon="6.81477">
        <ele>187.11377</ele>
        <time>2012-05-17T09:02:57Z</time>
      </trkpt>
      <trkpt lat="43.62724" lon="6.81481">
        <ele>189.997681</ele>
        <time>2012-05-17T09:03:06Z</time>
      </trkpt>
      <trkpt lat="43.62722" lon="6.81488">
        <ele>189.516968</ele>
        <time>2012-05-17T09:03:20Z</time>
      </trkpt>
      <trkpt lat="43.62722" lon="6.81489">
        <ele>191.920288</ele>
        <time>2012-05-17T09:03:37Z</time>
      </trkpt>
      <trkpt lat="43.62719" lon="6.81491">
        <ele>192.881714</ele>
        <time>2012-05-17T09:04:02Z</time>
      </trkpt>
      <trkpt lat="43.62718" lon="6.81489">
        <ele>190.478394</ele>
        <time>2012-05-17T09:04:21Z</time>
      </trkpt>
      <trkpt lat="43.6272" lon="6.81489">
        <ele>190.958984</ele>
        <time>2012-05-17T09:04:32Z</time>
      </trkpt>
      <trkpt lat="43.62721" lon="6.81489">
        <ele>191.439575</ele>
        <time>2012-05-17T09:04:41Z</time>
      </trkpt>
      <trkpt lat="43.62721" lon="6.81488">
        <ele>189.997681</ele>
        <time>2012-05-17T09:05:04Z</time>
      </trkpt>
      <trkpt lat="43.62722" lon="6.81486">
        <ele>188.555786</ele>
        <time>2012-05-17T09:05:23Z</time>
      </trkpt>
      <trkpt lat="43.62722" lon="6.81486">
        <ele>187.59436</ele>
        <time>2012-05-17T09:05:27Z</time>
      </trkpt>
      <trkpt lat="43.62711" lon="6.81491">
        <ele>185.191162</ele>
        <time>2012-05-17T09:05:32Z</time>
      </trkpt>
      <trkpt lat="43.62696" lon="6.81503">
        <ele>178.461914</ele>
        <time>2012-05-17T09:05:37Z</time>
      </trkpt>
      <trkpt lat="43.62682" lon="6.81523">
        <ele>173.655273</ele>
        <time>2012-05-17T09:05:40Z</time>
      </trkpt>
      <trkpt lat="43.6267" lon="6.81541">
        <ele>167.887329</ele>
        <time>2012-05-17T09:05:44Z</time>
      </trkpt>
      <trkpt lat="43.62665" lon="6.81551">
        <ele>165.484131</ele>
        <time>2012-05-17T09:05:46Z</time>
      </trkpt>
      <trkpt lat="43.62657" lon="6.81583">
        <ele>170.290649</ele>
        <time>2012-05-17T09:05:50Z</time>
      </trkpt>
      <trkpt lat="43.62653" lon="6.8159">
        <ele>170.771362</ele>
        <time>2012-05-17T09:05:51Z</time>
      </trkpt>
      <trkpt lat="43.62649" lon="6.81604">
        <ele>170.771362</ele>
        <time>2012-05-17T09:05:53Z</time>
      </trkpt>
      <trkpt lat="43.62645" lon="6.81618">
        <ele>169.329468</ele>
        <time>2012-05-17T09:05:55Z</time>
      </trkpt>
      <trkpt lat="43.62631" lon="6.81645">
        <ele>163.561523</ele>
        <time>2012-05-17T09:06:00Z</time>
      </trkpt>
      <trkpt lat="43.62622" lon="6.81667">
        <ele>158.754761</ele>
        <time>2012-05-17T09:06:05Z</time>
      </trkpt>
      <trkpt lat="43.62621" lon="6.8168">
        <ele>156.351562</ele>
        <time>2012-05-17T09:06:07Z</time>
      </trkpt>
      <trkpt lat="43.62628" lon="6.81692">
        <ele>153.948364</ele>
        <time>2012-05-17T09:06:12Z</time>
      </trkpt>
      <trkpt lat="43.62637" lon="6.81695">
        <ele>150.583618</ele>
        <time>2012-05-17T09:06:15Z</time>
      </trkpt>
      <trkpt lat="43.62639" lon="6.81702">
        <ele>147.218994</ele>
        <time>2012-05-17T09:06:18Z</time>
      </trkpt>
      <trkpt lat="43.6265" lon="6.81711">
        <ele>142.412476</ele>
        <time>2012-05-17T09:06:22Z</time>
      </trkpt>
      <trkpt lat="43.62653" lon="6.81708">
        <ele>140.970459</ele>
        <time>2012-05-17T09:06:23Z</time>
      </trkpt>
      <trkpt lat="43.62669" lon="6.81708">
        <ele>134.241211</ele>
        <time>2012-05-17T09:06:28Z</time>
      </trkpt>
      <trkpt lat="43.62679" lon="6.81732">
        <ele>128.473389</ele>
        <time>2012-05-17T09:06:33Z</time>
      </trkpt>
      <trkpt lat="43.62683" lon="6.81735">
        <ele>127.511963</ele>
        <time>2012-05-17T09:06:35Z</time>
      </trkpt>
      <trkpt lat="43.62695" lon="6.81726">
        <ele>123.186157</ele>
        <time>2012-05-17T09:06:39Z</time>
      </trkpt>
      <trkpt lat="43.62709" lon="6.81729">
        <ele>117.898804</ele>
        <time>2012-05-17T09:06:43Z</time>
      </trkpt>
      <trkpt lat="43.62705" lon="6.81752">
        <ele>110.688843</ele>
        <time>2012-05-17T09:06:47Z</time>
      </trkpt>
      <trkpt lat="43.627" lon="6.81766">
        <ele>107.805054</ele>
        <time>2012-05-17T09:06:49Z</time>
      </trkpt>
      <trkpt lat="43.62685" lon="6.81791">
        <ele>105.401733</ele>
        <time>2012-05-17T09:06:54Z</time>
      </trkpt>
      <trkpt lat="43.62699" lon="6.81795">
        <ele>98.1918945</ele>
        <time>2012-05-17T09:06:58Z</time>
      </trkpt>
      <trkpt lat="43.62702" lon="6.81803">
        <ele>97.2304688</ele>
        <time>2012-05-17T09:07:01Z</time>
      </trkpt>
      <trkpt lat="43.627" lon="6.81806">
        <ele>102.5177</ele>
        <time>2012-05-17T09:07:07Z</time>
      </trkpt>
      <trkpt lat="43.62699" lon="6.81809">
        <ele>107.805054</ele>
        <time>2012-05-17T09:07:15Z</time>
      </trkpt>
      <trkpt lat="43.62697" lon="6.81808">
        <ele>111.169556</ele>
        <time>2012-05-17T09:07:22Z</time>
      </trkpt>
      <trkpt lat="43.62698" lon="6.81807">
        <ele>111.650269</ele>
        <time>2012-05-17T09:07:28Z</time>
      </trkpt>
      <trkpt lat="43.62701" lon="6.81802">
        <ele>113.092285</ele>
        <time>2012-05-17T09:07:34Z</time>
      </trkpt>
      <trkpt lat="43.62702" lon="6.81802">
        <ele>114.053589</ele>
        <time>2012-05-17T09:07:40Z</time>
      </trkpt>
      <trkpt lat="43.62702" lon="6.81803">
        <ele>114.053589</ele>
        <time>2012-05-17T09:07:46Z</time>
      </trkpt>
      <trkpt lat="43.62702" lon="6.81804">
        <ele>113.092285</ele>
        <time>2012-05-17T09:07:52Z</time>
      </trkpt>
      <trkpt lat="43.62699" lon="6.81807">
        <ele>110.688843</ele>
        <time>2012-05-17T09:08:06Z</time>
      </trkpt>
      <trkpt lat="43.62699" lon="6.81807">
        <ele>110.688843</ele>
        <time>2012-05-17T09:08:11Z</time>
      </trkpt>
      <trkpt lat="43.62696" lon="6.81812">
        <ele>107.805054</ele>
        <time>2012-05-17T09:08:17Z</time>
      </trkpt>
      <trkpt lat="43.62693" lon="6.81816">
        <ele>102.5177</ele>
        <time>2012-05-17T09:08:25Z</time>
      </trkpt>
      <trkpt lat="43.62694" lon="6.81815">
        <ele>104.44043</ele>
        <time>2012-05-17T09:08:33Z</time>
      </trkpt>
      <trkpt lat="43.62697" lon="6.8181">
        <ele>108.285645</ele>
        <time>2012-05-17T09:08:48Z</time>
      </trkpt>
      <trkpt lat="43.62702" lon="6.81808">
        <ele>108.766235</ele>
        <time>2012-05-17T09:09:02Z</time>
      </trkpt>
      <trkpt lat="43.62702" lon="6.81807">
        <ele>109.727661</ele>
        <time>2012-05-17T09:09:10Z</time>
      </trkpt>
      <trkpt lat="43.62704" lon="6.81804">
        <ele>108.766235</ele>
        <time>2012-05-17T09:09:43Z</time>
      </trkpt>
      <trkpt lat="43.62706" lon="6.81804">
        <ele>105.882446</ele>
        <time>2012-05-17T09:10:03Z</time>
      </trkpt>
      <trkpt lat="43.62705" lon="6.81803">
        <ele>107.324341</ele>
        <time>2012-05-17T09:10:15Z</time>
      </trkpt>
      <trkpt lat="43.62706" lon="6.81803">
        <ele>110.208252</ele>
        <time>2012-05-17T09:10:24Z</time>
      </trkpt>
      <trkpt lat="43.62707" lon="6.81804">
        <ele>113.572998</ele>
        <time>2012-05-17T09:10:32Z</time>
      </trkpt>
      <trkpt lat="43.62708" lon="6.81803">
        <ele>115.976196</ele>
        <time>2012-05-17T09:10:54Z</time>
      </trkpt>
      <trkpt lat="43.62706" lon="6.81803">
        <ele>114.053589</ele>
        <time>2012-05-17T09:11:03Z</time>
      </trkpt>
      <trkpt lat="43.62705" lon="6.81804">
        <ele>110.208252</ele>
        <time>2012-05-17T09:11:14Z</time>
      </trkpt>
      <trkpt lat="43.62705" lon="6.81804">
        <ele>109.246948</ele>
        <time>2012-05-17T09:11:20Z</time>
      </trkpt>
      <trkpt lat="43.62706" lon="6.81803">
        <ele>113.092285</ele>
        <time>2012-05-17T09:11:39Z</time>
      </trkpt>
      <trkpt lat="43.62706" lon="6.81804">
        <ele>114.053589</ele>
        <time>2012-05-17T09:11:52Z</time>
      </trkpt>
      <trkpt lat="43.62704" lon="6.81807">
        <ele>106.843628</ele>
        <time>2012-05-17T09:12:08Z</time>
      </trkpt>
      <trkpt lat="43.62705" lon="6.81805">
        <ele>106.843628</ele>
        <time>2012-05-17T09:12:18Z</time>
      </trkpt>
      <trkpt lat="43.62708" lon="6.81804">
        <ele>108.285645</ele>
        <time>2012-05-17T09:12:34Z</time>
      </trkpt>
      <trkpt lat="43.62709" lon="6.81805">
        <ele>109.727661</ele>
        <time>2012-05-17T09:12:43Z</time>
      </trkpt>
      <trkpt lat="43.62709" lon="6.81803">
        <ele>109.246948</ele>
        <time>2012-05-17T09:12:59Z</time>
      </trkpt>
      <trkpt lat="43.62713" lon="6.81801">
        <ele>114.53418</ele>
        <time>2012-05-17T09:13:19Z</time>
      </trkpt>
      <trkpt lat="43.62709" lon="6.81802">
        <ele>109.246948</ele>
        <time>2012-05-17T09:13:59Z</time>
      </trkpt>
      <trkpt lat="43.62702" lon="6.81802">
        <ele>129.434692</ele>
        <time>2012-05-17T09:14:19Z</time>
      </trkpt>
      <trkpt lat="43.62706" lon="6.81801">
        <ele>128.954102</ele>
        <time>2012-05-17T09:14:34Z</time>
      </trkpt>
      <trkpt lat="43.62706" lon="6.81801">
        <ele>117.418213</ele>
        <time>2012-05-17T09:14:42Z</time>
      </trkpt>
      <trkpt lat="43.62705" lon="6.81804">
        <ele>107.805054</ele>
        <time>2012-05-17T09:14:51Z</time>
      </trkpt>
      <trkpt lat="43.62704" lon="6.81804">
        <ele>109.727661</ele>
        <time>2012-05-17T09:15:15Z</time>
      </trkpt>
      <trkpt lat="43.62703" lon="6.81804">
        <ele>110.208252</ele>
        <time>2012-05-17T09:15:39Z</time>
      </trkpt>
      <trkpt lat="43.62704" lon="6.81799">
        <ele>115.976196</ele>
        <time>2012-05-17T09:15:48Z</time>
      </trkpt>
      <trkpt lat="43.62706" lon="6.818">
        <ele>116.9375</ele>
        <time>2012-05-17T09:15:55Z</time>
      </trkpt>
      <trkpt lat="43.62705" lon="6.81808">
        <ele>101.556396</ele>
        <time>2012-05-17T09:16:16Z</time>
      </trkpt>
      <trkpt lat="43.62704" lon="6.81805">
        <ele>115.976196</ele>
        <time>2012-05-17T09:18:33Z</time>
      </trkpt>
      <trkpt lat="43.62704" lon="6.81806">
        <ele>117.418213</ele>
        <time>2012-05-17T09:18:42Z</time>
      </trkpt>
      <trkpt lat="43.62703" lon="6.81809">
        <ele>116.456787</ele>
        <time>2012-05-17T09:18:47Z</time>
      </trkpt>
      <trkpt lat="43.62694" lon="6.81819">
        <ele>116.456787</ele>
        <time>2012-05-17T09:18:53Z</time>
      </trkpt>
      <trkpt lat="43.62692" lon="6.81822">
        <ele>116.456787</ele>
        <time>2012-05-17T09:18:54Z</time>
      </trkpt>
      <trkpt lat="43.6268" lon="6.81835">
        <ele>115.495605</ele>
        <time>2012-05-17T09:19:00Z</time>
      </trkpt>
      <trkpt lat="43.62666" lon="6.81853">
        <ele>115.014893</ele>
        <time>2012-05-17T09:19:06Z</time>
      </trkpt>
      <trkpt lat="43.62644" lon="6.81873">
        <ele>116.456787</ele>
        <time>2012-05-17T09:19:14Z</time>
      </trkpt>
      <trkpt lat="43.62623" lon="6.81888">
        <ele>116.9375</ele>
        <time>2012-05-17T09:19:21Z</time>
      </trkpt>
      <trkpt lat="43.62606" lon="6.81907">
        <ele>118.379395</ele>
        <time>2012-05-17T09:19:27Z</time>
      </trkpt>
      <trkpt lat="43.62595" lon="6.81927">
        <ele>118.379395</ele>
        <time>2012-05-17T09:19:32Z</time>
      </trkpt>
      <trkpt lat="43.62584" lon="6.81961">
        <ele>115.495605</ele>
        <time>2012-05-17T09:19:39Z</time>
      </trkpt>
      <trkpt lat="43.62575" lon="6.81991">
        <ele>115.014893</ele>
        <time>2012-05-17T09:19:46Z</time>
      </trkpt>
      <trkpt lat="43.62565" lon="6.82019">
        <ele>115.014893</ele>
        <time>2012-05-17T09:19:53Z</time>
      </trkpt>
      <trkpt lat="43.62552" lon="6.82038">
        <ele>115.014893</ele>
        <time>2012-05-17T09:19:59Z</time>
      </trkpt>
      <trkpt lat="43.62534" lon="6.82052">
        <ele>118.379395</ele>
        <time>2012-05-17T09:20:05Z</time>
      </trkpt>
      <trkpt lat="43.62512" lon="6.82066">
        <ele>120.302124</ele>
        <time>2012-05-17T09:20:11Z</time>
      </trkpt>
      <trkpt lat="43.62491" lon="6.82082">
        <ele>120.782837</ele>
        <time>2012-05-17T09:20:17Z</time>
      </trkpt>
      <trkpt lat="43.62474" lon="6.82109">
        <ele>121.26355</ele>
        <time>2012-05-17T09:20:23Z</time>
      </trkpt>
      <trkpt lat="43.62472" lon="6.82114">
        <ele>120.302124</ele>
        <time>2012-05-17T09:20:24Z</time>
      </trkpt>
      <trkpt lat="43.62469" lon="6.82125">
        <ele>120.782837</ele>
        <time>2012-05-17T09:20:26Z</time>
      </trkpt>
      <trkpt lat="43.62452" lon="6.82158">
        <ele>122.705444</ele>
        <time>2012-05-17T09:20:33Z</time>
      </trkpt>
      <trkpt lat="43.6245" lon="6.82163">
        <ele>123.186157</ele>
        <time>2012-05-17T09:20:34Z</time>
      </trkpt>
      <trkpt lat="43.62444" lon="6.82184">
        <ele>124.147339</ele>
        <time>2012-05-17T09:20:38Z</time>
      </trkpt>
      <trkpt lat="43.62427" lon="6.82205">
        <ele>126.069946</ele>
        <time>2012-05-17T09:20:44Z</time>
      </trkpt>
      <trkpt lat="43.62423" lon="6.82206">
        <ele>126.550659</ele>
        <time>2012-05-17T09:20:45Z</time>
      </trkpt>
      <trkpt lat="43.62404" lon="6.82204">
        <ele>128.954102</ele>
        <time>2012-05-17T09:20:51Z</time>
      </trkpt>
      <trkpt lat="43.62399" lon="6.82206">
        <ele>130.876709</ele>
        <time>2012-05-17T09:20:52Z</time>
      </trkpt>
      <trkpt lat="43.6239" lon="6.822">
        <ele>129.434692</ele>
        <time>2012-05-17T09:20:55Z</time>
      </trkpt>
      <trkpt lat="43.62375" lon="6.82213">
        <ele>132.318604</ele>
        <time>2012-05-17T09:21:00Z</time>
      </trkpt>
      <trkpt lat="43.62348" lon="6.82244">
        <ele>136.644653</ele>
        <time>2012-05-17T09:21:09Z</time>
      </trkpt>
      <trkpt lat="43.6233" lon="6.82262">
        <ele>136.16394</ele>
        <time>2012-05-17T09:21:15Z</time>
      </trkpt>
      <trkpt lat="43.62302" lon="6.82283">
        <ele>135.683105</ele>
        <time>2012-05-17T09:21:23Z</time>
      </trkpt>
      <trkpt lat="43.6228" lon="6.82297">
        <ele>136.16394</ele>
        <time>2012-05-17T09:21:29Z</time>
      </trkpt>
      <trkpt lat="43.62272" lon="6.82302">
        <ele>136.644653</ele>
        <time>2012-05-17T09:21:31Z</time>
      </trkpt>
      <trkpt lat="43.62245" lon="6.82322">
        <ele>137.125244</ele>
        <time>2012-05-17T09:21:39Z</time>
      </trkpt>
      <trkpt lat="43.62223" lon="6.82343">
        <ele>137.125244</ele>
        <time>2012-05-17T09:21:46Z</time>
      </trkpt>
      <trkpt lat="43.62196" lon="6.82369">
        <ele>139.528442</ele>
        <time>2012-05-17T09:21:54Z</time>
      </trkpt>
      <trkpt lat="43.62192" lon="6.82372">
        <ele>139.528442</ele>
        <time>2012-05-17T09:21:55Z</time>
      </trkpt>
      <trkpt lat="43.62155" lon="6.82392">
        <ele>141.45105</ele>
        <time>2012-05-17T09:22:05Z</time>
      </trkpt>
      <trkpt lat="43.6213" lon="6.82404">
        <ele>142.412476</ele>
        <time>2012-05-17T09:22:12Z</time>
      </trkpt>
      <trkpt lat="43.62107" lon="6.8241">
        <ele>141.45105</ele>
        <time>2012-05-17T09:22:18Z</time>
      </trkpt>
      <trkpt lat="43.62084" lon="6.82413">
        <ele>141.45105</ele>
        <time>2012-05-17T09:22:24Z</time>
      </trkpt>
      <trkpt lat="43.62057" lon="6.82414">
        <ele>142.412476</ele>
        <time>2012-05-17T09:22:31Z</time>
      </trkpt>
      <trkpt lat="43.62027" lon="6.82408">
        <ele>142.893066</ele>
        <time>2012-05-17T09:22:39Z</time>
      </trkpt>
      <trkpt lat="43.62001" lon="6.82393">
        <ele>144.335205</ele>
        <time>2012-05-17T09:22:47Z</time>
      </trkpt>
      <trkpt lat="43.61973" lon="6.8238">
        <ele>146.257812</ele>
        <time>2012-05-17T09:22:55Z</time>
      </trkpt>
      <trkpt lat="43.61945" lon="6.82377">
        <ele>148.661011</ele>
        <time>2012-05-17T09:23:03Z</time>
      </trkpt>
      <trkpt lat="43.61911" lon="6.82373">
        <ele>149.622314</ele>
        <time>2012-05-17T09:23:12Z</time>
      </trkpt>
      <trkpt lat="43.61894" lon="6.82367">
        <ele>150.103027</ele>
        <time>2012-05-17T09:23:17Z</time>
      </trkpt>
      <trkpt lat="43.61874" lon="6.8236">
        <ele>151.064209</ele>
        <time>2012-05-17T09:23:22Z</time>
      </trkpt>
      <trkpt lat="43.61859" lon="6.82351">
        <ele>151.064209</ele>
        <time>2012-05-17T09:23:27Z</time>
      </trkpt>
      <trkpt lat="43.61848" lon="6.82344">
        <ele>151.064209</ele>
        <time>2012-05-17T09:23:32Z</time>
      </trkpt>
      <trkpt lat="43.61832" lon="6.82333">
        <ele>150.583618</ele>
        <time>2012-05-17T09:23:40Z</time>
      </trkpt>
      <trkpt lat="43.61827" lon="6.8233">
        <ele>151.544922</ele>
        <time>2012-05-17T09:23:43Z</time>
      </trkpt>
      <trkpt lat="43.61826" lon="6.82335">
        <ele>152.025757</ele>
        <time>2012-05-17T09:23:48Z</time>
      </trkpt>
      <trkpt lat="43.61829" lon="6.82337">
        <ele>151.544922</ele>
        <time>2012-05-17T09:23:50Z</time>
      </trkpt>
      <trkpt lat="43.61841" lon="6.82351">
        <ele>149.622314</ele>
        <time>2012-05-17T09:23:55Z</time>
      </trkpt>
      <trkpt lat="43.61852" lon="6.82363">
        <ele>148.18042</ele>
        <time>2012-05-17T09:23:59Z</time>
      </trkpt>
      <trkpt lat="43.61854" lon="6.82367">
        <ele>148.18042</ele>
        <time>2012-05-17T09:24:03Z</time>
      </trkpt>
      <trkpt lat="43.61855" lon="6.82368">
        <ele>148.661011</ele>
        <time>2012-05-17T09:24:11Z</time>
      </trkpt>
      <trkpt lat="43.61854" lon="6.8237">
        <ele>150.583618</ele>
        <time>2012-05-17T09:24:34Z</time>
      </trkpt>
      <trkpt lat="43.61855" lon="6.8237">
        <ele>149.622314</ele>
        <time>2012-05-17T09:24:43Z</time>
      </trkpt>
      <trkpt lat="43.61856" lon="6.82367">
        <ele>148.18042</ele>
        <time>2012-05-17T09:24:56Z</time>
      </trkpt>
      <trkpt lat="43.61857" lon="6.82367">
        <ele>150.103027</ele>
        <time>2012-05-17T09:25:29Z</time>
      </trkpt>
      <trkpt lat="43.61856" lon="6.82369">
        <ele>147.218994</ele>
        <time>2012-05-17T09:25:45Z</time>
      </trkpt>
      <trkpt lat="43.61855" lon="6.82369">
        <ele>148.661011</ele>
        <time>2012-05-17T09:26:05Z</time>
      </trkpt>
      <trkpt lat="43.61854" lon="6.82367">
        <ele>149.622314</ele>
        <time>2012-05-17T09:26:10Z</time>
      </trkpt>
      <trkpt lat="43.61854" lon="6.82367">
        <ele>150.103027</ele>
        <time>2012-05-17T09:26:15Z</time>
      </trkpt>
      <trkpt lat="43.61858" lon="6.82367">
        <ele>153.948364</ele>
        <time>2012-05-17T09:27:01Z</time>
      </trkpt>
      <trkpt lat="43.61861" lon="6.82373">
        <ele>152.506348</ele>
        <time>2012-05-17T09:27:07Z</time>
      </trkpt>
      <trkpt lat="43.61875" lon="6.82383">
        <ele>150.103027</ele>
        <time>2012-05-17T09:27:11Z</time>
      </trkpt>
      <trkpt lat="43.61896" lon="6.824">
        <ele>146.738403</ele>
        <time>2012-05-17T09:27:15Z</time>
      </trkpt>
      <trkpt lat="43.61914" lon="6.82416">
        <ele>143.85437</ele>
        <time>2012-05-17T09:27:18Z</time>
      </trkpt>
      <trkpt lat="43.61932" lon="6.82418">
        <ele>141.45105</ele>
        <time>2012-05-17T09:27:21Z</time>
      </trkpt>
      <trkpt lat="43.61942" lon="6.82418">
        <ele>140.009155</ele>
        <time>2012-05-17T09:27:23Z</time>
      </trkpt>
      <trkpt lat="43.61962" lon="6.82424">
        <ele>137.125244</ele>
        <time>2012-05-17T09:27:27Z</time>
      </trkpt>
      <trkpt lat="43.61984" lon="6.82439">
        <ele>134.241211</ele>
        <time>2012-05-17T09:27:30Z</time>
      </trkpt>
      <trkpt lat="43.62033" lon="6.82474">
        <ele>127.992554</ele>
        <time>2012-05-17T09:27:36Z</time>
      </trkpt>
      <trkpt lat="43.62065" lon="6.8249">
        <ele>123.186157</ele>
        <time>2012-05-17T09:27:40Z</time>
      </trkpt>
      <trkpt lat="43.62084" lon="6.82498">
        <ele>120.782837</ele>
        <time>2012-05-17T09:27:43Z</time>
      </trkpt>
      <trkpt lat="43.62098" lon="6.82502">
        <ele>118.860107</ele>
        <time>2012-05-17T09:27:46Z</time>
      </trkpt>
      <trkpt lat="43.62127" lon="6.82508">
        <ele>115.495605</ele>
        <time>2012-05-17T09:27:52Z</time>
      </trkpt>
      <trkpt lat="43.62133" lon="6.82507">
        <ele>114.053589</ele>
        <time>2012-05-17T09:27:53Z</time>
      </trkpt>
      <trkpt lat="43.62162" lon="6.825">
        <ele>110.208252</ele>
        <time>2012-05-17T09:27:58Z</time>
      </trkpt>
      <trkpt lat="43.62184" lon="6.82497">
        <ele>107.324341</ele>
        <time>2012-05-17T09:28:02Z</time>
      </trkpt>
      <trkpt lat="43.62197" lon="6.82503">
        <ele>104.921021</ele>
        <time>2012-05-17T09:28:06Z</time>
      </trkpt>
      <trkpt lat="43.62195" lon="6.82507">
        <ele>103.479004</ele>
        <time>2012-05-17T09:28:12Z</time>
      </trkpt>
      <trkpt lat="43.62188" lon="6.82521">
        <ele>100.114502</ele>
        <time>2012-05-17T09:28:17Z</time>
      </trkpt>
      <trkpt lat="43.62178" lon="6.82538">
        <ele>97.2304688</ele>
        <time>2012-05-17T09:28:21Z</time>
      </trkpt>
      <trkpt lat="43.62166" lon="6.82559">
        <ele>93.8658447</ele>
        <time>2012-05-17T09:28:25Z</time>
      </trkpt>
      <trkpt lat="43.62154" lon="6.8257">
        <ele>91.4625244</ele>
        <time>2012-05-17T09:28:28Z</time>
      </trkpt>
      <trkpt lat="43.62139" lon="6.82581">
        <ele>89.0593262</ele>
        <time>2012-05-17T09:28:31Z</time>
      </trkpt>
      <trkpt lat="43.62124" lon="6.82595">
        <ele>87.1365967</ele>
        <time>2012-05-17T09:28:34Z</time>
      </trkpt>
      <trkpt lat="43.62121" lon="6.82622">
        <ele>82.3300781</ele>
        <time>2012-05-17T09:28:38Z</time>
      </trkpt>
      <trkpt lat="43.62129" lon="6.82636">
        <ele>80.4074707</ele>
        <time>2012-05-17T09:28:40Z</time>
      </trkpt>
      <trkpt lat="43.62151" lon="6.82669">
        <ele>78.0040283</ele>
        <time>2012-05-17T09:28:45Z</time>
      </trkpt>
      <trkpt lat="43.62156" lon="6.82699">
        <ele>76.0814209</ele>
        <time>2012-05-17T09:28:50Z</time>
      </trkpt>
      <trkpt lat="43.62152" lon="6.82713">
        <ele>74.6395264</ele>
        <time>2012-05-17T09:28:52Z</time>
      </trkpt>
      <trkpt lat="43.62148" lon="6.82727">
        <ele>74.6395264</ele>
        <time>2012-05-17T09:28:54Z</time>
      </trkpt>
      <trkpt lat="43.6214" lon="6.8275">
        <ele>73.6782227</ele>
        <time>2012-05-17T09:28:57Z</time>
      </trkpt>
      <trkpt lat="43.62136" lon="6.82773">
        <ele>72.2362061</ele>
        <time>2012-05-17T09:29:00Z</time>
      </trkpt>
      <trkpt lat="43.62134" lon="6.82802">
        <ele>80.4074707</ele>
        <time>2012-05-17T09:29:04Z</time>
      </trkpt>
      <trkpt lat="43.62129" lon="6.82829">
        <ele>80.4074707</ele>
        <time>2012-05-17T09:29:08Z</time>
      </trkpt>
      <trkpt lat="43.62127" lon="6.8284">
        <ele>80.8881836</ele>
        <time>2012-05-17T09:29:10Z</time>
      </trkpt>
      <trkpt lat="43.62126" lon="6.82874">
        <ele>86.175293</ele>
        <time>2012-05-17T09:29:16Z</time>
      </trkpt>
      <trkpt lat="43.62138" lon="6.82904">
        <ele>83.7719727</ele>
        <time>2012-05-17T09:29:23Z</time>
      </trkpt>
      <trkpt lat="43.62155" lon="6.82933">
        <ele>84.7333984</ele>
        <time>2012-05-17T09:29:29Z</time>
      </trkpt>
      <trkpt lat="43.62158" lon="6.82938">
        <ele>84.7333984</ele>
        <time>2012-05-17T09:29:30Z</time>
      </trkpt>
      <trkpt lat="43.62173" lon="6.82969">
        <ele>84.7333984</ele>
        <time>2012-05-17T09:29:36Z</time>
      </trkpt>
      <trkpt lat="43.62179" lon="6.82989">
        <ele>84.7333984</ele>
        <time>2012-05-17T09:29:41Z</time>
      </trkpt>
      <trkpt lat="43.62179" lon="6.82992">
        <ele>84.7333984</ele>
        <time>2012-05-17T09:29:46Z</time>
      </trkpt>
      <trkpt lat="43.62179" lon="6.82991">
        <ele>85.6945801</ele>
        <time>2012-05-17T09:29:49Z</time>
      </trkpt>
      <trkpt lat="43.62178" lon="6.82989">
        <ele>88.0980225</ele>
        <time>2012-05-17T09:30:04Z</time>
      </trkpt>
      <trkpt lat="43.62178" lon="6.82989">
        <ele>88.0980225</ele>
        <time>2012-05-17T09:30:09Z</time>
      </trkpt>
      <trkpt lat="43.62175" lon="6.8299">
        <ele>89.0593262</ele>
        <time>2012-05-17T09:30:13Z</time>
      </trkpt>
      <trkpt lat="43.62174" lon="6.8299">
        <ele>88.0980225</ele>
        <time>2012-05-17T09:30:21Z</time>
      </trkpt>
      <trkpt lat="43.62177" lon="6.82988">
        <ele>86.6560059</ele>
        <time>2012-05-17T09:30:38Z</time>
      </trkpt>
      <trkpt lat="43.62178" lon="6.82988">
        <ele>86.175293</ele>
        <time>2012-05-17T09:30:45Z</time>
      </trkpt>
      <trkpt lat="43.62176" lon="6.82988">
        <ele>87.6171875</ele>
        <time>2012-05-17T09:30:50Z</time>
      </trkpt>
      <trkpt lat="43.62177" lon="6.82987">
        <ele>88.5787354</ele>
        <time>2012-05-17T09:30:55Z</time>
      </trkpt>
      <trkpt lat="43.62176" lon="6.82986">
        <ele>88.5787354</ele>
        <time>2012-05-17T09:31:08Z</time>
      </trkpt>
      <trkpt lat="43.62178" lon="6.82987">
        <ele>88.5787354</ele>
        <time>2012-05-17T09:31:13Z</time>
      </trkpt>
      <trkpt lat="43.62178" lon="6.82987">
        <ele>88.5787354</ele>
        <time>2012-05-17T09:31:21Z</time>
      </trkpt>
      <trkpt lat="43.62178" lon="6.82987">
        <ele>88.5787354</ele>
        <time>2012-05-17T09:31:30Z</time>
      </trkpt>
      <trkpt lat="43.62178" lon="6.82986">
        <ele>88.5787354</ele>
        <time>2012-05-17T09:31:43Z</time>
      </trkpt>
      <trkpt lat="43.62179" lon="6.82986">
        <ele>86.6560059</ele>
        <time>2012-05-17T09:32:00Z</time>
      </trkpt>
      <trkpt lat="43.6218" lon="6.82986">
        <ele>87.1365967</ele>
        <time>2012-05-17T09:32:11Z</time>
      </trkpt>
      <trkpt lat="43.6218" lon="6.82986">
        <ele>86.6560059</ele>
        <time>2012-05-17T09:32:17Z</time>
      </trkpt>
      <trkpt lat="43.62179" lon="6.82986">
        <ele>86.175293</ele>
        <time>2012-05-17T09:32:23Z</time>
      </trkpt>
      <trkpt lat="43.62179" lon="6.82986">
        <ele>88.0980225</ele>
        <time>2012-05-17T09:32:42Z</time>
      </trkpt>
      <trkpt lat="43.6218" lon="6.82987">
        <ele>87.1365967</ele>
        <time>2012-05-17T09:32:50Z</time>
      </trkpt>
      <trkpt lat="43.6218" lon="6.82986">
        <ele>87.6171875</ele>
        <time>2012-05-17T09:33:00Z</time>
      </trkpt>
      <trkpt lat="43.62178" lon="6.82986">
        <ele>91.9432373</ele>
        <time>2012-05-17T09:33:28Z</time>
      </trkpt>
      <trkpt lat="43.62178" lon="6.82986">
        <ele>92.4239502</ele>
        <time>2012-05-17T09:33:44Z</time>
      </trkpt>
      <trkpt lat="43.62177" lon="6.82986">
        <ele>91.4625244</ele>
        <time>2012-05-17T09:33:50Z</time>
      </trkpt>
      <trkpt lat="43.62176" lon="6.82987">
        <ele>88.0980225</ele>
        <time>2012-05-17T09:34:21Z</time>
      </trkpt>
      <trkpt lat="43.62176" lon="6.82987">
        <ele>89.0593262</ele>
        <time>2012-05-17T09:34:32Z</time>
      </trkpt>
      <trkpt lat="43.62178" lon="6.82987">
        <ele>88.5787354</ele>
        <time>2012-05-17T09:34:40Z</time>
      </trkpt>
      <trkpt lat="43.62178" lon="6.82987">
        <ele>88.0980225</ele>
        <time>2012-05-17T09:34:46Z</time>
      </trkpt>
      <trkpt lat="43.62178" lon="6.82986">
        <ele>87.6171875</ele>
        <time>2012-05-17T09:34:51Z</time>
      </trkpt>
      <trkpt lat="43.62178" lon="6.82986">
        <ele>87.6171875</ele>
        <time>2012-05-17T09:34:58Z</time>
      </trkpt>
      <trkpt lat="43.62178" lon="6.82986">
        <ele>87.6171875</ele>
        <time>2012-05-17T09:35:03Z</time>
      </trkpt>
      <trkpt lat="43.62176" lon="6.82986">
        <ele>88.5787354</ele>
        <time>2012-05-17T09:35:18Z</time>
      </trkpt>
      <trkpt lat="43.62175" lon="6.82985">
        <ele>89.539917</ele>
        <time>2012-05-17T09:35:37Z</time>
      </trkpt>
      <trkpt lat="43.62175" lon="6.82986">
        <ele>89.0593262</ele>
        <time>2012-05-17T09:35:45Z</time>
      </trkpt>
      <trkpt lat="43.62176" lon="6.82987">
        <ele>88.0980225</ele>
        <time>2012-05-17T09:35:58Z</time>
      </trkpt>
      <trkpt lat="43.62176" lon="6.82988">
        <ele>89.0593262</ele>
        <time>2012-05-17T09:36:09Z</time>
      </trkpt>
      <trkpt lat="43.62176" lon="6.82988">
        <ele>90.5013428</ele>
        <time>2012-05-17T09:36:21Z</time>
      </trkpt>
      <trkpt lat="43.62176" lon="6.82988">
        <ele>90.9819336</ele>
        <time>2012-05-17T09:36:28Z</time>
      </trkpt>
      <trkpt lat="43.62175" lon="6.82985">
        <ele>94.8271484</ele>
        <time>2012-05-17T09:36:42Z</time>
      </trkpt>
      <trkpt lat="43.62176" lon="6.82986">
        <ele>92.904541</ele>
        <time>2012-05-17T09:36:53Z</time>
      </trkpt>
      <trkpt lat="43.62177" lon="6.82986">
        <ele>89.539917</ele>
        <time>2012-05-17T09:37:12Z</time>
      </trkpt>
      <trkpt lat="43.6218" lon="6.82986">
        <ele>85.2139893</ele>
        <time>2012-05-17T09:37:28Z</time>
      </trkpt>
      <trkpt lat="43.6218" lon="6.82985">
        <ele>86.6560059</ele>
        <time>2012-05-17T09:37:35Z</time>
      </trkpt>
      <trkpt lat="43.6218" lon="6.82986">
        <ele>88.5787354</ele>
        <time>2012-05-17T09:37:42Z</time>
      </trkpt>
      <trkpt lat="43.62181" lon="6.82987">
        <ele>89.0593262</ele>
        <time>2012-05-17T09:37:54Z</time>
      </trkpt>
      <trkpt lat="43.6218" lon="6.82987">
        <ele>90.5013428</ele>
        <time>2012-05-17T09:38:02Z</time>
      </trkpt>
      <trkpt lat="43.62179" lon="6.82985">
        <ele>90.9819336</ele>
        <time>2012-05-17T09:38:05Z</time>
      </trkpt>
      <trkpt lat="43.62179" lon="6.82979">
        <ele>90.0206299</ele>
        <time>2012-05-17T09:38:11Z</time>
      </trkpt>
      <trkpt lat="43.62177" lon="6.82977">
        <ele>89.539917</ele>
        <time>2012-05-17T09:38:17Z</time>
      </trkpt>
      <trkpt lat="43.6217" lon="6.82958">
        <ele>88.0980225</ele>
        <time>2012-05-17T09:38:22Z</time>
      </trkpt>
      <trkpt lat="43.62154" lon="6.8293">
        <ele>87.1365967</ele>
        <time>2012-05-17T09:38:27Z</time>
      </trkpt>
      <trkpt lat="43.6214" lon="6.82908">
        <ele>85.6945801</ele>
        <time>2012-05-17T09:38:31Z</time>
      </trkpt>
      <trkpt lat="43.62128" lon="6.8288">
        <ele>84.7333984</ele>
        <time>2012-05-17T09:38:35Z</time>
      </trkpt>
      <trkpt lat="43.62124" lon="6.82864">
        <ele>84.7333984</ele>
        <time>2012-05-17T09:38:37Z</time>
      </trkpt>
      <trkpt lat="43.62129" lon="6.82814">
        <ele>82.810791</ele>
        <time>2012-05-17T09:38:42Z</time>
      </trkpt>
      <trkpt lat="43.62132" lon="6.82795">
        <ele>81.8493652</ele>
        <time>2012-05-17T09:38:44Z</time>
      </trkpt>
      <trkpt lat="43.62137" lon="6.82759">
        <ele>80.8881836</ele>
        <time>2012-05-17T09:38:48Z</time>
      </trkpt>
      <trkpt lat="43.62142" lon="6.82742">
        <ele>82.3300781</ele>
        <time>2012-05-17T09:38:50Z</time>
      </trkpt>
      <trkpt lat="43.6215" lon="6.82722">
        <ele>83.2913818</ele>
        <time>2012-05-17T09:38:54Z</time>
      </trkpt>
      <trkpt lat="43.62155" lon="6.82697">
        <ele>85.2139893</ele>
        <time>2012-05-17T09:39:00Z</time>
      </trkpt>
      <trkpt lat="43.62157" lon="6.82686">
        <ele>84.7333984</ele>
        <time>2012-05-17T09:39:03Z</time>
      </trkpt>
      <trkpt lat="43.62156" lon="6.82676">
        <ele>84.7333984</ele>
        <time>2012-05-17T09:39:06Z</time>
      </trkpt>
      <trkpt lat="43.62147" lon="6.82661">
        <ele>82.810791</ele>
        <time>2012-05-17T09:39:12Z</time>
      </trkpt>
      <trkpt lat="43.62137" lon="6.82646">
        <ele>83.7719727</ele>
        <time>2012-05-17T09:39:17Z</time>
      </trkpt>
      <trkpt lat="43.62124" lon="6.82628">
        <ele>84.2526855</ele>
        <time>2012-05-17T09:39:23Z</time>
      </trkpt>
      <trkpt lat="43.6212" lon="6.82619">
        <ele>84.7333984</ele>
        <time>2012-05-17T09:39:26Z</time>
      </trkpt>
      <trkpt lat="43.62123" lon="6.82602">
        <ele>85.6945801</ele>
        <time>2012-05-17T09:39:31Z</time>
      </trkpt>
      <trkpt lat="43.62131" lon="6.82591">
        <ele>87.6171875</ele>
        <time>2012-05-17T09:39:36Z</time>
      </trkpt>
      <trkpt lat="43.62134" lon="6.82586">
        <ele>88.5787354</ele>
        <time>2012-05-17T09:39:38Z</time>
      </trkpt>
      <trkpt lat="43.62145" lon="6.82581">
        <ele>90.9819336</ele>
        <time>2012-05-17T09:39:44Z</time>
      </trkpt>
      <trkpt lat="43.62154" lon="6.82573">
        <ele>93.3851318</ele>
        <time>2012-05-17T09:39:50Z</time>
      </trkpt>
      <trkpt lat="43.62157" lon="6.82571">
        <ele>93.8658447</ele>
        <time>2012-05-17T09:39:52Z</time>
      </trkpt>
      <trkpt lat="43.6216" lon="6.82569">
        <ele>95.3077393</ele>
        <time>2012-05-17T09:39:56Z</time>
      </trkpt>
      <trkpt lat="43.62167" lon="6.8256">
        <ele>95.7884521</ele>
        <time>2012-05-17T09:40:02Z</time>
      </trkpt>
      <trkpt lat="43.62168" lon="6.82558">
        <ele>96.2692871</ele>
        <time>2012-05-17T09:40:07Z</time>
      </trkpt>
      <trkpt lat="43.62168" lon="6.8256">
        <ele>98.1918945</ele>
        <time>2012-05-17T09:40:14Z</time>
      </trkpt>
      <trkpt lat="43.62166" lon="6.82559">
        <ele>101.075684</ele>
        <time>2012-05-17T09:40:27Z</time>
      </trkpt>
      <trkpt lat="43.62164" lon="6.82561">
        <ele>101.075684</ele>
        <time>2012-05-17T09:40:30Z</time>
      </trkpt>
      <trkpt lat="43.6216" lon="6.82564">
        <ele>101.075684</ele>
        <time>2012-05-17T09:40:37Z</time>
      </trkpt>
      <trkpt lat="43.62154" lon="6.82569">
        <ele>102.998291</ele>
        <time>2012-05-17T09:40:50Z</time>
      </trkpt>
      <trkpt lat="43.6214" lon="6.82583">
        <ele>101.075684</ele>
        <time>2012-05-17T09:40:55Z</time>
      </trkpt>
      <trkpt lat="43.62127" lon="6.82592">
        <ele>97.7111816</ele>
        <time>2012-05-17T09:40:59Z</time>
      </trkpt>
      <trkpt lat="43.62122" lon="6.826">
        <ele>96.7498779</ele>
        <time>2012-05-17T09:41:01Z</time>
      </trkpt>
      <trkpt lat="43.62123" lon="6.82623">
        <ele>92.4239502</ele>
        <time>2012-05-17T09:41:05Z</time>
      </trkpt>
      <trkpt lat="43.62142" lon="6.82652">
        <ele>87.1365967</ele>
        <time>2012-05-17T09:41:11Z</time>
      </trkpt>
      <trkpt lat="43.62143" lon="6.82654">
        <ele>86.6560059</ele>
        <time>2012-05-17T09:41:12Z</time>
      </trkpt>
      <trkpt lat="43.62153" lon="6.82675">
        <ele>82.810791</ele>
        <time>2012-05-17T09:41:18Z</time>
      </trkpt>
      <trkpt lat="43.62154" lon="6.82694">
        <ele>80.4074707</ele>
        <time>2012-05-17T09:41:22Z</time>
      </trkpt>
      <trkpt lat="43.62149" lon="6.82718">
        <ele>79.9266357</ele>
        <time>2012-05-17T09:41:27Z</time>
      </trkpt>
      <trkpt lat="43.62142" lon="6.82745">
        <ele>79.4460449</ele>
        <time>2012-05-17T09:41:32Z</time>
      </trkpt>
      <trkpt lat="43.6214" lon="6.82759">
        <ele>78.9654541</ele>
        <time>2012-05-17T09:41:34Z</time>
      </trkpt>
      <trkpt lat="43.62135" lon="6.82785">
        <ele>81.3687744</ele>
        <time>2012-05-17T09:41:38Z</time>
      </trkpt>
      <trkpt lat="43.62134" lon="6.82803">
        <ele>81.3687744</ele>
        <time>2012-05-17T09:41:41Z</time>
      </trkpt>
      <trkpt lat="43.62127" lon="6.8284">
        <ele>80.4074707</ele>
        <time>2012-05-17T09:41:46Z</time>
      </trkpt>
      <trkpt lat="43.62126" lon="6.82857">
        <ele>78.9654541</ele>
        <time>2012-05-17T09:41:49Z</time>
      </trkpt>
      <trkpt lat="43.62128" lon="6.82876">
        <ele>76.0814209</ele>
        <time>2012-05-17T09:41:53Z</time>
      </trkpt>
      <trkpt lat="43.62138" lon="6.82902">
        <ele>79.4460449</ele>
        <time>2012-05-17T09:41:59Z</time>
      </trkpt>
      <trkpt lat="43.62157" lon="6.82934">
        <ele>82.810791</ele>
        <time>2012-05-17T09:42:07Z</time>
      </trkpt>
      <trkpt lat="43.6217" lon="6.82957">
        <ele>83.7719727</ele>
        <time>2012-05-17T09:42:12Z</time>
      </trkpt>
      <trkpt lat="43.62178" lon="6.82977">
        <ele>83.7719727</ele>
        <time>2012-05-17T09:42:17Z</time>
      </trkpt>
      <trkpt lat="43.62181" lon="6.82987">
        <ele>84.7333984</ele>
        <time>2012-05-17T09:42:22Z</time>
      </trkpt>
      <trkpt lat="43.62181" lon="6.82987">
        <ele>87.6171875</ele>
        <time>2012-05-17T09:42:32Z</time>
      </trkpt>
      <trkpt lat="43.62181" lon="6.82986">
        <ele>88.5787354</ele>
        <time>2012-05-17T09:42:46Z</time>
      </trkpt>
      <trkpt lat="43.62182" lon="6.82985">
        <ele>88.0980225</ele>
        <time>2012-05-17T09:43:04Z</time>
      </trkpt>
      <trkpt lat="43.62183" lon="6.82994">
        <ele>87.6171875</ele>
        <time>2012-05-17T09:43:09Z</time>
      </trkpt>
      <trkpt lat="43.62183" lon="6.83007">
        <ele>87.1365967</ele>
        <time>2012-05-17T09:43:13Z</time>
      </trkpt>
      <trkpt lat="43.6219" lon="6.83034">
        <ele>83.2913818</ele>
        <time>2012-05-17T09:43:19Z</time>
      </trkpt>
      <trkpt lat="43.62191" lon="6.83054">
        <ele>82.3300781</ele>
        <time>2012-05-17T09:43:22Z</time>
      </trkpt>
      <trkpt lat="43.62189" lon="6.83061">
        <ele>81.8493652</ele>
        <time>2012-05-17T09:43:23Z</time>
      </trkpt>
      <trkpt lat="43.62184" lon="6.83079">
        <ele>82.3300781</ele>
        <time>2012-05-17T09:43:26Z</time>
      </trkpt>
      <trkpt lat="43.6217" lon="6.83101">
        <ele>79.9266357</ele>
        <time>2012-05-17T09:43:31Z</time>
      </trkpt>
      <trkpt lat="43.62165" lon="6.8311">
        <ele>79.9266357</ele>
        <time>2012-05-17T09:43:33Z</time>
      </trkpt>
      <trkpt lat="43.62159" lon="6.83118">
        <ele>79.4460449</ele>
        <time>2012-05-17T09:43:35Z</time>
      </trkpt>
      <trkpt lat="43.62149" lon="6.83156">
        <ele>77.0428467</ele>
        <time>2012-05-17T09:43:40Z</time>
      </trkpt>
      <trkpt lat="43.62132" lon="6.83186">
        <ele>76.5621338</ele>
        <time>2012-05-17T09:43:44Z</time>
      </trkpt>
      <trkpt lat="43.62123" lon="6.83198">
        <ele>76.5621338</ele>
        <time>2012-05-17T09:43:46Z</time>
      </trkpt>
      <trkpt lat="43.62107" lon="6.83235">
        <ele>74.6395264</ele>
        <time>2012-05-17T09:43:51Z</time>
      </trkpt>
      <trkpt lat="43.62101" lon="6.8325">
        <ele>74.1588135</ele>
        <time>2012-05-17T09:43:53Z</time>
      </trkpt>
      <trkpt lat="43.62089" lon="6.83276">
        <ele>75.6008301</ele>
        <time>2012-05-17T09:43:57Z</time>
      </trkpt>
      <trkpt lat="43.62076" lon="6.83295">
        <ele>77.5234375</ele>
        <time>2012-05-17T09:44:00Z</time>
      </trkpt>
      <trkpt lat="43.62056" lon="6.83315">
        <ele>78.9654541</ele>
        <time>2012-05-17T09:44:04Z</time>
      </trkpt>
      <trkpt lat="43.62035" lon="6.83342">
        <ele>79.4460449</ele>
        <time>2012-05-17T09:44:09Z</time>
      </trkpt>
      <trkpt lat="43.62028" lon="6.83352">
        <ele>80.4074707</ele>
        <time>2012-05-17T09:44:11Z</time>
      </trkpt>
      <trkpt lat="43.62014" lon="6.83378">
        <ele>82.3300781</ele>
        <time>2012-05-17T09:44:15Z</time>
      </trkpt>
      <trkpt lat="43.6201" lon="6.83426">
        <ele>78.4847412</ele>
        <time>2012-05-17T09:44:20Z</time>
      </trkpt>
      <trkpt lat="43.62004" lon="6.83457">
        <ele>78.4847412</ele>
        <time>2012-05-17T09:44:24Z</time>
      </trkpt>
      <trkpt lat="43.62" lon="6.83472">
        <ele>78.4847412</ele>
        <time>2012-05-17T09:44:26Z</time>
      </trkpt>
      <trkpt lat="43.61986" lon="6.83498">
        <ele>79.4460449</ele>
        <time>2012-05-17T09:44:30Z</time>
      </trkpt>
      <trkpt lat="43.61964" lon="6.83523">
        <ele>80.8881836</ele>
        <time>2012-05-17T09:44:35Z</time>
      </trkpt>
      <trkpt lat="43.61955" lon="6.83531">
        <ele>82.3300781</ele>
        <time>2012-05-17T09:44:37Z</time>
      </trkpt>
      <trkpt lat="43.61932" lon="6.83536">
        <ele>87.1365967</ele>
        <time>2012-05-17T09:44:42Z</time>
      </trkpt>
      <trkpt lat="43.61919" lon="6.83539">
        <ele>87.6171875</ele>
        <time>2012-05-17T09:44:45Z</time>
      </trkpt>
      <trkpt lat="43.61913" lon="6.83539">
        <ele>90.9819336</ele>
        <time>2012-05-17T09:44:50Z</time>
      </trkpt>
      <trkpt lat="43.61909" lon="6.83537">
        <ele>94.3465576</ele>
        <time>2012-05-17T09:45:10Z</time>
      </trkpt>
      <trkpt lat="43.61908" lon="6.8354">
        <ele>90.0206299</ele>
        <time>2012-05-17T09:45:26Z</time>
      </trkpt>
      <trkpt lat="43.61907" lon="6.8354">
        <ele>90.0206299</ele>
        <time>2012-05-17T09:45:27Z</time>
      </trkpt>
      <trkpt lat="43.619" lon="6.83538">
        <ele>90.0206299</ele>
        <time>2012-05-17T09:45:33Z</time>
      </trkpt>
      <trkpt lat="43.6189" lon="6.83539">
        <ele>90.5013428</ele>
        <time>2012-05-17T09:45:38Z</time>
      </trkpt>
      <trkpt lat="43.61883" lon="6.83539">
        <ele>89.539917</ele>
        <time>2012-05-17T09:45:40Z</time>
      </trkpt>
      <trkpt lat="43.61856" lon="6.83535">
        <ele>87.6171875</ele>
        <time>2012-05-17T09:45:46Z</time>
      </trkpt>
      <trkpt lat="43.61845" lon="6.83534">
        <ele>87.1365967</ele>
        <time>2012-05-17T09:45:49Z</time>
      </trkpt>
      <trkpt lat="43.61826" lon="6.83535">
        <ele>90.0206299</ele>
        <time>2012-05-17T09:45:55Z</time>
      </trkpt>
      <trkpt lat="43.6182" lon="6.83536">
        <ele>90.0206299</ele>
        <time>2012-05-17T09:45:57Z</time>
      </trkpt>
      <trkpt lat="43.61793" lon="6.83545">
        <ele>80.8881836</ele>
        <time>2012-05-17T09:46:02Z</time>
      </trkpt>
      <trkpt lat="43.61788" lon="6.83547">
        <ele>76.5621338</ele>
        <time>2012-05-17T09:46:03Z</time>
      </trkpt>
      <trkpt lat="43.61764" lon="6.83558">
        <ele>61.6617432</ele>
        <time>2012-05-17T09:46:07Z</time>
      </trkpt>
      <trkpt lat="43.61751" lon="6.83593">
        <ele>59.7391357</ele>
        <time>2012-05-17T09:46:11Z</time>
      </trkpt>
      <trkpt lat="43.61742" lon="6.83614">
        <ele>58.2971191</ele>
        <time>2012-05-17T09:46:16Z</time>
      </trkpt>
      <trkpt lat="43.61741" lon="6.83617">
        <ele>57.3358154</ele>
        <time>2012-05-17T09:46:17Z</time>
      </trkpt>
      <trkpt lat="43.61741" lon="6.83654">
        <ele>53.9711914</ele>
        <time>2012-05-17T09:46:23Z</time>
      </trkpt>
      <trkpt lat="43.61754" lon="6.83691">
        <ele>54.932373</ele>
        <time>2012-05-17T09:46:29Z</time>
      </trkpt>
      <trkpt lat="43.61764" lon="6.83707">
        <ele>57.3358154</ele>
        <time>2012-05-17T09:46:32Z</time>
      </trkpt>
      <trkpt lat="43.61764" lon="6.83718">
        <ele>57.8165283</ele>
        <time>2012-05-17T09:46:34Z</time>
      </trkpt>
      <trkpt lat="43.61756" lon="6.83755">
        <ele>58.2971191</ele>
        <time>2012-05-17T09:46:39Z</time>
      </trkpt>
      <trkpt lat="43.61736" lon="6.8379">
        <ele>59.2584229</ele>
        <time>2012-05-17T09:46:44Z</time>
      </trkpt>
      <trkpt lat="43.61732" lon="6.83796">
        <ele>59.2584229</ele>
        <time>2012-05-17T09:46:45Z</time>
      </trkpt>
      <trkpt lat="43.61721" lon="6.83805">
        <ele>58.2971191</ele>
        <time>2012-05-17T09:46:47Z</time>
      </trkpt>
      <trkpt lat="43.617" lon="6.8382">
        <ele>58.2971191</ele>
        <time>2012-05-17T09:46:51Z</time>
      </trkpt>
      <trkpt lat="43.61684" lon="6.83829">
        <ele>57.3358154</ele>
        <time>2012-05-17T09:46:54Z</time>
      </trkpt>
      <trkpt lat="43.61663" lon="6.83838">
        <ele>58.2971191</ele>
        <time>2012-05-17T09:46:58Z</time>
      </trkpt>
      <trkpt lat="43.61644" lon="6.83853">
        <ele>60.2197266</ele>
        <time>2012-05-17T09:47:03Z</time>
      </trkpt>
      <trkpt lat="43.61621" lon="6.83875">
        <ele>61.1810303</ele>
        <time>2012-05-17T09:47:10Z</time>
      </trkpt>
      <trkpt lat="43.61607" lon="6.83887">
        <ele>65.0263672</ele>
        <time>2012-05-17T09:47:14Z</time>
      </trkpt>
      <trkpt lat="43.61591" lon="6.83898">
        <ele>67.9102783</ele>
        <time>2012-05-17T09:47:18Z</time>
      </trkpt>
      <trkpt lat="43.61581" lon="6.83907">
        <ele>68.871582</ele>
        <time>2012-05-17T09:47:21Z</time>
      </trkpt>
      <trkpt lat="43.61567" lon="6.83921">
        <ele>69.8328857</ele>
        <time>2012-05-17T09:47:25Z</time>
      </trkpt>
      <trkpt lat="43.61554" lon="6.83933">
        <ele>73.6782227</ele>
        <time>2012-05-17T09:47:29Z</time>
      </trkpt>
      <trkpt lat="43.61541" lon="6.83944">
        <ele>74.6395264</ele>
        <time>2012-05-17T09:47:33Z</time>
      </trkpt>
      <trkpt lat="43.61521" lon="6.83964">
        <ele>77.5234375</ele>
        <time>2012-05-17T09:47:40Z</time>
      </trkpt>
      <trkpt lat="43.61514" lon="6.83972">
        <ele>83.7719727</ele>
        <time>2012-05-17T09:47:43Z</time>
      </trkpt>
      <trkpt lat="43.61501" lon="6.83959">
        <ele>80.4074707</ele>
        <time>2012-05-17T09:47:48Z</time>
      </trkpt>
      <trkpt lat="43.61486" lon="6.83916">
        <ele>78.0040283</ele>
        <time>2012-05-17T09:47:54Z</time>
      </trkpt>
      <trkpt lat="43.61478" lon="6.83878">
        <ele>76.0814209</ele>
        <time>2012-05-17T09:47:59Z</time>
      </trkpt>
      <trkpt lat="43.61477" lon="6.83863">
        <ele>75.1202393</ele>
        <time>2012-05-17T09:48:01Z</time>
      </trkpt>
      <trkpt lat="43.61466" lon="6.83829">
        <ele>72.7169189</ele>
        <time>2012-05-17T09:48:06Z</time>
      </trkpt>
      <trkpt lat="43.61457" lon="6.83806">
        <ele>72.2362061</ele>
        <time>2012-05-17T09:48:10Z</time>
      </trkpt>
      <trkpt lat="43.61453" lon="6.83792">
        <ele>71.7554932</ele>
        <time>2012-05-17T09:48:14Z</time>
      </trkpt>
      <trkpt lat="43.61452" lon="6.83785">
        <ele>70.7941895</ele>
        <time>2012-05-17T09:48:18Z</time>
      </trkpt>
      <trkpt lat="43.6145" lon="6.83786">
        <ele>73.6782227</ele>
        <time>2012-05-17T09:48:27Z</time>
      </trkpt>
      <trkpt lat="43.61448" lon="6.83783">
        <ele>74.6395264</ele>
        <time>2012-05-17T09:48:34Z</time>
      </trkpt>
      <trkpt lat="43.61445" lon="6.83781">
        <ele>75.6008301</ele>
        <time>2012-05-17T09:48:39Z</time>
      </trkpt>
      <trkpt lat="43.6144" lon="6.83782">
        <ele>78.0040283</ele>
        <time>2012-05-17T09:48:46Z</time>
      </trkpt>
      <trkpt lat="43.61442" lon="6.8378">
        <ele>78.0040283</ele>
        <time>2012-05-17T09:48:52Z</time>
      </trkpt>
      <trkpt lat="43.61446" lon="6.8378">
        <ele>78.0040283</ele>
        <time>2012-05-17T09:48:56Z</time>
      </trkpt>
      <trkpt lat="43.61447" lon="6.83782">
        <ele>78.0040283</ele>
        <time>2012-05-17T09:48:59Z</time>
      </trkpt>
      <trkpt lat="43.61447" lon="6.83782">
        <ele>79.9266357</ele>
        <time>2012-05-17T09:49:04Z</time>
      </trkpt>
      <trkpt lat="43.61448" lon="6.83781">
        <ele>80.4074707</ele>
        <time>2012-05-17T09:49:28Z</time>
      </trkpt>
      <trkpt lat="43.61447" lon="6.83782">
        <ele>78.0040283</ele>
        <time>2012-05-17T09:49:46Z</time>
      </trkpt>
      <trkpt lat="43.61449" lon="6.83781">
        <ele>77.5234375</ele>
        <time>2012-05-17T09:49:53Z</time>
      </trkpt>
      <trkpt lat="43.61448" lon="6.8378">
        <ele>79.4460449</ele>
        <time>2012-05-17T09:50:07Z</time>
      </trkpt>
      <trkpt lat="43.61448" lon="6.83781">
        <ele>79.9266357</ele>
        <time>2012-05-17T09:50:15Z</time>
      </trkpt>
      <trkpt lat="43.61447" lon="6.8378">
        <ele>78.4847412</ele>
        <time>2012-05-17T09:50:29Z</time>
      </trkpt>
      <trkpt lat="43.61446" lon="6.8378">
        <ele>78.9654541</ele>
        <time>2012-05-17T09:50:38Z</time>
      </trkpt>
      <trkpt lat="43.61449" lon="6.83779">
        <ele>79.9266357</ele>
        <time>2012-05-17T09:50:48Z</time>
      </trkpt>
      <trkpt lat="43.61448" lon="6.83779">
        <ele>79.4460449</ele>
        <time>2012-05-17T09:50:55Z</time>
      </trkpt>
      <trkpt lat="43.61443" lon="6.83781">
        <ele>79.9266357</ele>
        <time>2012-05-17T09:51:00Z</time>
      </trkpt>
      <trkpt lat="43.61441" lon="6.83782">
        <ele>79.9266357</ele>
        <time>2012-05-17T09:51:04Z</time>
      </trkpt>
      <trkpt lat="43.61438" lon="6.83784">
        <ele>80.4074707</ele>
        <time>2012-05-17T09:51:08Z</time>
      </trkpt>
      <trkpt lat="43.61436" lon="6.83784">
        <ele>80.4074707</ele>
        <time>2012-05-17T09:51:09Z</time>
      </trkpt>
      <trkpt lat="43.61427" lon="6.83786">
        <ele>79.9266357</ele>
        <time>2012-05-17T09:51:14Z</time>
      </trkpt>
      <trkpt lat="43.61418" lon="6.83789">
        <ele>80.8881836</ele>
        <time>2012-05-17T09:51:19Z</time>
      </trkpt>
      <trkpt lat="43.61408" lon="6.83785">
        <ele>83.2913818</ele>
        <time>2012-05-17T09:51:24Z</time>
      </trkpt>
      <trkpt lat="43.61405" lon="6.83784">
        <ele>83.7719727</ele>
        <time>2012-05-17T09:51:26Z</time>
      </trkpt>
      <trkpt lat="43.61397" lon="6.83785">
        <ele>83.2913818</ele>
        <time>2012-05-17T09:51:30Z</time>
      </trkpt>
      <trkpt lat="43.61383" lon="6.83797">
        <ele>80.4074707</ele>
        <time>2012-05-17T09:51:36Z</time>
      </trkpt>
      <trkpt lat="43.61372" lon="6.83807">
        <ele>78.0040283</ele>
        <time>2012-05-17T09:51:41Z</time>
      </trkpt>
      <trkpt lat="43.61359" lon="6.83818">
        <ele>75.6008301</ele>
        <time>2012-05-17T09:51:46Z</time>
      </trkpt>
      <trkpt lat="43.61347" lon="6.8383">
        <ele>73.1976318</ele>
        <time>2012-05-17T09:51:52Z</time>
      </trkpt>
      <trkpt lat="43.61342" lon="6.83846">
        <ele>70.7941895</ele>
        <time>2012-05-17T09:51:58Z</time>
      </trkpt>
      <trkpt lat="43.61335" lon="6.83869">
        <ele>70.7941895</ele>
        <time>2012-05-17T09:52:02Z</time>
      </trkpt>
      <trkpt lat="43.61334" lon="6.83891">
        <ele>70.3134766</ele>
        <time>2012-05-17T09:52:05Z</time>
      </trkpt>
      <trkpt lat="43.6132" lon="6.83916">
        <ele>70.7941895</ele>
        <time>2012-05-17T09:52:09Z</time>
      </trkpt>
      <trkpt lat="43.61311" lon="6.83928">
        <ele>71.2749023</ele>
        <time>2012-05-17T09:52:11Z</time>
      </trkpt>
      <trkpt lat="43.61305" lon="6.83942">
        <ele>71.2749023</ele>
        <time>2012-05-17T09:52:13Z</time>
      </trkpt>
      <trkpt lat="43.61288" lon="6.83975">
        <ele>72.2362061</ele>
        <time>2012-05-17T09:52:17Z</time>
      </trkpt>
      <trkpt lat="43.61276" lon="6.84012">
        <ele>71.2749023</ele>
        <time>2012-05-17T09:52:21Z</time>
      </trkpt>
      <trkpt lat="43.6127" lon="6.84034">
        <ele>70.7941895</ele>
        <time>2012-05-17T09:52:26Z</time>
      </trkpt>
      <trkpt lat="43.61269" lon="6.84048">
        <ele>72.2362061</ele>
        <time>2012-05-17T09:52:29Z</time>
      </trkpt>
      <trkpt lat="43.61266" lon="6.84076">
        <ele>78.4847412</ele>
        <time>2012-05-17T09:52:35Z</time>
      </trkpt>
      <trkpt lat="43.6126" lon="6.84099">
        <ele>79.4460449</ele>
        <time>2012-05-17T09:52:41Z</time>
      </trkpt>
      <trkpt lat="43.61252" lon="6.84123">
        <ele>79.4460449</ele>
        <time>2012-05-17T09:52:47Z</time>
      </trkpt>
      <trkpt lat="43.61241" lon="6.84137">
        <ele>80.4074707</ele>
        <time>2012-05-17T09:52:52Z</time>
      </trkpt>
      <trkpt lat="43.61223" lon="6.84148">
        <ele>79.9266357</ele>
        <time>2012-05-17T09:52:56Z</time>
      </trkpt>
      <trkpt lat="43.6121" lon="6.84159">
        <ele>79.9266357</ele>
        <time>2012-05-17T09:53:00Z</time>
      </trkpt>
      <trkpt lat="43.61203" lon="6.84169">
        <ele>80.4074707</ele>
        <time>2012-05-17T09:53:04Z</time>
      </trkpt>
      <trkpt lat="43.61196" lon="6.84183">
        <ele>81.3687744</ele>
        <time>2012-05-17T09:53:09Z</time>
      </trkpt>
      <trkpt lat="43.61192" lon="6.842">
        <ele>81.3687744</ele>
        <time>2012-05-17T09:53:14Z</time>
      </trkpt>
      <trkpt lat="43.61184" lon="6.84215">
        <ele>82.3300781</ele>
        <time>2012-05-17T09:53:19Z</time>
      </trkpt>
      <trkpt lat="43.61178" lon="6.8424">
        <ele>79.4460449</ele>
        <time>2012-05-17T09:53:24Z</time>
      </trkpt>
      <trkpt lat="43.61181" lon="6.84267">
        <ele>79.4460449</ele>
        <time>2012-05-17T09:53:29Z</time>
      </trkpt>
      <trkpt lat="43.6119" lon="6.84283">
        <ele>77.5234375</ele>
        <time>2012-05-17T09:53:33Z</time>
      </trkpt>
      <trkpt lat="43.61204" lon="6.84298">
        <ele>76.0814209</ele>
        <time>2012-05-17T09:53:37Z</time>
      </trkpt>
      <trkpt lat="43.61212" lon="6.84303">
        <ele>74.6395264</ele>
        <time>2012-05-17T09:53:39Z</time>
      </trkpt>
      <trkpt lat="43.61222" lon="6.84307">
        <ele>73.6782227</ele>
        <time>2012-05-17T09:53:42Z</time>
      </trkpt>
      <trkpt lat="43.61234" lon="6.84319">
        <ele>73.1976318</ele>
        <time>2012-05-17T09:53:47Z</time>
      </trkpt>
      <trkpt lat="43.61238" lon="6.84324">
        <ele>76.0814209</ele>
        <time>2012-05-17T09:53:51Z</time>
      </trkpt>
      <trkpt lat="43.61239" lon="6.84324">
        <ele>79.9266357</ele>
        <time>2012-05-17T09:53:56Z</time>
      </trkpt>
      <trkpt lat="43.61239" lon="6.84327">
        <ele>84.7333984</ele>
        <time>2012-05-17T09:54:09Z</time>
      </trkpt>
      <trkpt lat="43.61239" lon="6.84328">
        <ele>84.2526855</ele>
        <time>2012-05-17T09:54:19Z</time>
      </trkpt>
      <trkpt lat="43.61238" lon="6.84329">
        <ele>85.6945801</ele>
        <time>2012-05-17T09:54:26Z</time>
      </trkpt>
      <trkpt lat="43.61238" lon="6.84332">
        <ele>100.595093</ele>
        <time>2012-05-17T09:54:47Z</time>
      </trkpt>
      <trkpt lat="43.61236" lon="6.84337">
        <ele>102.998291</ele>
        <time>2012-05-17T09:55:03Z</time>
      </trkpt>
      <trkpt lat="43.61238" lon="6.84333">
        <ele>96.2692871</ele>
        <time>2012-05-17T09:55:18Z</time>
      </trkpt>
      <trkpt lat="43.61239" lon="6.84331">
        <ele>92.904541</ele>
        <time>2012-05-17T09:55:37Z</time>
      </trkpt>
      <trkpt lat="43.61241" lon="6.84327">
        <ele>85.6945801</ele>
        <time>2012-05-17T09:56:17Z</time>
      </trkpt>
      <trkpt lat="43.61239" lon="6.84322">
        <ele>80.4074707</ele>
        <time>2012-05-17T09:56:50Z</time>
      </trkpt>
      <trkpt lat="43.6124" lon="6.84324">
        <ele>82.3300781</ele>
        <time>2012-05-17T09:57:18Z</time>
      </trkpt>
      <trkpt lat="43.6124" lon="6.84326">
        <ele>86.175293</ele>
        <time>2012-05-17T09:57:51Z</time>
      </trkpt>
      <trkpt lat="43.6123" lon="6.84319">
        <ele>84.7333984</ele>
        <time>2012-05-17T09:57:56Z</time>
      </trkpt>
      <trkpt lat="43.61227" lon="6.84318">
        <ele>84.2526855</ele>
        <time>2012-05-17T09:57:57Z</time>
      </trkpt>
      <trkpt lat="43.61205" lon="6.84309">
        <ele>80.8881836</ele>
        <time>2012-05-17T09:58:03Z</time>
      </trkpt>
      <trkpt lat="43.61201" lon="6.84305">
        <ele>80.8881836</ele>
        <time>2012-05-17T09:58:06Z</time>
      </trkpt>
      <trkpt lat="43.61196" lon="6.84298">
        <ele>83.2913818</ele>
        <time>2012-05-17T09:58:13Z</time>
      </trkpt>
      <trkpt lat="43.61198" lon="6.84298">
        <ele>84.2526855</ele>
        <time>2012-05-17T09:58:20Z</time>
      </trkpt>
      <trkpt lat="43.61198" lon="6.84298">
        <ele>84.7333984</ele>
        <time>2012-05-17T09:58:21Z</time>
      </trkpt>
      <trkpt lat="43.6121" lon="6.84291">
        <ele>82.810791</ele>
        <time>2012-05-17T09:58:25Z</time>
      </trkpt>
      <trkpt lat="43.61222" lon="6.84291">
        <ele>82.3300781</ele>
        <time>2012-05-17T09:58:28Z</time>
      </trkpt>
      <trkpt lat="43.61239" lon="6.84281">
        <ele>80.8881836</ele>
        <time>2012-05-17T09:58:32Z</time>
      </trkpt>
      <trkpt lat="43.61241" lon="6.84281">
        <ele>81.3687744</ele>
        <time>2012-05-17T09:58:33Z</time>
      </trkpt>
      <trkpt lat="43.6125" lon="6.84279">
        <ele>74.6395264</ele>
        <time>2012-05-17T09:58:43Z</time>
      </trkpt>
      <trkpt lat="43.6125" lon="6.84279">
        <ele>79.4460449</ele>
        <time>2012-05-17T09:58:53Z</time>
      </trkpt>
      <trkpt lat="43.61247" lon="6.8428">
        <ele>82.810791</ele>
        <time>2012-05-17T09:58:58Z</time>
      </trkpt>
      <trkpt lat="43.61248" lon="6.8428">
        <ele>84.7333984</ele>
        <time>2012-05-17T09:59:06Z</time>
      </trkpt>
      <trkpt lat="43.61251" lon="6.84275">
        <ele>81.3687744</ele>
        <time>2012-05-17T09:59:12Z</time>
      </trkpt>
      <trkpt lat="43.61254" lon="6.84273">
        <ele>78.9654541</ele>
        <time>2012-05-17T09:59:16Z</time>
      </trkpt>
      <trkpt lat="43.61262" lon="6.84284">
        <ele>78.0040283</ele>
        <time>2012-05-17T09:59:22Z</time>
      </trkpt>
      <trkpt lat="43.6126" lon="6.84288">
        <ele>78.4847412</ele>
        <time>2012-05-17T09:59:26Z</time>
      </trkpt>
      <trkpt lat="43.6126" lon="6.84294">
        <ele>78.0040283</ele>
        <time>2012-05-17T09:59:40Z</time>
      </trkpt>
      <trkpt lat="43.61263" lon="6.84307">
        <ele>77.0428467</ele>
        <time>2012-05-17T09:59:44Z</time>
      </trkpt>
      <trkpt lat="43.61268" lon="6.84331">
        <ele>75.6008301</ele>
        <time>2012-05-17T09:59:50Z</time>
      </trkpt>
      <trkpt lat="43.61274" lon="6.84365">
        <ele>72.2362061</ele>
        <time>2012-05-17T09:59:56Z</time>
      </trkpt>
      <trkpt lat="43.61274" lon="6.84396">
        <ele>70.3134766</ele>
        <time>2012-05-17T10:00:01Z</time>
      </trkpt>
      <trkpt lat="43.61271" lon="6.84411">
        <ele>68.3908691</ele>
        <time>2012-05-17T10:00:06Z</time>
      </trkpt>
      <trkpt lat="43.61267" lon="6.84415">
        <ele>68.3908691</ele>
        <time>2012-05-17T10:00:10Z</time>
      </trkpt>
      <trkpt lat="43.61253" lon="6.8442">
        <ele>68.871582</ele>
        <time>2012-05-17T10:00:17Z</time>
      </trkpt>
      <trkpt lat="43.61239" lon="6.84425">
        <ele>71.2749023</ele>
        <time>2012-05-17T10:00:24Z</time>
      </trkpt>
      <trkpt lat="43.61227" lon="6.84427">
        <ele>74.6395264</ele>
        <time>2012-05-17T10:00:31Z</time>
      </trkpt>
      <trkpt lat="43.61216" lon="6.84427">
        <ele>76.0814209</ele>
        <time>2012-05-17T10:00:37Z</time>
      </trkpt>
      <trkpt lat="43.61206" lon="6.84427">
        <ele>78.0040283</ele>
        <time>2012-05-17T10:00:43Z</time>
      </trkpt>
      <trkpt lat="43.61194" lon="6.84429">
        <ele>80.4074707</ele>
        <time>2012-05-17T10:00:49Z</time>
      </trkpt>
      <trkpt lat="43.61192" lon="6.84423">
        <ele>80.4074707</ele>
        <time>2012-05-17T10:00:54Z</time>
      </trkpt>
      <trkpt lat="43.61194" lon="6.84422">
        <ele>80.4074707</ele>
        <time>2012-05-17T10:00:55Z</time>
      </trkpt>
      <trkpt lat="43.61198" lon="6.84422">
        <ele>80.4074707</ele>
        <time>2012-05-17T10:00:57Z</time>
      </trkpt>
      <trkpt lat="43.61205" lon="6.84419">
        <ele>80.4074707</ele>
        <time>2012-05-17T10:01:01Z</time>
      </trkpt>
      <trkpt lat="43.61221" lon="6.84409">
        <ele>81.8493652</ele>
        <time>2012-05-17T10:01:09Z</time>
      </trkpt>
      <trkpt lat="43.61236" lon="6.84402">
        <ele>83.7719727</ele>
        <time>2012-05-17T10:01:16Z</time>
      </trkpt>
      <trkpt lat="43.61248" lon="6.84385">
        <ele>83.7719727</ele>
        <time>2012-05-17T10:01:23Z</time>
      </trkpt>
      <trkpt lat="43.61251" lon="6.84366">
        <ele>82.810791</ele>
        <time>2012-05-17T10:01:29Z</time>
      </trkpt>
      <trkpt lat="43.61248" lon="6.8435">
        <ele>83.2913818</ele>
        <time>2012-05-17T10:01:33Z</time>
      </trkpt>
      <trkpt lat="43.61239" lon="6.84336">
        <ele>84.2526855</ele>
        <time>2012-05-17T10:01:38Z</time>
      </trkpt>
      <trkpt lat="43.61229" lon="6.84333">
        <ele>86.175293</ele>
        <time>2012-05-17T10:01:44Z</time>
      </trkpt>
      <trkpt lat="43.61222" lon="6.84328">
        <ele>86.6560059</ele>
        <time>2012-05-17T10:01:49Z</time>
      </trkpt>
      <trkpt lat="43.61209" lon="6.84325">
        <ele>88.0980225</ele>
        <time>2012-05-17T10:01:55Z</time>
      </trkpt>
      <trkpt lat="43.61195" lon="6.84322">
        <ele>90.5013428</ele>
        <time>2012-05-17T10:02:01Z</time>
      </trkpt>
      <trkpt lat="43.6118" lon="6.84314">
        <ele>90.9819336</ele>
        <time>2012-05-17T10:02:08Z</time>
      </trkpt>
      <trkpt lat="43.61177" lon="6.84311">
        <ele>90.9819336</ele>
        <time>2012-05-17T10:02:10Z</time>
      </trkpt>
      <trkpt lat="43.61172" lon="6.843">
        <ele>92.4239502</ele>
        <time>2012-05-17T10:02:15Z</time>
      </trkpt>
      <trkpt lat="43.61166" lon="6.84286">
        <ele>95.3077393</ele>
        <time>2012-05-17T10:02:21Z</time>
      </trkpt>
      <trkpt lat="43.61164" lon="6.84268">
        <ele>96.2692871</ele>
        <time>2012-05-17T10:02:25Z</time>
      </trkpt>
      <trkpt lat="43.61159" lon="6.84248">
        <ele>99.6337891</ele>
        <time>2012-05-17T10:02:30Z</time>
      </trkpt>
      <trkpt lat="43.61154" lon="6.84224">
        <ele>101.075684</ele>
        <time>2012-05-17T10:02:37Z</time>
      </trkpt>
      <trkpt lat="43.61154" lon="6.84204">
        <ele>100.114502</ele>
        <time>2012-05-17T10:02:42Z</time>
      </trkpt>
      <trkpt lat="43.61155" lon="6.84187">
        <ele>99.1530762</ele>
        <time>2012-05-17T10:02:47Z</time>
      </trkpt>
      <trkpt lat="43.61156" lon="6.84167">
        <ele>97.7111816</ele>
        <time>2012-05-17T10:02:53Z</time>
      </trkpt>
      <trkpt lat="43.61156" lon="6.84147">
        <ele>98.6724854</ele>
        <time>2012-05-17T10:02:59Z</time>
      </trkpt>
      <trkpt lat="43.61157" lon="6.84122">
        <ele>99.1530762</ele>
        <time>2012-05-17T10:03:06Z</time>
      </trkpt>
      <trkpt lat="43.61159" lon="6.84105">
        <ele>100.114502</ele>
        <time>2012-05-17T10:03:11Z</time>
      </trkpt>
      <trkpt lat="43.61167" lon="6.84094">
        <ele>101.075684</ele>
        <time>2012-05-17T10:03:16Z</time>
      </trkpt>
      <trkpt lat="43.61179" lon="6.84085">
        <ele>101.556396</ele>
        <time>2012-05-17T10:03:22Z</time>
      </trkpt>
      <trkpt lat="43.61187" lon="6.84071">
        <ele>100.114502</ele>
        <time>2012-05-17T10:03:28Z</time>
      </trkpt>
      <trkpt lat="43.61188" lon="6.84067">
        <ele>100.114502</ele>
        <time>2012-05-17T10:03:29Z</time>
      </trkpt>
      <trkpt lat="43.61191" lon="6.84036">
        <ele>101.075684</ele>
        <time>2012-05-17T10:03:37Z</time>
      </trkpt>
      <trkpt lat="43.61199" lon="6.84026">
        <ele>102.5177</ele>
        <time>2012-05-17T10:03:41Z</time>
      </trkpt>
      <trkpt lat="43.61209" lon="6.84027">
        <ele>102.998291</ele>
        <time>2012-05-17T10:03:46Z</time>
      </trkpt>
      <trkpt lat="43.61223" lon="6.84033">
        <ele>104.921021</ele>
        <time>2012-05-17T10:03:52Z</time>
      </trkpt>
      <trkpt lat="43.61233" lon="6.84025">
        <ele>105.882446</ele>
        <time>2012-05-17T10:03:57Z</time>
      </trkpt>
      <trkpt lat="43.61236" lon="6.84008">
        <ele>105.882446</ele>
        <time>2012-05-17T10:04:02Z</time>
      </trkpt>
      <trkpt lat="43.61235" lon="6.83993">
        <ele>106.363037</ele>
        <time>2012-05-17T10:04:06Z</time>
      </trkpt>
      <trkpt lat="43.6124" lon="6.83969">
        <ele>107.805054</ele>
        <time>2012-05-17T10:04:13Z</time>
      </trkpt>
      <trkpt lat="43.61244" lon="6.83952">
        <ele>108.766235</ele>
        <time>2012-05-17T10:04:18Z</time>
      </trkpt>
      <trkpt lat="43.61248" lon="6.83937">
        <ele>109.727661</ele>
        <time>2012-05-17T10:04:24Z</time>
      </trkpt>
      <trkpt lat="43.61248" lon="6.83936">
        <ele>109.727661</ele>
        <time>2012-05-17T10:04:25Z</time>
      </trkpt>
      <trkpt lat="43.61249" lon="6.83931">
        <ele>109.727661</ele>
        <time>2012-05-17T10:04:31Z</time>
      </trkpt>
      <trkpt lat="43.61248" lon="6.83928">
        <ele>111.169556</ele>
        <time>2012-05-17T10:04:34Z</time>
      </trkpt>
      <trkpt lat="43.61251" lon="6.83916">
        <ele>112.611572</ele>
        <time>2012-05-17T10:04:39Z</time>
      </trkpt>
      <trkpt lat="43.61252" lon="6.83908">
        <ele>113.572998</ele>
        <time>2012-05-17T10:04:42Z</time>
      </trkpt>
      <trkpt lat="43.61252" lon="6.83894">
        <ele>115.495605</ele>
        <time>2012-05-17T10:04:47Z</time>
      </trkpt>
      <trkpt lat="43.61251" lon="6.83892">
        <ele>115.976196</ele>
        <time>2012-05-17T10:04:48Z</time>
      </trkpt>
      <trkpt lat="43.61246" lon="6.83872">
        <ele>118.379395</ele>
        <time>2012-05-17T10:04:55Z</time>
      </trkpt>
      <trkpt lat="43.61248" lon="6.83856">
        <ele>119.821411</ele>
        <time>2012-05-17T10:05:00Z</time>
      </trkpt>
      <trkpt lat="43.61248" lon="6.83852">
        <ele>119.821411</ele>
        <time>2012-05-17T10:05:01Z</time>
      </trkpt>
      <trkpt lat="43.61255" lon="6.83845">
        <ele>119.34082</ele>
        <time>2012-05-17T10:05:06Z</time>
      </trkpt>
      <trkpt lat="43.61258" lon="6.83845">
        <ele>119.34082</ele>
        <time>2012-05-17T10:05:07Z</time>
      </trkpt>
      <trkpt lat="43.61279" lon="6.83848">
        <ele>120.782837</ele>
        <time>2012-05-17T10:05:15Z</time>
      </trkpt>
      <trkpt lat="43.61293" lon="6.83845">
        <ele>123.186157</ele>
        <time>2012-05-17T10:05:21Z</time>
      </trkpt>
      <trkpt lat="43.61307" lon="6.83829">
        <ele>122.224731</ele>
        <time>2012-05-17T10:05:28Z</time>
      </trkpt>
      <trkpt lat="43.61322" lon="6.83806">
        <ele>121.26355</ele>
        <time>2012-05-17T10:05:37Z</time>
      </trkpt>
      <trkpt lat="43.61331" lon="6.83789">
        <ele>121.744141</ele>
        <time>2012-05-17T10:05:43Z</time>
      </trkpt>
      <trkpt lat="43.6134" lon="6.83767">
        <ele>121.26355</ele>
        <time>2012-05-17T10:05:51Z</time>
      </trkpt>
      <trkpt lat="43.6134" lon="6.83765">
        <ele>121.26355</ele>
        <time>2012-05-17T10:05:52Z</time>
      </trkpt>
      <trkpt lat="43.61341" lon="6.83755">
        <ele>122.224731</ele>
        <time>2012-05-17T10:05:57Z</time>
      </trkpt>
      <trkpt lat="43.61343" lon="6.83748">
        <ele>124.147339</ele>
        <time>2012-05-17T10:06:01Z</time>
      </trkpt>
      <trkpt lat="43.61349" lon="6.83737">
        <ele>126.069946</ele>
        <time>2012-05-17T10:06:07Z</time>
      </trkpt>
      <trkpt lat="43.61357" lon="6.83721">
        <ele>125.589355</ele>
        <time>2012-05-17T10:06:14Z</time>
      </trkpt>
      <trkpt lat="43.61365" lon="6.83703">
        <ele>124.147339</ele>
        <time>2012-05-17T10:06:21Z</time>
      </trkpt>
      <trkpt lat="43.61367" lon="6.83696">
        <ele>124.147339</ele>
        <time>2012-05-17T10:06:24Z</time>
      </trkpt>
      <trkpt lat="43.61373" lon="6.83685">
        <ele>124.147339</ele>
        <time>2012-05-17T10:06:30Z</time>
      </trkpt>
      <trkpt lat="43.61382" lon="6.83672">
        <ele>125.108765</ele>
        <time>2012-05-17T10:06:36Z</time>
      </trkpt>
      <trkpt lat="43.61383" lon="6.83669">
        <ele>125.108765</ele>
        <time>2012-05-17T10:06:37Z</time>
      </trkpt>
      <trkpt lat="43.61392" lon="6.83655">
        <ele>127.031372</ele>
        <time>2012-05-17T10:06:43Z</time>
      </trkpt>
      <trkpt lat="43.614" lon="6.8364">
        <ele>127.992554</ele>
        <time>2012-05-17T10:06:49Z</time>
      </trkpt>
      <trkpt lat="43.61407" lon="6.83617">
        <ele>128.954102</ele>
        <time>2012-05-17T10:06:57Z</time>
      </trkpt>
      <trkpt lat="43.61409" lon="6.83599">
        <ele>129.434692</ele>
        <time>2012-05-17T10:07:03Z</time>
      </trkpt>
      <trkpt lat="43.61405" lon="6.8358">
        <ele>130.876709</ele>
        <time>2012-05-17T10:07:10Z</time>
      </trkpt>
      <trkpt lat="43.61402" lon="6.83565">
        <ele>131.837891</ele>
        <time>2012-05-17T10:07:16Z</time>
      </trkpt>
      <trkpt lat="43.61399" lon="6.83548">
        <ele>132.799316</ele>
        <time>2012-05-17T10:07:22Z</time>
      </trkpt>
      <trkpt lat="43.6139" lon="6.83521">
        <ele>135.202515</ele>
        <time>2012-05-17T10:07:31Z</time>
      </trkpt>
      <trkpt lat="43.61386" lon="6.83506">
        <ele>137.125244</ele>
        <time>2012-05-17T10:07:37Z</time>
      </trkpt>
      <trkpt lat="43.61383" lon="6.83492">
        <ele>138.567261</ele>
        <time>2012-05-17T10:07:42Z</time>
      </trkpt>
      <trkpt lat="43.61382" lon="6.83486">
        <ele>139.047852</ele>
        <time>2012-05-17T10:07:44Z</time>
      </trkpt>
      <trkpt lat="43.61375" lon="6.83457">
        <ele>143.373657</ele>
        <time>2012-05-17T10:07:53Z</time>
      </trkpt>
      <trkpt lat="43.61367" lon="6.83436">
        <ele>141.931763</ele>
        <time>2012-05-17T10:08:00Z</time>
      </trkpt>
      <trkpt lat="43.61358" lon="6.8341">
        <ele>140.970459</ele>
        <time>2012-05-17T10:08:08Z</time>
      </trkpt>
      <trkpt lat="43.61351" lon="6.83391">
        <ele>140.489868</ele>
        <time>2012-05-17T10:08:14Z</time>
      </trkpt>
      <trkpt lat="43.61339" lon="6.83374">
        <ele>140.489868</ele>
        <time>2012-05-17T10:08:21Z</time>
      </trkpt>
      <trkpt lat="43.61327" lon="6.83364">
        <ele>141.45105</ele>
        <time>2012-05-17T10:08:27Z</time>
      </trkpt>
      <trkpt lat="43.61311" lon="6.83348">
        <ele>142.412476</ele>
        <time>2012-05-17T10:08:34Z</time>
      </trkpt>
      <trkpt lat="43.61298" lon="6.8333">
        <ele>144.335205</ele>
        <time>2012-05-17T10:08:41Z</time>
      </trkpt>
      <trkpt lat="43.61297" lon="6.83329">
        <ele>144.335205</ele>
        <time>2012-05-17T10:08:42Z</time>
      </trkpt>
      <trkpt lat="43.61287" lon="6.83311">
        <ele>144.815796</ele>
        <time>2012-05-17T10:08:49Z</time>
      </trkpt>
      <trkpt lat="43.61277" lon="6.83296">
        <ele>145.7771</ele>
        <time>2012-05-17T10:08:55Z</time>
      </trkpt>
      <trkpt lat="43.61265" lon="6.83285">
        <ele>145.7771</ele>
        <time>2012-05-17T10:09:02Z</time>
      </trkpt>
      <trkpt lat="43.61255" lon="6.83271">
        <ele>145.296387</ele>
        <time>2012-05-17T10:09:08Z</time>
      </trkpt>
      <trkpt lat="43.61241" lon="6.8326">
        <ele>145.7771</ele>
        <time>2012-05-17T10:09:14Z</time>
      </trkpt>
      <trkpt lat="43.6123" lon="6.83249">
        <ele>146.738403</ele>
        <time>2012-05-17T10:09:20Z</time>
      </trkpt>
      <trkpt lat="43.61219" lon="6.83236">
        <ele>147.699707</ele>
        <time>2012-05-17T10:09:26Z</time>
      </trkpt>
      <trkpt lat="43.61204" lon="6.83218">
        <ele>148.661011</ele>
        <time>2012-05-17T10:09:34Z</time>
      </trkpt>
      <trkpt lat="43.61189" lon="6.83201">
        <ele>149.622314</ele>
        <time>2012-05-17T10:09:42Z</time>
      </trkpt>
      <trkpt lat="43.61174" lon="6.83182">
        <ele>151.064209</ele>
        <time>2012-05-17T10:09:50Z</time>
      </trkpt>
      <trkpt lat="43.61164" lon="6.8317">
        <ele>151.544922</ele>
        <time>2012-05-17T10:09:56Z</time>
      </trkpt>
      <trkpt lat="43.61154" lon="6.83158">
        <ele>152.025757</ele>
        <time>2012-05-17T10:10:02Z</time>
      </trkpt>
      <trkpt lat="43.6114" lon="6.8314">
        <ele>153.467651</ele>
        <time>2012-05-17T10:10:10Z</time>
      </trkpt>
      <trkpt lat="43.61131" lon="6.83126">
        <ele>153.948364</ele>
        <time>2012-05-17T10:10:16Z</time>
      </trkpt>
      <trkpt lat="43.61121" lon="6.83112">
        <ele>155.390259</ele>
        <time>2012-05-17T10:10:23Z</time>
      </trkpt>
      <trkpt lat="43.61108" lon="6.83092">
        <ele>156.351562</ele>
        <time>2012-05-17T10:10:31Z</time>
      </trkpt>
      <trkpt lat="43.61097" lon="6.83079">
        <ele>156.832153</ele>
        <time>2012-05-17T10:10:37Z</time>
      </trkpt>
      <trkpt lat="43.61083" lon="6.83061">
        <ele>157.793579</ele>
        <time>2012-05-17T10:10:45Z</time>
      </trkpt>
      <trkpt lat="43.61073" lon="6.83053">
        <ele>157.793579</ele>
        <time>2012-05-17T10:10:50Z</time>
      </trkpt>
      <trkpt lat="43.61064" lon="6.83047">
        <ele>157.793579</ele>
        <time>2012-05-17T10:10:55Z</time>
      </trkpt>
      <trkpt lat="43.61056" lon="6.83039">
        <ele>159.235474</ele>
        <time>2012-05-17T10:11:00Z</time>
      </trkpt>
      <trkpt lat="43.61046" lon="6.83029">
        <ele>161.158203</ele>
        <time>2012-05-17T10:11:07Z</time>
      </trkpt>
      <trkpt lat="43.61033" lon="6.83013">
        <ele>164.042114</ele>
        <time>2012-05-17T10:11:14Z</time>
      </trkpt>
      <trkpt lat="43.61021" lon="6.82996">
        <ele>165.003418</ele>
        <time>2012-05-17T10:11:21Z</time>
      </trkpt>
      <trkpt lat="43.61009" lon="6.82976">
        <ele>169.329468</ele>
        <time>2012-05-17T10:11:29Z</time>
      </trkpt>
      <trkpt lat="43.61003" lon="6.82963">
        <ele>170.290649</ele>
        <time>2012-05-17T10:11:35Z</time>
      </trkpt>
      <trkpt lat="43.60996" lon="6.82948">
        <ele>171.252075</ele>
        <time>2012-05-17T10:11:41Z</time>
      </trkpt>
      <trkpt lat="43.60989" lon="6.82922">
        <ele>173.655273</ele>
        <time>2012-05-17T10:11:48Z</time>
      </trkpt>
      <trkpt lat="43.60987" lon="6.829">
        <ele>174.135864</ele>
        <time>2012-05-17T10:11:54Z</time>
      </trkpt>
      <trkpt lat="43.60984" lon="6.82882">
        <ele>174.135864</ele>
        <time>2012-05-17T10:11:59Z</time>
      </trkpt>
      <trkpt lat="43.60973" lon="6.82868">
        <ele>174.135864</ele>
        <time>2012-05-17T10:12:04Z</time>
      </trkpt>
      <trkpt lat="43.60953" lon="6.8285">
        <ele>174.135864</ele>
        <time>2012-05-17T10:12:11Z</time>
      </trkpt>
      <trkpt lat="43.60931" lon="6.82827">
        <ele>175.09729</ele>
        <time>2012-05-17T10:12:19Z</time>
      </trkpt>
      <trkpt lat="43.60924" lon="6.82806">
        <ele>175.09729</ele>
        <time>2012-05-17T10:12:24Z</time>
      </trkpt>
      <trkpt lat="43.60925" lon="6.82784">
        <ele>176.058594</ele>
        <time>2012-05-17T10:12:29Z</time>
      </trkpt>
      <trkpt lat="43.60924" lon="6.82744">
        <ele>176.539307</ele>
        <time>2012-05-17T10:12:37Z</time>
      </trkpt>
      <trkpt lat="43.60912" lon="6.82724">
        <ele>177.02002</ele>
        <time>2012-05-17T10:12:43Z</time>
      </trkpt>
      <trkpt lat="43.6091" lon="6.82722">
        <ele>177.02002</ele>
        <time>2012-05-17T10:12:44Z</time>
      </trkpt>
      <trkpt lat="43.60905" lon="6.82726">
        <ele>177.50061</ele>
        <time>2012-05-17T10:12:49Z</time>
      </trkpt>
      <trkpt lat="43.60906" lon="6.82725">
        <ele>177.02002</ele>
        <time>2012-05-17T10:12:56Z</time>
      </trkpt>
      <trkpt lat="43.60904" lon="6.82727">
        <ele>175.09729</ele>
        <time>2012-05-17T10:13:50Z</time>
      </trkpt>
      <trkpt lat="43.60904" lon="6.82728">
        <ele>177.02002</ele>
        <time>2012-05-17T10:13:56Z</time>
      </trkpt>
      <trkpt lat="43.60908" lon="6.82733">
        <ele>179.423218</ele>
        <time>2012-05-17T10:14:18Z</time>
      </trkpt>
      <trkpt lat="43.60907" lon="6.82734">
        <ele>178.942627</ele>
        <time>2012-05-17T10:14:22Z</time>
      </trkpt>
      <trkpt lat="43.60907" lon="6.82733">
        <ele>178.461914</ele>
        <time>2012-05-17T10:14:39Z</time>
      </trkpt>
      <trkpt lat="43.60906" lon="6.82733">
        <ele>177.50061</ele>
        <time>2012-05-17T10:15:23Z</time>
      </trkpt>
      <trkpt lat="43.60906" lon="6.82733">
        <ele>178.461914</ele>
        <time>2012-05-17T10:15:31Z</time>
      </trkpt>
      <trkpt lat="43.60906" lon="6.82735">
        <ele>177.50061</ele>
        <time>2012-05-17T10:15:36Z</time>
      </trkpt>
      <trkpt lat="43.60905" lon="6.82734">
        <ele>177.50061</ele>
        <time>2012-05-17T10:15:46Z</time>
      </trkpt>
      <trkpt lat="43.60903" lon="6.82733">
        <ele>181.345825</ele>
        <time>2012-05-17T10:16:31Z</time>
      </trkpt>
      <trkpt lat="43.60905" lon="6.8273">
        <ele>180.384521</ele>
        <time>2012-05-17T10:16:38Z</time>
      </trkpt>
      <trkpt lat="43.60907" lon="6.82729">
        <ele>174.616577</ele>
        <time>2012-05-17T10:16:58Z</time>
      </trkpt>
      <trkpt lat="43.60907" lon="6.8273">
        <ele>174.135864</ele>
        <time>2012-05-17T10:17:08Z</time>
      </trkpt>
      <trkpt lat="43.6091" lon="6.82731">
        <ele>177.02002</ele>
        <time>2012-05-17T10:17:37Z</time>
      </trkpt>
      <trkpt lat="43.60909" lon="6.82731">
        <ele>177.02002</ele>
        <time>2012-05-17T10:17:54Z</time>
      </trkpt>
      <trkpt lat="43.60909" lon="6.8273">
        <ele>176.539307</ele>
        <time>2012-05-17T10:18:05Z</time>
      </trkpt>
      <trkpt lat="43.60908" lon="6.82732">
        <ele>176.539307</ele>
        <time>2012-05-17T10:18:09Z</time>
      </trkpt>
      <trkpt lat="43.60907" lon="6.82733">
        <ele>178.942627</ele>
        <time>2012-05-17T10:18:27Z</time>
      </trkpt>
      <trkpt lat="43.60907" lon="6.82734">
        <ele>180.865234</ele>
        <time>2012-05-17T10:18:38Z</time>
      </trkpt>
      <trkpt lat="43.60909" lon="6.82733">
        <ele>186.633179</ele>
        <time>2012-05-17T10:19:05Z</time>
      </trkpt>
      <trkpt lat="43.60909" lon="6.82732">
        <ele>184.710571</ele>
        <time>2012-05-17T10:19:20Z</time>
      </trkpt>
      <trkpt lat="43.60908" lon="6.82731">
        <ele>183.749023</ele>
        <time>2012-05-17T10:19:30Z</time>
      </trkpt>
      <trkpt lat="43.60909" lon="6.8273">
        <ele>183.749023</ele>
        <time>2012-05-17T10:19:37Z</time>
      </trkpt>
      <trkpt lat="43.60908" lon="6.82736">
        <ele>182.787842</ele>
        <time>2012-05-17T10:19:42Z</time>
      </trkpt>
      <trkpt lat="43.60899" lon="6.82746">
        <ele>183.749023</ele>
        <time>2012-05-17T10:19:50Z</time>
      </trkpt>
      <trkpt lat="43.60897" lon="6.82748">
        <ele>182.307129</ele>
        <time>2012-05-17T10:19:56Z</time>
      </trkpt>
      <trkpt lat="43.60899" lon="6.82749">
        <ele>177.50061</ele>
        <time>2012-05-17T10:20:34Z</time>
      </trkpt>
      <trkpt lat="43.609" lon="6.82749">
        <ele>177.02002</ele>
        <time>2012-05-17T10:20:35Z</time>
      </trkpt>
      <trkpt lat="43.60906" lon="6.82738">
        <ele>175.577881</ele>
        <time>2012-05-17T10:20:42Z</time>
      </trkpt>
      <trkpt lat="43.60906" lon="6.82734">
        <ele>175.09729</ele>
        <time>2012-05-17T10:20:45Z</time>
      </trkpt>
      <trkpt lat="43.60906" lon="6.82732">
        <ele>175.577881</ele>
        <time>2012-05-17T10:20:54Z</time>
      </trkpt>
      <trkpt lat="43.60906" lon="6.82731">
        <ele>174.616577</ele>
        <time>2012-05-17T10:21:03Z</time>
      </trkpt>
      <trkpt lat="43.60906" lon="6.82733">
        <ele>176.539307</ele>
        <time>2012-05-17T10:21:10Z</time>
      </trkpt>
      <trkpt lat="43.60905" lon="6.82733">
        <ele>177.50061</ele>
        <time>2012-05-17T10:21:17Z</time>
      </trkpt>
      <trkpt lat="43.60904" lon="6.82731">
        <ele>178.461914</ele>
        <time>2012-05-17T10:21:22Z</time>
      </trkpt>
      <trkpt lat="43.60906" lon="6.8273">
        <ele>180.384521</ele>
        <time>2012-05-17T10:21:31Z</time>
      </trkpt>
      <trkpt lat="43.60906" lon="6.82726">
        <ele>183.749023</ele>
        <time>2012-05-17T10:21:39Z</time>
      </trkpt>
      <trkpt lat="43.60908" lon="6.82727">
        <ele>182.307129</ele>
        <time>2012-05-17T10:21:46Z</time>
      </trkpt>
      <trkpt lat="43.60908" lon="6.82723">
        <ele>181.345825</ele>
        <time>2012-05-17T10:21:51Z</time>
      </trkpt>
      <trkpt lat="43.60909" lon="6.82722">
        <ele>180.384521</ele>
        <time>2012-05-17T10:21:57Z</time>
      </trkpt>
      <trkpt lat="43.60909" lon="6.8272">
        <ele>180.384521</ele>
        <time>2012-05-17T10:21:58Z</time>
      </trkpt>
      <trkpt lat="43.60907" lon="6.82703">
        <ele>178.461914</ele>
        <time>2012-05-17T10:22:04Z</time>
      </trkpt>
      <trkpt lat="43.60897" lon="6.82688">
        <ele>177.981201</ele>
        <time>2012-05-17T10:22:08Z</time>
      </trkpt>
      <trkpt lat="43.60874" lon="6.82656">
        <ele>177.981201</ele>
        <time>2012-05-17T10:22:15Z</time>
      </trkpt>
      <trkpt lat="43.60859" lon="6.82634">
        <ele>177.50061</ele>
        <time>2012-05-17T10:22:21Z</time>
      </trkpt>
      <trkpt lat="43.60829" lon="6.82601">
        <ele>177.02002</ele>
        <time>2012-05-17T10:22:30Z</time>
      </trkpt>
      <trkpt lat="43.60813" lon="6.82578">
        <ele>177.02002</ele>
        <time>2012-05-17T10:22:35Z</time>
      </trkpt>
      <trkpt lat="43.60792" lon="6.8255">
        <ele>176.058594</ele>
        <time>2012-05-17T10:22:41Z</time>
      </trkpt>
      <trkpt lat="43.60767" lon="6.8252">
        <ele>175.577881</ele>
        <time>2012-05-17T10:22:47Z</time>
      </trkpt>
      <trkpt lat="43.6074" lon="6.82491">
        <ele>175.09729</ele>
        <time>2012-05-17T10:22:52Z</time>
      </trkpt>
      <trkpt lat="43.60734" lon="6.82485">
        <ele>175.09729</ele>
        <time>2012-05-17T10:22:53Z</time>
      </trkpt>
      <trkpt lat="43.60706" lon="6.82442">
        <ele>174.135864</ele>
        <time>2012-05-17T10:22:59Z</time>
      </trkpt>
      <trkpt lat="43.6069" lon="6.82397">
        <ele>173.174683</ele>
        <time>2012-05-17T10:23:04Z</time>
      </trkpt>
      <trkpt lat="43.60663" lon="6.82321">
        <ele>172.69397</ele>
        <time>2012-05-17T10:23:12Z</time>
      </trkpt>
      <trkpt lat="43.60629" lon="6.82259">
        <ele>170.771362</ele>
        <time>2012-05-17T10:23:19Z</time>
      </trkpt>
      <trkpt lat="43.60596" lon="6.82198">
        <ele>171.252075</ele>
        <time>2012-05-17T10:23:26Z</time>
      </trkpt>
      <trkpt lat="43.60577" lon="6.82164">
        <ele>170.771362</ele>
        <time>2012-05-17T10:23:30Z</time>
      </trkpt>
      <trkpt lat="43.60557" lon="6.82106">
        <ele>170.771362</ele>
        <time>2012-05-17T10:23:36Z</time>
      </trkpt>
      <trkpt lat="43.60551" lon="6.82087">
        <ele>170.771362</ele>
        <time>2012-05-17T10:23:38Z</time>
      </trkpt>
      <trkpt lat="43.60549" lon="6.82037">
        <ele>171.252075</ele>
        <time>2012-05-17T10:23:43Z</time>
      </trkpt>
      <trkpt lat="43.60557" lon="6.81963">
        <ele>171.732666</ele>
        <time>2012-05-17T10:23:51Z</time>
      </trkpt>
      <trkpt lat="43.60557" lon="6.81905">
        <ele>172.213257</ele>
        <time>2012-05-17T10:23:57Z</time>
      </trkpt>
      <trkpt lat="43.60559" lon="6.81856">
        <ele>172.213257</ele>
        <time>2012-05-17T10:24:02Z</time>
      </trkpt>
      <trkpt lat="43.60564" lon="6.81813">
        <ele>173.655273</ele>
        <time>2012-05-17T10:24:06Z</time>
      </trkpt>
      <trkpt lat="43.6058" lon="6.81775">
        <ele>174.135864</ele>
        <time>2012-05-17T10:24:10Z</time>
      </trkpt>
      <trkpt lat="43.60609" lon="6.81755">
        <ele>173.655273</ele>
        <time>2012-05-17T10:24:14Z</time>
      </trkpt>
      <trkpt lat="43.60654" lon="6.81745">
        <ele>172.213257</ele>
        <time>2012-05-17T10:24:19Z</time>
      </trkpt>
      <trkpt lat="43.60688" lon="6.81751">
        <ele>172.213257</ele>
        <time>2012-05-17T10:24:23Z</time>
      </trkpt>
      <trkpt lat="43.60752" lon="6.81789">
        <ele>171.252075</ele>
        <time>2012-05-17T10:24:31Z</time>
      </trkpt>
      <trkpt lat="43.60781" lon="6.81812">
        <ele>171.732666</ele>
        <time>2012-05-17T10:24:36Z</time>
      </trkpt>
      <trkpt lat="43.60792" lon="6.81821">
        <ele>172.69397</ele>
        <time>2012-05-17T10:24:40Z</time>
      </trkpt>
      <trkpt lat="43.60791" lon="6.81815">
        <ele>173.655273</ele>
        <time>2012-05-17T10:24:43Z</time>
      </trkpt>
      <trkpt lat="43.6079" lon="6.81814">
        <ele>173.655273</ele>
        <time>2012-05-17T10:24:44Z</time>
      </trkpt>
      <trkpt lat="43.60774" lon="6.818">
        <ele>176.539307</ele>
        <time>2012-05-17T10:24:50Z</time>
      </trkpt>
      <trkpt lat="43.60752" lon="6.81782">
        <ele>177.02002</ele>
        <time>2012-05-17T10:24:57Z</time>
      </trkpt>
      <trkpt lat="43.60749" lon="6.81782">
        <ele>177.50061</ele>
        <time>2012-05-17T10:24:58Z</time>
      </trkpt>
      <trkpt lat="43.60744" lon="6.81774">
        <ele>176.539307</ele>
        <time>2012-05-17T10:25:03Z</time>
      </trkpt>
      <trkpt lat="43.60747" lon="6.81776">
        <ele>175.577881</ele>
        <time>2012-05-17T10:25:05Z</time>
      </trkpt>
      <trkpt lat="43.60768" lon="6.81778">
        <ele>171.252075</ele>
        <time>2012-05-17T10:25:11Z</time>
      </trkpt>
      <trkpt lat="43.60784" lon="6.81789">
        <ele>167.887329</ele>
        <time>2012-05-17T10:25:15Z</time>
      </trkpt>
      <trkpt lat="43.60799" lon="6.81799">
        <ele>165.003418</ele>
        <time>2012-05-17T10:25:20Z</time>
      </trkpt>
      <trkpt lat="43.60807" lon="6.81803">
        <ele>162.119507</ele>
        <time>2012-05-17T10:25:25Z</time>
      </trkpt>
      <trkpt lat="43.60813" lon="6.81805">
        <ele>160.67749</ele>
        <time>2012-05-17T10:25:29Z</time>
      </trkpt>
      <trkpt lat="43.60817" lon="6.81808">
        <ele>162.119507</ele>
        <time>2012-05-17T10:25:36Z</time>
      </trkpt>
      <trkpt lat="43.60825" lon="6.81811">
        <ele>162.600098</ele>
        <time>2012-05-17T10:25:41Z</time>
      </trkpt>
      <trkpt lat="43.6083" lon="6.81816">
        <ele>162.600098</ele>
        <time>2012-05-17T10:25:44Z</time>
      </trkpt>
      <trkpt lat="43.60841" lon="6.81822">
        <ele>161.638916</ele>
        <time>2012-05-17T10:25:50Z</time>
      </trkpt>
      <trkpt lat="43.60851" lon="6.81828">
        <ele>162.119507</ele>
        <time>2012-05-17T10:25:55Z</time>
      </trkpt>
      <trkpt lat="43.60862" lon="6.81835">
        <ele>163.080811</ele>
        <time>2012-05-17T10:26:02Z</time>
      </trkpt>
      <trkpt lat="43.6087" lon="6.81838">
        <ele>164.042114</ele>
        <time>2012-05-17T10:26:06Z</time>
      </trkpt>
      <trkpt lat="43.60881" lon="6.81845">
        <ele>164.522705</ele>
        <time>2012-05-17T10:26:15Z</time>
      </trkpt>
      <trkpt lat="43.60884" lon="6.81848">
        <ele>166.926025</ele>
        <time>2012-05-17T10:26:21Z</time>
      </trkpt>
      <trkpt lat="43.60887" lon="6.81846">
        <ele>170.290649</ele>
        <time>2012-05-17T10:26:41Z</time>
      </trkpt>
      <trkpt lat="43.60891" lon="6.81855">
        <ele>173.174683</ele>
        <time>2012-05-17T10:27:07Z</time>
      </trkpt>
      <trkpt lat="43.60898" lon="6.81861">
        <ele>169.329468</ele>
        <time>2012-05-17T10:27:13Z</time>
      </trkpt>
      <trkpt lat="43.60902" lon="6.81864">
        <ele>168.368042</ele>
        <time>2012-05-17T10:27:15Z</time>
      </trkpt>
      <trkpt lat="43.60914" lon="6.81866">
        <ele>163.080811</ele>
        <time>2012-05-17T10:27:20Z</time>
      </trkpt>
      <trkpt lat="43.60916" lon="6.81868">
        <ele>163.561523</ele>
        <time>2012-05-17T10:27:21Z</time>
      </trkpt>
      <trkpt lat="43.60935" lon="6.81877">
        <ele>166.926025</ele>
        <time>2012-05-17T10:27:27Z</time>
      </trkpt>
      <trkpt lat="43.60941" lon="6.81877">
        <ele>166.926025</ele>
        <time>2012-05-17T10:27:29Z</time>
      </trkpt>
      <trkpt lat="43.60955" lon="6.81883">
        <ele>168.368042</ele>
        <time>2012-05-17T10:27:35Z</time>
      </trkpt>
      <trkpt lat="43.60963" lon="6.81885">
        <ele>169.810059</ele>
        <time>2012-05-17T10:27:39Z</time>
      </trkpt>
      <trkpt lat="43.60965" lon="6.81885">
        <ele>168.848755</ele>
        <time>2012-05-17T10:27:40Z</time>
      </trkpt>
      <trkpt lat="43.60977" lon="6.8189">
        <ele>167.887329</ele>
        <time>2012-05-17T10:27:46Z</time>
      </trkpt>
      <trkpt lat="43.60979" lon="6.81891">
        <ele>167.887329</ele>
        <time>2012-05-17T10:27:47Z</time>
      </trkpt>
      <trkpt lat="43.60989" lon="6.81894">
        <ele>168.848755</ele>
        <time>2012-05-17T10:27:52Z</time>
      </trkpt>
      <trkpt lat="43.60993" lon="6.81893">
        <ele>168.848755</ele>
        <time>2012-05-17T10:27:54Z</time>
      </trkpt>
      <trkpt lat="43.61003" lon="6.81895">
        <ele>169.329468</ele>
        <time>2012-05-17T10:27:59Z</time>
      </trkpt>
      <trkpt lat="43.61005" lon="6.81894">
        <ele>169.810059</ele>
        <time>2012-05-17T10:28:00Z</time>
      </trkpt>
      <trkpt lat="43.61017" lon="6.8189">
        <ele>169.810059</ele>
        <time>2012-05-17T10:28:05Z</time>
      </trkpt>
      <trkpt lat="43.61028" lon="6.81891">
        <ele>170.290649</ele>
        <time>2012-05-17T10:28:10Z</time>
      </trkpt>
      <trkpt lat="43.6103" lon="6.81891">
        <ele>170.290649</ele>
        <time>2012-05-17T10:28:11Z</time>
      </trkpt>
      <trkpt lat="43.61037" lon="6.81892">
        <ele>170.290649</ele>
        <time>2012-05-17T10:28:14Z</time>
      </trkpt>
      <trkpt lat="43.61041" lon="6.81891">
        <ele>171.732666</ele>
        <time>2012-05-17T10:28:26Z</time>
      </trkpt>
      <trkpt lat="43.61041" lon="6.8189">
        <ele>173.655273</ele>
        <time>2012-05-17T10:28:49Z</time>
      </trkpt>
      <trkpt lat="43.6104" lon="6.81892">
        <ele>176.539307</ele>
        <time>2012-05-17T10:29:16Z</time>
      </trkpt>
      <trkpt lat="43.61049" lon="6.819">
        <ele>177.02002</ele>
        <time>2012-05-17T10:29:21Z</time>
      </trkpt>
      <trkpt lat="43.61062" lon="6.81902">
        <ele>178.461914</ele>
        <time>2012-05-17T10:29:26Z</time>
      </trkpt>
      <trkpt lat="43.61071" lon="6.81905">
        <ele>178.942627</ele>
        <time>2012-05-17T10:29:32Z</time>
      </trkpt>
      <trkpt lat="43.6108" lon="6.81913">
        <ele>179.423218</ele>
        <time>2012-05-17T10:29:40Z</time>
      </trkpt>
      <trkpt lat="43.61084" lon="6.81916">
        <ele>179.423218</ele>
        <time>2012-05-17T10:29:46Z</time>
      </trkpt>
      <trkpt lat="43.61093" lon="6.81919">
        <ele>179.903809</ele>
        <time>2012-05-17T10:29:52Z</time>
      </trkpt>
      <trkpt lat="43.61098" lon="6.81922">
        <ele>180.384521</ele>
        <time>2012-05-17T10:29:56Z</time>
      </trkpt>
      <trkpt lat="43.61107" lon="6.81928">
        <ele>180.865234</ele>
        <time>2012-05-17T10:30:03Z</time>
      </trkpt>
      <trkpt lat="43.61123" lon="6.81939">
        <ele>180.865234</ele>
        <time>2012-05-17T10:30:11Z</time>
      </trkpt>
      <trkpt lat="43.61138" lon="6.8195">
        <ele>181.345825</ele>
        <time>2012-05-17T10:30:18Z</time>
      </trkpt>
      <trkpt lat="43.61146" lon="6.81956">
        <ele>181.345825</ele>
        <time>2012-05-17T10:30:23Z</time>
      </trkpt>
      <trkpt lat="43.6115" lon="6.81957">
        <ele>181.826416</ele>
        <time>2012-05-17T10:30:29Z</time>
      </trkpt>
      <trkpt lat="43.61157" lon="6.8195">
        <ele>181.826416</ele>
        <time>2012-05-17T10:30:36Z</time>
      </trkpt>
      <trkpt lat="43.61163" lon="6.81947">
        <ele>182.307129</ele>
        <time>2012-05-17T10:30:39Z</time>
      </trkpt>
      <trkpt lat="43.61173" lon="6.81938">
        <ele>181.826416</ele>
        <time>2012-05-17T10:30:47Z</time>
      </trkpt>
      <trkpt lat="43.61175" lon="6.81936">
        <ele>181.345825</ele>
        <time>2012-05-17T10:30:49Z</time>
      </trkpt>
      <trkpt lat="43.61173" lon="6.81933">
        <ele>181.345825</ele>
        <time>2012-05-17T10:30:54Z</time>
      </trkpt>
      <trkpt lat="43.6117" lon="6.8194">
        <ele>180.865234</ele>
        <time>2012-05-17T10:30:59Z</time>
      </trkpt>
      <trkpt lat="43.61165" lon="6.81932">
        <ele>181.15813551562</ele>
        <time>2012-05-17T10:31:01Z</time>
      </trkpt>
      <trkpt lat="43.61215" lon="6.81907">
        <ele>181.16728868799</ele>
        <time>2012-05-17T10:31:00Z</time>
      </trkpt>
      <trkpt lat="43.61212" lon="6.81817">
        <ele>181.17644186035</ele>
        <time>2012-05-17T10:31:00Z</time>
      </trkpt>
      <trkpt lat="43.61165" lon="6.81602">
        <ele>181.19474820508</ele>
        <time>2012-05-17T10:31:00Z</time>
      </trkpt>
      <trkpt lat="43.61072" lon="6.81499">
        <ele>181.23136089453</ele>
        <time>2012-05-17T10:31:01Z</time>
      </trkpt>
      <trkpt lat="43.6096" lon="6.8143">
        <ele>181.30458627344</ele>
        <time>2012-05-17T10:31:02Z</time>
      </trkpt>
      <trkpt lat="43.60898" lon="6.81263">
        <ele>181.45103703125</ele>
        <time>2012-05-17T10:31:04Z</time>
      </trkpt>
      <trkpt lat="43.60823" lon="6.81126">
        <ele>182.0368400625</ele>
        <time>2012-05-17T10:31:11Z</time>
      </trkpt>
      <trkpt lat="43.60649" lon="6.81053">
        <ele>183.208446125</ele>
        <time>2012-05-17T10:31:24Z</time>
      </trkpt>
      <trkpt lat="43.60516" lon="6.80872">
        <ele>185.55165825</ele>
        <time>2012-05-17T10:31:51Z</time>
      </trkpt>
      <trkpt lat="43.60326" lon="6.80765">
        <ele>190.2380825</ele>
        <time>2012-05-17T10:32:45Z</time>
      </trkpt>
      <trkpt lat="43.60105" lon="6.80589">
        <ele>199.610931</ele>
        <time>2012-05-17T10:34:33Z</time>
      </trkpt>
      <trkpt lat="43.59931" lon="6.80336">
        <ele>218.356628</ele>
        <time>2012-05-17T10:38:09Z</time>
      </trkpt>
      <trkpt lat="43.59755" lon="6.80076">
        <ele>255.848022</ele>
        <time>2012-05-17T10:45:21Z</time>
      </trkpt>
      <trkpt lat="43.59755" lon="6.80076">
        <ele>255.848022</ele>
        <time>2012-05-17T10:45:22Z</time>
      </trkpt>
      <trkpt lat="43.59755" lon="6.80079">
        <ele>255.848022</ele>
        <time>2012-05-17T10:45:30Z</time>
      </trkpt>
      <trkpt lat="43.59754" lon="6.80076">
        <ele>248.157593</ele>
        <time>2012-05-17T10:45:52Z</time>
      </trkpt>
      <trkpt lat="43.59755" lon="6.80074">
        <ele>245.273438</ele>
        <time>2012-05-17T10:45:56Z</time>
      </trkpt>
      <trkpt lat="43.59756" lon="6.80072">
        <ele>245.273438</ele>
        <time>2012-05-17T10:46:17Z</time>
      </trkpt>
      <trkpt lat="43.59756" lon="6.80073">
        <ele>247.196045</ele>
        <time>2012-05-17T10:46:21Z</time>
      </trkpt>
      <trkpt lat="43.59755" lon="6.80076">
        <ele>250.560791</ele>
        <time>2012-05-17T10:46:32Z</time>
      </trkpt>
      <trkpt lat="43.59755" lon="6.80077">
        <ele>246.234863</ele>
        <time>2012-05-17T10:47:33Z</time>
      </trkpt>
      <trkpt lat="43.59755" lon="6.80074">
        <ele>244.312256</ele>
        <time>2012-05-17T10:47:42Z</time>
      </trkpt>
      <trkpt lat="43.59755" lon="6.80076">
        <ele>248.638184</ele>
        <time>2012-05-17T10:47:58Z</time>
      </trkpt>
      <trkpt lat="43.59752" lon="6.8008">
        <ele>254.886597</ele>
        <time>2012-05-17T10:48:19Z</time>
      </trkpt>
      <trkpt lat="43.59758" lon="6.80064">
        <ele>241.428223</ele>
        <time>2012-05-17T10:49:02Z</time>
      </trkpt>
      <trkpt lat="43.59757" lon="6.8008">
        <ele>261.615967</ele>
        <time>2012-05-17T10:49:22Z</time>
      </trkpt>
      <trkpt lat="43.59755" lon="6.80086">
        <ele>267.864502</ele>
        <time>2012-05-17T10:49:32Z</time>
      </trkpt>
      <trkpt lat="43.59754" lon="6.8008">
        <ele>254.406006</ele>
        <time>2012-05-17T10:50:18Z</time>
      </trkpt>
      <trkpt lat="43.59755" lon="6.80084">
        <ele>257.290039</ele>
        <time>2012-05-17T10:50:43Z</time>
      </trkpt>
      <trkpt lat="43.59753" lon="6.80083">
        <ele>256.328735</ele>
        <time>2012-05-17T10:50:57Z</time>
      </trkpt>
      <trkpt lat="43.59757" lon="6.80083">
        <ele>255.36731</ele>
        <time>2012-05-17T10:51:09Z</time>
      </trkpt>
      <trkpt lat="43.59752" lon="6.80094">
        <ele>267.864502</ele>
        <time>2012-05-17T10:51:35Z</time>
      </trkpt>
      <trkpt lat="43.59752" lon="6.80088">
        <ele>264.980591</ele>
        <time>2012-05-17T10:51:44Z</time>
      </trkpt>
      <trkpt lat="43.59754" lon="6.80084">
        <ele>256.809326</ele>
        <time>2012-05-17T10:52:07Z</time>
      </trkpt>
      <trkpt lat="43.59756" lon="6.80079">
        <ele>254.886597</ele>
        <time>2012-05-17T10:52:25Z</time>
      </trkpt>
      <trkpt lat="43.5976" lon="6.80076">
        <ele>252.002808</ele>
        <time>2012-05-17T10:52:35Z</time>
      </trkpt>
      <trkpt lat="43.59759" lon="6.80078">
        <ele>253.444702</ele>
        <time>2012-05-17T10:53:06Z</time>
      </trkpt>
      <trkpt lat="43.59759" lon="6.80077">
        <ele>248.638184</ele>
        <time>2012-05-17T10:53:24Z</time>
      </trkpt>
      <trkpt lat="43.59757" lon="6.80077">
        <ele>247.196045</ele>
        <time>2012-05-17T10:53:46Z</time>
      </trkpt>
      <trkpt lat="43.59758" lon="6.80072">
        <ele>248.157593</ele>
        <time>2012-05-17T10:54:15Z</time>
      </trkpt>
      <trkpt lat="43.5976" lon="6.80075">
        <ele>248.638184</ele>
        <time>2012-05-17T10:54:56Z</time>
      </trkpt>
      <trkpt lat="43.59758" lon="6.80075">
        <ele>250.0802</ele>
        <time>2012-05-17T10:55:32Z</time>
      </trkpt>
      <trkpt lat="43.5976" lon="6.80076">
        <ele>254.886597</ele>
        <time>2012-05-17T10:56:51Z</time>
      </trkpt>
      <trkpt lat="43.59755" lon="6.80077">
        <ele>249.599487</ele>
        <time>2012-05-17T10:57:56Z</time>
      </trkpt>
      <trkpt lat="43.59756" lon="6.80076">
        <ele>250.0802</ele>
        <time>2012-05-17T10:58:26Z</time>
      </trkpt>
      <trkpt lat="43.59755" lon="6.80073">
        <ele>248.157593</ele>
        <time>2012-05-17T10:59:42Z</time>
      </trkpt>
      <trkpt lat="43.59757" lon="6.80071">
        <ele>245.273438</ele>
        <time>2012-05-17T11:00:10Z</time>
      </trkpt>
      <trkpt lat="43.59759" lon="6.80073">
        <ele>243.35083</ele>
        <time>2012-05-17T11:01:01Z</time>
      </trkpt>
      <trkpt lat="43.59758" lon="6.80076">
        <ele>244.792847</ele>
        <time>2012-05-17T11:01:22Z</time>
      </trkpt>
      <trkpt lat="43.59754" lon="6.80074">
        <ele>244.312256</ele>
        <time>2012-05-17T11:01:27Z</time>
      </trkpt>
      <trkpt lat="43.59757" lon="6.80076">
        <ele>244.312256</ele>
        <time>2012-05-17T11:01:33Z</time>
      </trkpt>
      <trkpt lat="43.59758" lon="6.80077">
        <ele>244.792847</ele>
        <time>2012-05-17T11:01:41Z</time>
      </trkpt>
      <trkpt lat="43.59758" lon="6.80077">
        <ele>244.792847</ele>
        <time>2012-05-17T11:02:22Z</time>
      </trkpt>
      <trkpt lat="43.59759" lon="6.80077">
        <ele>245.273438</ele>
        <time>2012-05-17T11:02:29Z</time>
      </trkpt>
      <trkpt lat="43.59759" lon="6.80077">
        <ele>245.273438</ele>
        <time>2012-05-17T11:02:42Z</time>
      </trkpt>
      <trkpt lat="43.59759" lon="6.80079">
        <ele>252.002808</ele>
        <time>2012-05-17T11:03:30Z</time>
      </trkpt>
      <trkpt lat="43.59757" lon="6.8008">
        <ele>250.0802</ele>
        <time>2012-05-17T11:03:37Z</time>
      </trkpt>
      <trkpt lat="43.59754" lon="6.80078">
        <ele>250.0802</ele>
        <time>2012-05-17T11:03:39Z</time>
      </trkpt>
      <trkpt lat="43.59752" lon="6.80074">
        <ele>248.638184</ele>
        <time>2012-05-17T11:03:45Z</time>
      </trkpt>
      <trkpt lat="43.59751" lon="6.80073">
        <ele>248.638184</ele>
        <time>2012-05-17T11:03:46Z</time>
      </trkpt>
      <trkpt lat="43.59741" lon="6.80056">
        <ele>248.157593</ele>
        <time>2012-05-17T11:03:51Z</time>
      </trkpt>
      <trkpt lat="43.59738" lon="6.80052">
        <ele>248.638184</ele>
        <time>2012-05-17T11:03:52Z</time>
      </trkpt>
      <trkpt lat="43.59725" lon="6.8003">
        <ele>249.599487</ele>
        <time>2012-05-17T11:03:57Z</time>
      </trkpt>
      <trkpt lat="43.59712" lon="6.80003">
        <ele>252.483398</ele>
        <time>2012-05-17T11:04:02Z</time>
      </trkpt>
      <trkpt lat="43.59701" lon="6.79975">
        <ele>252.963989</ele>
        <time>2012-05-17T11:04:07Z</time>
      </trkpt>
      <trkpt lat="43.59689" lon="6.79943">
        <ele>248.638184</ele>
        <time>2012-05-17T11:04:12Z</time>
      </trkpt>
      <trkpt lat="43.59675" lon="6.79908">
        <ele>247.196045</ele>
        <time>2012-05-17T11:04:17Z</time>
      </trkpt>
      <trkpt lat="43.59656" lon="6.79871">
        <ele>246.234863</ele>
        <time>2012-05-17T11:04:23Z</time>
      </trkpt>
      <trkpt lat="43.59638" lon="6.79841">
        <ele>244.792847</ele>
        <time>2012-05-17T11:04:28Z</time>
      </trkpt>
      <trkpt lat="43.59614" lon="6.79807">
        <ele>243.831543</ele>
        <time>2012-05-17T11:04:34Z</time>
      </trkpt>
      <trkpt lat="43.59579" lon="6.79761">
        <ele>242.870239</ele>
        <time>2012-05-17T11:04:42Z</time>
      </trkpt>
      <trkpt lat="43.59575" lon="6.79756">
        <ele>242.870239</ele>
        <time>2012-05-17T11:04:43Z</time>
      </trkpt>
      <trkpt lat="43.59561" lon="6.79736">
        <ele>242.870239</ele>
        <time>2012-05-17T11:04:47Z</time>
      </trkpt>
      <trkpt lat="43.59555" lon="6.79727">
        <ele>242.870239</ele>
        <time>2012-05-17T11:04:49Z</time>
      </trkpt>
      <trkpt lat="43.59549" lon="6.79717">
        <ele>243.831543</ele>
        <time>2012-05-17T11:04:53Z</time>
      </trkpt>
      <trkpt lat="43.59546" lon="6.7971">
        <ele>242.389648</ele>
        <time>2012-05-17T11:04:56Z</time>
      </trkpt>
      <trkpt lat="43.59535" lon="6.79679">
        <ele>239.986206</ele>
        <time>2012-05-17T11:05:02Z</time>
      </trkpt>
      <trkpt lat="43.59529" lon="6.79655">
        <ele>238.544312</ele>
        <time>2012-05-17T11:05:06Z</time>
      </trkpt>
      <trkpt lat="43.59527" lon="6.79634">
        <ele>238.063599</ele>
        <time>2012-05-17T11:05:10Z</time>
      </trkpt>
      <trkpt lat="43.5952" lon="6.7962">
        <ele>238.063599</ele>
        <time>2012-05-17T11:05:14Z</time>
      </trkpt>
      <trkpt lat="43.59504" lon="6.79616">
        <ele>236.140991</ele>
        <time>2012-05-17T11:05:19Z</time>
      </trkpt>
      <trkpt lat="43.59486" lon="6.79616">
        <ele>234.699097</ele>
        <time>2012-05-17T11:05:23Z</time>
      </trkpt>
      <trkpt lat="43.59478" lon="6.79613">
        <ele>234.699097</ele>
        <time>2012-05-17T11:05:26Z</time>
      </trkpt>
      <trkpt lat="43.59476" lon="6.79612">
        <ele>233.737671</ele>
        <time>2012-05-17T11:05:31Z</time>
      </trkpt>
      <trkpt lat="43.59472" lon="6.79605">
        <ele>233.25708</ele>
        <time>2012-05-17T11:05:36Z</time>
      </trkpt>
      <trkpt lat="43.5946" lon="6.79592">
        <ele>232.295776</ele>
        <time>2012-05-17T11:05:40Z</time>
      </trkpt>
      <trkpt lat="43.59446" lon="6.79579">
        <ele>232.295776</ele>
        <time>2012-05-17T11:05:44Z</time>
      </trkpt>
      <trkpt lat="43.59437" lon="6.79572">
        <ele>232.776489</ele>
        <time>2012-05-17T11:05:46Z</time>
      </trkpt>
      <trkpt lat="43.59428" lon="6.79567">
        <ele>232.776489</ele>
        <time>2012-05-17T11:05:48Z</time>
      </trkpt>
      <trkpt lat="43.59406" lon="6.79557">
        <ele>232.295776</ele>
        <time>2012-05-17T11:05:53Z</time>
      </trkpt>
      <trkpt lat="43.594" lon="6.79557">
        <ele>232.295776</ele>
        <time>2012-05-17T11:05:54Z</time>
      </trkpt>
      <trkpt lat="43.59388" lon="6.79557">
        <ele>232.295776</ele>
        <time>2012-05-17T11:05:56Z</time>
      </trkpt>
      <trkpt lat="43.59364" lon="6.7956">
        <ele>229.892334</ele>
        <time>2012-05-17T11:06:00Z</time>
      </trkpt>
      <trkpt lat="43.59329" lon="6.79581">
        <ele>227.008545</ele>
        <time>2012-05-17T11:06:07Z</time>
      </trkpt>
      <trkpt lat="43.59323" lon="6.79584">
        <ele>227.008545</ele>
        <time>2012-05-17T11:06:08Z</time>
      </trkpt>
      <trkpt lat="43.59296" lon="6.79608">
        <ele>223.643799</ele>
        <time>2012-05-17T11:06:13Z</time>
      </trkpt>
      <trkpt lat="43.59294" lon="6.79625">
        <ele>221.721191</ele>
        <time>2012-05-17T11:06:15Z</time>
      </trkpt>
      <trkpt lat="43.59286" lon="6.79644">
        <ele>218.356567</ele>
        <time>2012-05-17T11:06:18Z</time>
      </trkpt>
      <trkpt lat="43.5928" lon="6.79648">
        <ele>217.395386</ele>
        <time>2012-05-17T11:06:19Z</time>
      </trkpt>
      <trkpt lat="43.5926" lon="6.79656">
        <ele>215.953247</ele>
        <time>2012-05-17T11:06:22Z</time>
      </trkpt>
      <trkpt lat="43.59232" lon="6.79651">
        <ele>215.472656</ele>
        <time>2012-05-17T11:06:26Z</time>
      </trkpt>
      <trkpt lat="43.59202" lon="6.7962">
        <ele>214.991943</ele>
        <time>2012-05-17T11:06:32Z</time>
      </trkpt>
      <trkpt lat="43.5918" lon="6.79606">
        <ele>217.395386</ele>
        <time>2012-05-17T11:06:37Z</time>
      </trkpt>
      <trkpt lat="43.59175" lon="6.79606">
        <ele>217.875977</ele>
        <time>2012-05-17T11:06:38Z</time>
      </trkpt>
      <trkpt lat="43.5914" lon="6.7961">
        <ele>221.721191</ele>
        <time>2012-05-17T11:06:45Z</time>
      </trkpt>
      <trkpt lat="43.59135" lon="6.7961">
        <ele>221.721191</ele>
        <time>2012-05-17T11:06:46Z</time>
      </trkpt>
      <trkpt lat="43.59107" lon="6.79606">
        <ele>221.240601</ele>
        <time>2012-05-17T11:06:52Z</time>
      </trkpt>
      <trkpt lat="43.59095" lon="6.79603">
        <ele>220.759888</ele>
        <time>2012-05-17T11:06:55Z</time>
      </trkpt>
      <trkpt lat="43.59074" lon="6.79606">
        <ele>219.317993</ele>
        <time>2012-05-17T11:07:00Z</time>
      </trkpt>
      <trkpt lat="43.59041" lon="6.79614">
        <ele>212.588623</ele>
        <time>2012-05-17T11:07:05Z</time>
      </trkpt>
      <trkpt lat="43.59015" lon="6.79618">
        <ele>206.340088</ele>
        <time>2012-05-17T11:07:08Z</time>
      </trkpt>
      <trkpt lat="43.59003" lon="6.79621">
        <ele>202.975464</ele>
        <time>2012-05-17T11:07:10Z</time>
      </trkpt>
      <trkpt lat="43.58979" lon="6.79624">
        <ele>198.168945</ele>
        <time>2012-05-17T11:07:14Z</time>
      </trkpt>
      <trkpt lat="43.58955" lon="6.79616">
        <ele>195.765625</ele>
        <time>2012-05-17T11:07:19Z</time>
      </trkpt>
      <trkpt lat="43.58938" lon="6.79605">
        <ele>195.284912</ele>
        <time>2012-05-17T11:07:22Z</time>
      </trkpt>
      <trkpt lat="43.58926" lon="6.79599">
        <ele>195.284912</ele>
        <time>2012-05-17T11:07:24Z</time>
      </trkpt>
      <trkpt lat="43.5891" lon="6.79581">
        <ele>194.32373</ele>
        <time>2012-05-17T11:07:27Z</time>
      </trkpt>
      <trkpt lat="43.5889" lon="6.79567">
        <ele>193.362305</ele>
        <time>2012-05-17T11:07:31Z</time>
      </trkpt>
      <trkpt lat="43.58873" lon="6.79561">
        <ele>193.362305</ele>
        <time>2012-05-17T11:07:34Z</time>
      </trkpt>
      <trkpt lat="43.58852" lon="6.79551">
        <ele>195.284912</ele>
        <time>2012-05-17T11:07:38Z</time>
      </trkpt>
      <trkpt lat="43.58845" lon="6.79548">
        <ele>195.284912</ele>
        <time>2012-05-17T11:07:40Z</time>
      </trkpt>
      <trkpt lat="43.58824" lon="6.79535">
        <ele>196.246338</ele>
        <time>2012-05-17T11:07:45Z</time>
      </trkpt>
      <trkpt lat="43.58807" lon="6.79535">
        <ele>195.765625</ele>
        <time>2012-05-17T11:07:49Z</time>
      </trkpt>
      <trkpt lat="43.58797" lon="6.79537">
        <ele>195.765625</ele>
        <time>2012-05-17T11:07:52Z</time>
      </trkpt>
      <trkpt lat="43.58787" lon="6.79544">
        <ele>197.688232</ele>
        <time>2012-05-17T11:07:56Z</time>
      </trkpt>
      <trkpt lat="43.58781" lon="6.79551">
        <ele>199.130127</ele>
        <time>2012-05-17T11:07:59Z</time>
      </trkpt>
      <trkpt lat="43.58775" lon="6.79554">
        <ele>199.130127</ele>
        <time>2012-05-17T11:08:04Z</time>
      </trkpt>
      <trkpt lat="43.58768" lon="6.79556">
        <ele>199.61084</ele>
        <time>2012-05-17T11:08:15Z</time>
      </trkpt>
      <trkpt lat="43.58763" lon="6.79557">
        <ele>199.130127</ele>
        <time>2012-05-17T11:08:18Z</time>
      </trkpt>
      <trkpt lat="43.58753" lon="6.79554">
        <ele>200.572266</ele>
        <time>2012-05-17T11:08:23Z</time>
      </trkpt>
      <trkpt lat="43.58745" lon="6.79559">
        <ele>200.091675</ele>
        <time>2012-05-17T11:08:27Z</time>
      </trkpt>
      <trkpt lat="43.5873" lon="6.79566">
        <ele>199.61084</ele>
        <time>2012-05-17T11:08:33Z</time>
      </trkpt>
      <trkpt lat="43.58717" lon="6.79575">
        <ele>198.649536</ele>
        <time>2012-05-17T11:08:39Z</time>
      </trkpt>
      <trkpt lat="43.58708" lon="6.79585">
        <ele>198.168945</ele>
        <time>2012-05-17T11:08:43Z</time>
      </trkpt>
      <trkpt lat="43.58695" lon="6.79601">
        <ele>196.726929</ele>
        <time>2012-05-17T11:08:48Z</time>
      </trkpt>
      <trkpt lat="43.58684" lon="6.79618">
        <ele>193.843018</ele>
        <time>2012-05-17T11:08:52Z</time>
      </trkpt>
      <trkpt lat="43.58675" lon="6.79639">
        <ele>190.478394</ele>
        <time>2012-05-17T11:08:56Z</time>
      </trkpt>
      <trkpt lat="43.58671" lon="6.79647">
        <ele>189.036377</ele>
        <time>2012-05-17T11:08:58Z</time>
      </trkpt>
      <trkpt lat="43.58659" lon="6.79662">
        <ele>185.671753</ele>
        <time>2012-05-17T11:09:03Z</time>
      </trkpt>
      <trkpt lat="43.58652" lon="6.79677">
        <ele>183.749023</ele>
        <time>2012-05-17T11:09:07Z</time>
      </trkpt>
      <trkpt lat="43.58646" lon="6.79691">
        <ele>182.307129</ele>
        <time>2012-05-17T11:09:11Z</time>
      </trkpt>
      <trkpt lat="43.58633" lon="6.79717">
        <ele>182.307129</ele>
        <time>2012-05-17T11:09:16Z</time>
      </trkpt>
      <trkpt lat="43.58627" lon="6.79733">
        <ele>181.826416</ele>
        <time>2012-05-17T11:09:19Z</time>
      </trkpt>
      <trkpt lat="43.58617" lon="6.79762">
        <ele>181.826416</ele>
        <time>2012-05-17T11:09:25Z</time>
      </trkpt>
      <trkpt lat="43.58615" lon="6.79766">
        <ele>182.307129</ele>
        <time>2012-05-17T11:09:26Z</time>
      </trkpt>
      <trkpt lat="43.58604" lon="6.79783">
        <ele>183.268433</ele>
        <time>2012-05-17T11:09:31Z</time>
      </trkpt>
      <trkpt lat="43.58598" lon="6.79804">
        <ele>184.710571</ele>
        <time>2012-05-17T11:09:35Z</time>
      </trkpt>
      <trkpt lat="43.58591" lon="6.79822">
        <ele>185.191162</ele>
        <time>2012-05-17T11:09:38Z</time>
      </trkpt>
      <trkpt lat="43.58587" lon="6.79839">
        <ele>184.229858</ele>
        <time>2012-05-17T11:09:42Z</time>
      </trkpt>
      <trkpt lat="43.58581" lon="6.79854">
        <ele>182.787842</ele>
        <time>2012-05-17T11:09:46Z</time>
      </trkpt>
      <trkpt lat="43.58579" lon="6.79857">
        <ele>182.307129</ele>
        <time>2012-05-17T11:09:47Z</time>
      </trkpt>
      <trkpt lat="43.58573" lon="6.79877">
        <ele>177.981201</ele>
        <time>2012-05-17T11:09:53Z</time>
      </trkpt>
      <trkpt lat="43.58566" lon="6.79893">
        <ele>176.058594</ele>
        <time>2012-05-17T11:09:57Z</time>
      </trkpt>
      <trkpt lat="43.58564" lon="6.79899">
        <ele>174.616577</ele>
        <time>2012-05-17T11:10:01Z</time>
      </trkpt>
      <trkpt lat="43.58562" lon="6.7992">
        <ele>171.252075</ele>
        <time>2012-05-17T11:10:07Z</time>
      </trkpt>
      <trkpt lat="43.58559" lon="6.79928">
        <ele>170.290649</ele>
        <time>2012-05-17T11:10:09Z</time>
      </trkpt>
      <trkpt lat="43.58551" lon="6.79955">
        <ele>167.406738</ele>
        <time>2012-05-17T11:10:14Z</time>
      </trkpt>
      <trkpt lat="43.5855" lon="6.79975">
        <ele>165.484131</ele>
        <time>2012-05-17T11:10:18Z</time>
      </trkpt>
      <trkpt lat="43.58538" lon="6.7999">
        <ele>164.522705</ele>
        <time>2012-05-17T11:10:23Z</time>
      </trkpt>
      <trkpt lat="43.58524" lon="6.80001">
        <ele>161.638916</ele>
        <time>2012-05-17T11:10:28Z</time>
      </trkpt>
      <trkpt lat="43.58514" lon="6.80014">
        <ele>160.67749</ele>
        <time>2012-05-17T11:10:33Z</time>
      </trkpt>
      <trkpt lat="43.58507" lon="6.80013">
        <ele>160.67749</ele>
        <time>2012-05-17T11:10:37Z</time>
      </trkpt>
      <trkpt lat="43.58501" lon="6.80013">
        <ele>159.235474</ele>
        <time>2012-05-17T11:10:40Z</time>
      </trkpt>
      <trkpt lat="43.58492" lon="6.8001">
        <ele>157.793579</ele>
        <time>2012-05-17T11:10:44Z</time>
      </trkpt>
      <trkpt lat="43.58481" lon="6.80008">
        <ele>157.312866</ele>
        <time>2012-05-17T11:10:47Z</time>
      </trkpt>
      <trkpt lat="43.58472" lon="6.80006">
        <ele>156.832153</ele>
        <time>2012-05-17T11:10:51Z</time>
      </trkpt>
      <trkpt lat="43.5847" lon="6.80005">
        <ele>156.832153</ele>
        <time>2012-05-17T11:10:52Z</time>
      </trkpt>
      <trkpt lat="43.58462" lon="6.80003">
        <ele>155.870972</ele>
        <time>2012-05-17T11:10:55Z</time>
      </trkpt>
      <trkpt lat="43.58457" lon="6.80012">
        <ele>154.909546</ele>
        <time>2012-05-17T11:11:00Z</time>
      </trkpt>
      <trkpt lat="43.58456" lon="6.80013">
        <ele>156.832153</ele>
        <time>2012-05-17T11:11:06Z</time>
      </trkpt>
      <trkpt lat="43.58455" lon="6.80013">
        <ele>157.793579</ele>
        <time>2012-05-17T11:11:11Z</time>
      </trkpt>
      <trkpt lat="43.58455" lon="6.80013">
        <ele>158.754761</ele>
        <time>2012-05-17T11:11:22Z</time>
      </trkpt>
      <trkpt lat="43.58453" lon="6.80014">
        <ele>161.158203</ele>
        <time>2012-05-17T11:11:38Z</time>
      </trkpt>
      <trkpt lat="43.58454" lon="6.80015">
        <ele>161.638916</ele>
        <time>2012-05-17T11:11:44Z</time>
      </trkpt>
      <trkpt lat="43.58453" lon="6.80014">
        <ele>163.561523</ele>
        <time>2012-05-17T11:11:59Z</time>
      </trkpt>
      <trkpt lat="43.58452" lon="6.80017">
        <ele>163.561523</ele>
        <time>2012-05-17T11:12:42Z</time>
      </trkpt>
      <trkpt lat="43.58447" lon="6.80025">
        <ele>161.638916</ele>
        <time>2012-05-17T11:12:45Z</time>
      </trkpt>
      <trkpt lat="43.58438" lon="6.80033">
        <ele>159.716187</ele>
        <time>2012-05-17T11:12:48Z</time>
      </trkpt>
      <trkpt lat="43.58439" lon="6.80047">
        <ele>159.716187</ele>
        <time>2012-05-17T11:12:52Z</time>
      </trkpt>
      <trkpt lat="43.58454" lon="6.80075">
        <ele>156.351562</ele>
        <time>2012-05-17T11:12:59Z</time>
      </trkpt>
      <trkpt lat="43.58455" lon="6.80085">
        <ele>154.909546</ele>
        <time>2012-05-17T11:13:01Z</time>
      </trkpt>
      <trkpt lat="43.58457" lon="6.80089">
        <ele>154.428955</ele>
        <time>2012-05-17T11:13:03Z</time>
      </trkpt>
      <trkpt lat="43.58462" lon="6.80107">
        <ele>152.986938</ele>
        <time>2012-05-17T11:13:07Z</time>
      </trkpt>
      <trkpt lat="43.58469" lon="6.80126">
        <ele>152.986938</ele>
        <time>2012-05-17T11:13:11Z</time>
      </trkpt>
      <trkpt lat="43.58471" lon="6.80128">
        <ele>152.506348</ele>
        <time>2012-05-17T11:13:14Z</time>
      </trkpt>
      <trkpt lat="43.58472" lon="6.80129">
        <ele>151.544922</ele>
        <time>2012-05-17T11:13:23Z</time>
      </trkpt>
      <trkpt lat="43.58474" lon="6.80128">
        <ele>151.544922</ele>
        <time>2012-05-17T11:13:29Z</time>
      </trkpt>
      <trkpt lat="43.58473" lon="6.80127">
        <ele>151.064209</ele>
        <time>2012-05-17T11:13:36Z</time>
      </trkpt>
      <trkpt lat="43.58472" lon="6.80128">
        <ele>151.064209</ele>
        <time>2012-05-17T11:13:40Z</time>
      </trkpt>
      <trkpt lat="43.58472" lon="6.80129">
        <ele>151.064209</ele>
        <time>2012-05-17T11:13:48Z</time>
      </trkpt>
      <trkpt lat="43.58472" lon="6.80129">
        <ele>150.583618</ele>
        <time>2012-05-17T11:13:55Z</time>
      </trkpt>
      <trkpt lat="43.58472" lon="6.8013">
        <ele>151.064209</ele>
        <time>2012-05-17T11:14:06Z</time>
      </trkpt>
      <trkpt lat="43.58472" lon="6.8013">
        <ele>151.064209</ele>
        <time>2012-05-17T11:14:15Z</time>
      </trkpt>
      <trkpt lat="43.58475" lon="6.80131">
        <ele>151.064209</ele>
        <time>2012-05-17T11:14:20Z</time>
      </trkpt>
      <trkpt lat="43.58476" lon="6.80136">
        <ele>150.583618</ele>
        <time>2012-05-17T11:14:27Z</time>
      </trkpt>
      <trkpt lat="43.58474" lon="6.80131">
        <ele>152.025757</ele>
        <time>2012-05-17T11:14:35Z</time>
      </trkpt>
      <trkpt lat="43.58472" lon="6.80131">
        <ele>152.025757</ele>
        <time>2012-05-17T11:14:40Z</time>
      </trkpt>
      <trkpt lat="43.58473" lon="6.80131">
        <ele>150.583618</ele>
        <time>2012-05-17T11:14:55Z</time>
      </trkpt>
      <trkpt lat="43.58473" lon="6.80131">
        <ele>150.103027</ele>
        <time>2012-05-17T11:15:04Z</time>
      </trkpt>
      <trkpt lat="43.58473" lon="6.80131">
        <ele>149.141602</ele>
        <time>2012-05-17T11:15:21Z</time>
      </trkpt>
      <trkpt lat="43.58473" lon="6.80132">
        <ele>149.622314</ele>
        <time>2012-05-17T11:15:37Z</time>
      </trkpt>
      <trkpt lat="43.58473" lon="6.80131">
        <ele>149.141602</ele>
        <time>2012-05-17T11:15:51Z</time>
      </trkpt>
      <trkpt lat="43.58473" lon="6.80131">
        <ele>150.103027</ele>
        <time>2012-05-17T11:16:02Z</time>
      </trkpt>
      <trkpt lat="43.58473" lon="6.80131">
        <ele>151.064209</ele>
        <time>2012-05-17T11:16:13Z</time>
      </trkpt>
      <trkpt lat="43.58474" lon="6.80129">
        <ele>149.622314</ele>
        <time>2012-05-17T11:16:53Z</time>
      </trkpt>
      <trkpt lat="43.58474" lon="6.8013">
        <ele>149.622314</ele>
        <time>2012-05-17T11:16:59Z</time>
      </trkpt>
      <trkpt lat="43.58474" lon="6.8013">
        <ele>150.103027</ele>
        <time>2012-05-17T11:17:12Z</time>
      </trkpt>
      <trkpt lat="43.58474" lon="6.8013">
        <ele>149.622314</ele>
        <time>2012-05-17T11:17:22Z</time>
      </trkpt>
      <trkpt lat="43.58474" lon="6.80129">
        <ele>149.622314</ele>
        <time>2012-05-17T11:17:28Z</time>
      </trkpt>
      <trkpt lat="43.58472" lon="6.80127">
        <ele>150.103027</ele>
        <time>2012-05-17T11:17:33Z</time>
      </trkpt>
      <trkpt lat="43.58474" lon="6.80128">
        <ele>150.103027</ele>
        <time>2012-05-17T11:17:48Z</time>
      </trkpt>
      <trkpt lat="43.58474" lon="6.80128">
        <ele>150.583618</ele>
        <time>2012-05-17T11:18:01Z</time>
      </trkpt>
      <trkpt lat="43.58473" lon="6.80126">
        <ele>149.622314</ele>
        <time>2012-05-17T11:18:17Z</time>
      </trkpt>
      <trkpt lat="43.58471" lon="6.80122">
        <ele>149.622314</ele>
        <time>2012-05-17T11:18:24Z</time>
      </trkpt>
      <trkpt lat="43.58467" lon="6.80114">
        <ele>148.661011</ele>
        <time>2012-05-17T11:18:31Z</time>
      </trkpt>
      <trkpt lat="43.58464" lon="6.80108">
        <ele>149.141602</ele>
        <time>2012-05-17T11:18:36Z</time>
      </trkpt>
      <trkpt lat="43.58464" lon="6.80106">
        <ele>149.141602</ele>
        <time>2012-05-17T11:18:38Z</time>
      </trkpt>
    </trkseg>
  </trk>
</gpx>